[[{"header":{"parameterUnit":"m.s-1","parameterCategory":1,"la1":31.0,"la2":29.5877,"lo1":-88.7671,"lo2":-86.6584,"dx":0.0162,"dy":0.0185,"nx":115,"ny":88,"refTime":"2022-12-15T18:00:00:Z","depth":0,"parameterNumber":2,"parameterNumberName":"U-component_of_WINDS"},"data":[0.0,0.0,0.0,0.0,0.0,0.0,0.0,0.0,0.0,0.0,0.0,0.0,0.0,0.0,0.0,0.0,0.0,0.0,0.0,0.0,0.0,0.0,0.0,0.0,0.0,0.0,0.0,0.0,0.0,0.0,0.0,0.0,0.0,0.0,0.0,0.0,0.0,0.0,0.0,0.0,0.0,0.0,0.0,0.0,0.0,0.0,0.0,0.0,0.0,0.0,0.0,0.0,0.0,0.0,0.0,0.0,0.0,0.0,0.0,0.0,0.0,0.0,0.0,0.0,0.0,0.0,0.0,0.0,0.0,0.0,0.0,0.0,0.0,0.0,0.0,0.0,0.0,0.0,0.0,0.0,0.0,0.0,0.0,0.0,0.0,0.0,0.0,0.0,0.0,0.0,0.0,0.0,0.0,0.0,0.0,0.0,0.0,0.0,0.0,0.0,0.0,0.0,0.0,0.0,0.0,0.0,0.0,0.0,0.0,0.0,0.0,0.0,0.0,0.0,0.0,0.0,0.0,0.0,0.0,0.0,0.0,0.0,0.0,0.0,0.0,0.0,0.0,0.0,0.0,0.0,0.0,0.0,0.0,0.0,0.0,0.0,0.0,0.0,0.0,0.0,0.0,0.0,0.0,0.0,0.0,0.0,0.0,0.0,0.0,0.0,0.0,0.0,0.0,0.0,0.0,0.0,0.0,0.0,0.0,0.0,0.0,0.0,0.0,0.0,0.0,0.0,0.0,0.0,0.0,0.0,0.0,0.0,0.0,0.0,0.0,0.0,0.0,0.0,0.0,0.0,0.0,0.0,0.0,0.0,0.0,0.0,0.0,0.0,0.0,0.0,0.0,0.0,0.0,0.0,0.0,0.0,0.0,0.0,0.0,0.0,0.0,0.0,0.0,0.0,0.0,0.0,0.0,0.0,0.0,0.0,0.0,0.0,0.0,0.0,0.0,0.0,0.0,0.0,0.0,0.0,0.0,0.0,0.0,0.0,0.0,0.0,0.0,0.0,0.0,0.0,0.0,0.0,0.0,0.0,0.0,0.0,0.0,0.0,0.0,0.0,0.0,0.0,0.0,0.0,0.0,0.0,0.0,0.0,0.0,0.0,0.0,0.0,0.0,0.0,0.0,0.0,0.0,0.0,0.0,0.0,0.0,0.0,0.0,0.0,0.0,0.0,0.0,0.0,0.0,0.0,0.0,0.0,0.0,0.0,0.0,0.0,0.0,0.0,0.0,0.0,0.0,0.0,0.0,0.0,0.0,0.0,0.0,0.0,0.0,0.0,0.0,0.0,0.0,0.0,0.0,0.0,0.0,0.0,0.0,0.0,0.0,0.0,0.0,0.0,0.0,0.0,0.0,0.0,0.0,0.0,0.0,0.0,0.0,0.0,0.0,0.0,0.0,0.0,0.0,0.0,0.0,0.0,0.0,0.0,0.0,0.0,0.0,0.0,0.0,0.0,0.0,0.0,0.0,0.0,0.0,0.0,0.0,0.0,0.0,0.0,0.0,0.0,0.0,0.0,0.0,0.0,0.0,0.0,0.0,0.0,0.0,0.0,0.0,0.0,0.0,0.0,0.0,0.0,0.0,0.0,0.0,0.0,0.0,0.0,0.0,0.0,0.0,0.0,0.0,0.0,0.0,0.0,0.0,0.0,0.0,0.0,0.0,0.0,0.0,0.0,0.0,0.0,0.0,0.0,0.0,0.0,0.0,0.0,0.0,0.0,0.0,0.0,0.0,0.0,0.0,0.0,0.0,0.0,0.0,0.0,0.0,0.0,0.0,0.0,0.0,0.0,0.0,0.0,0.0,0.0,0.0,0.0,0.0,0.0,0.0,0.0,0.0,0.0,0.0,0.0,0.0,0.0,0.0,0.0,0.0,0.0,0.0,0.0,0.0,0.0,0.0,0.0,0.0,0.0,0.0,0.0,0.0,0.0,0.0,0.0,0.0,0.0,0.0,0.0,0.0,0.0,0.0,0.0,0.0,0.0,0.0,0.0,0.0,0.0,0.0,0.0,0.0,0.0,0.0,0.0,0.0,0.0,0.0,0.0,0.0,0.0,0.0,0.0,0.0,0.0,0.0,0.0,0.0,0.0,0.0,0.0,0.0,0.0,0.0,0.0,0.0,0.0,0.0,0.0,0.0,0.0,0.0,0.0,0.0,0.0,0.0,0.0,0.0,0.0,0.0,0.0,0.0,0.0,0.0,0.0,0.0,0.0,0.0,0.0,0.0,0.0,0.0,0.0,0.0,0.0,0.0,0.0,0.0,0.0,0.0,0.0,0.0,0.0,0.0,0.0,0.0,0.0,0.0,0.0,0.0,0.0,0.0,0.0,0.0,0.0,0.0,0.0,0.0,0.0,0.0,0.0,0.0,0.0,0.0,0.0,0.0,0.0,0.0,0.0,0.0,0.0,0.0,0.0,0.0,0.0,0.0,0.0,0.0,0.0,0.0,0.0,0.0,0.0,0.0,0.0,0.0,0.0,0.0,0.0,0.0,0.0,0.0,0.0,0.0,0.0,0.0,0.0,0.0,0.0,0.0,0.0,0.0,0.0,0.0,0.0,0.0,0.0,0.0,0.0,0.0,0.0,0.0,0.0,0.0,0.0,0.0,0.0,0.0,0.0,0.0,0.0,0.0,0.0,0.0,0.0,0.0,0.0,0.0,0.0,0.0,0.0,0.0,0.0,0.0,0.0,0.0,0.0,0.0,0.0,0.0,0.0,0.0,0.0,0.0,0.0,0.0,0.0,0.0,0.0,0.0,0.0,0.0,0.0,0.0,0.0,0.0,0.0,0.0,0.0,0.0,0.0,0.0,0.0,0.0,0.0,0.0,0.0,0.0,0.0,0.0,0.0,0.0,0.0,0.0,0.0,0.0,0.0,0.0,0.0,0.0,0.0,0.0,0.0,0.0,0.0,0.0,0.0,0.0,0.0,0.0,0.0,0.0,0.0,0.0,0.0,0.0,0.0,0.0,0.0,0.0,0.0,0.0,0.0,0.0,0.0,0.0,0.0,0.0,0.0,0.0,0.0,0.0,0.0,0.0,0.0,0.0,0.0,0.0,0.0,0.0,0.0,0.0,0.0,0.0,0.0,0.0,0.0,0.0,0.0,0.0,0.0,0.0,0.0,0.0,0.0,0.0,0.0,0.0,0.0,0.0,0.0,0.0,0.0,0.0,0.0,0.0,0.0,0.0,0.0,0.0,0.0,0.0,0.0,0.0,0.0,0.0,0.0,0.0,0.0,0.0,0.0,0.0,0.0,0.0,0.0,0.0,0.0,0.0,0.0,0.0,0.0,0.0,0.0,0.0,0.0,0.0,0.0,0.0,0.0,0.0,0.0,0.0,0.0,0.0,0.0,0.0,0.0,0.0,0.0,0.0,0.0,0.0,0.0,0.0,0.0,0.0,0.0,0.0,0.0,0.0,0.0,0.0,0.0,0.0,0.0,0.0,0.0,0.0,0.0,0.0,0.0,0.0,0.0,0.0,0.0,0.0,0.0,0.0,0.0,0.0,0.0,0.0,0.0,0.0,0.0,0.0,0.0,0.0,0.0,0.0,0.0,0.0,0.0,0.0,0.0,0.0,0.0,0.0,0.0,0.0,0.0,0.0,0.0,0.0,0.0,0.0,0.0,0.0,0.0,0.0,0.0,0.0,0.0,0.0,0.0,0.0,0.0,0.0,0.0,0.0,0.0,0.0,0.0,0.0,0.0,0.0,0.0,0.0,0.0,0.0,0.0,0.0,0.0,0.0,0.0,0.0,0.0,0.0,0.0,0.0,0.0,0.0,0.0,0.0,0.0,0.0,0.0,0.0,0.0,0.0,0.0,0.0,0.0,0.0,0.0,0.0,0.0,0.0,0.0,0.0,0.0,0.0,0.0,0.0,0.0,0.0,0.0,0.0,0.0,0.0,0.0,0.0,0.0,0.0,0.0,0.0,0.0,0.0,0.0,0.0,0.0,0.0,0.0,0.0,0.0,0.0,0.0,0.0,0.0,0.0,0.0,0.0,0.0,0.0,0.0,0.0,0.0,0.0,0.0,0.0,0.0,0.0,0.0,0.0,0.0,0.0,0.0,0.0,0.0,0.0,0.0,0.0,0.0,0.0,0.0,0.0,0.0,0.0,0.0,0.0,0.0,0.0,0.0,0.0,0.0,0.0,0.0,0.0,0.0,0.0,0.0,0.0,0.0,0.0,0.0,0.0,0.0,0.0,0.0,0.0,0.0,0.0,0.0,0.0,0.0,0.0,0.0,2.5687,0.0,0.0,0.0,2.5547,0.0,0.0,0.0,0.0,0.0,0.0,0.0,0.0,0.0,0.0,0.0,0.0,0.0,0.0,0.0,0.0,0.0,0.0,0.0,0.0,0.0,0.0,0.0,0.0,0.0,0.0,0.0,0.0,0.0,0.0,0.0,0.0,0.0,0.0,0.0,0.0,0.0,0.0,0.0,0.0,0.0,0.0,0.0,0.0,0.0,0.0,0.0,0.0,0.0,0.0,0.0,0.0,0.0,0.0,0.0,0.0,0.0,0.0,0.0,0.0,0.0,0.0,0.0,0.0,0.0,0.0,0.0,0.0,0.0,0.0,0.0,0.0,0.0,0.0,0.0,0.0,0.0,0.0,0.0,0.0,0.0,0.0,0.0,0.0,0.0,0.0,0.0,0.0,0.0,0.0,0.0,0.0,0.0,0.0,0.0,0.0,0.0,0.0,0.0,0.0,0.0,0.0,0.0,0.0,0.0,0.0,0.0,0.0,0.0,0.0,2.5702,2.5702,2.5697,2.5693,2.5694,0.0,0.0,0.0,0.0,0.0,0.0,0.0,0.0,0.0,0.0,0.0,0.0,0.0,0.0,0.0,0.0,0.0,0.0,0.0,0.0,0.0,0.0,0.0,0.0,0.0,0.0,0.0,0.0,0.0,0.0,0.0,0.0,0.0,0.0,0.0,0.0,0.0,0.0,0.0,0.0,0.0,0.0,0.0,0.0,0.0,0.0,0.0,0.0,0.0,0.0,0.0,0.0,0.0,0.0,0.0,0.0,0.0,0.0,0.0,0.0,0.0,0.0,0.0,0.0,0.0,0.0,0.0,0.0,0.0,0.0,0.0,0.0,0.0,0.0,0.0,0.0,0.0,0.0,0.0,0.0,0.0,0.0,0.0,0.0,0.0,0.0,0.0,0.0,0.0,0.0,0.0,0.0,0.0,0.0,0.0,0.0,0.0,0.0,0.0,0.0,0.0,0.0,0.0,0.0,0.0,0.0,0.0,0.0,0.0,0.0,0.0,0.0,2.5681,2.5707,2.5671,0.0,0.0,0.0,0.0,0.0,0.0,0.0,0.0,0.0,0.0,0.0,0.0,0.0,0.0,0.0,0.0,0.0,0.0,0.0,0.0,0.0,0.0,0.0,0.0,0.0,0.0,0.0,0.0,0.0,0.0,0.0,0.0,0.0,0.0,0.0,0.0,0.0,0.0,0.0,0.0,0.0,0.0,0.0,0.0,0.0,0.0,0.0,0.0,0.0,0.0,0.0,0.0,0.0,0.0,0.0,0.0,0.0,0.0,0.0,0.0,0.0,0.0,0.0,0.0,0.0,0.0,0.0,0.0,0.0,0.0,0.0,0.0,0.0,0.0,0.0,0.0,0.0,0.0,0.0,0.0,0.0,0.0,0.0,0.0,0.0,0.0,0.0,0.0,0.0,0.0,0.0,0.0,0.0,0.0,0.0,0.0,0.0,0.0,0.0,0.0,0.0,0.0,0.0,0.0,0.0,0.0,0.0,0.0,0.0,0.0,2.5696,2.5679,2.5707,0.0,2.5671,0.0,0.0,0.0,0.0,0.0,0.0,0.0,0.0,0.0,0.0,0.0,0.0,0.0,0.0,0.0,0.0,0.0,0.0,0.0,0.0,0.0,0.0,0.0,0.0,0.0,0.0,0.0,0.0,0.0,0.0,0.0,0.0,0.0,0.0,0.0,0.0,0.0,0.0,0.0,0.0,0.0,0.0,0.0,0.0,0.0,0.0,0.0,0.0,0.0,0.0,0.0,0.0,0.0,0.0,0.0,0.0,0.0,0.0,0.0,0.0,0.0,0.0,0.0,0.0,0.0,0.0,0.0,0.0,0.0,0.0,0.0,0.0,0.0,0.0,0.0,0.0,0.0,0.0,0.0,0.0,0.0,0.0,0.0,0.0,0.0,0.0,0.0,0.0,0.0,0.0,0.0,0.0,0.0,0.0,0.0,0.0,0.0,0.0,0.0,0.0,0.0,0.0,0.0,0.0,0.0,0.0,0.0,0.0,0.0,0.0,2.5683,2.5707,2.5694,2.5687,0.0,0.0,0.0,0.0,0.0,0.0,0.0,0.0,0.0,0.0,0.0,0.0,0.0,0.0,0.0,0.0,0.0,0.0,0.0,0.0,0.0,0.0,0.0,0.0,0.0,0.0,0.0,0.0,0.0,0.0,0.0,0.0,0.0,0.0,0.0,0.0,0.0,0.0,0.0,0.0,0.0,0.0,0.0,0.0,0.0,0.0,0.0,0.0,0.0,0.0,0.0,0.0,0.0,0.0,0.0,0.0,0.0,0.0,0.0,0.0,0.0,0.0,0.0,0.0,0.0,0.0,0.0,0.0,0.0,0.0,0.0,0.0,0.0,0.0,0.0,0.0,0.0,0.0,0.0,0.0,0.0,0.0,0.0,0.0,0.0,0.0,0.0,0.0,0.0,0.0,0.0,0.0,0.0,0.0,0.0,0.0,0.0,0.0,0.0,0.0,0.0,0.0,0.0,0.0,0.0,0.0,0.0,0.0,0.0,0.0,2.6076,2.6055,2.6041,2.6026,2.5905,2.5675,0.0,0.0,0.0,0.0,0.0,0.0,0.0,0.0,0.0,0.0,0.0,0.0,0.0,0.0,0.0,0.0,0.0,0.0,0.0,0.0,0.0,0.0,0.0,0.0,0.0,0.0,0.0,0.0,0.0,0.0,0.0,0.0,0.0,0.0,0.0,0.0,0.0,0.0,0.0,0.0,0.0,0.0,0.0,0.0,0.0,0.0,0.0,0.0,0.0,0.0,0.0,0.0,0.0,0.0,0.0,0.0,0.0,0.0,0.0,0.0,0.0,0.0,0.0,0.0,0.0,0.0,0.0,0.0,0.0,0.0,0.0,0.0,0.0,0.0,0.0,0.0,0.0,0.0,0.0,0.0,0.0,0.0,0.0,0.0,0.0,0.0,0.0,0.0,0.0,0.0,0.0,0.0,0.0,0.0,0.0,0.0,0.0,0.0,0.0,0.0,0.0,0.0,0.0,0.0,0.0,0.0,0.0,0.0,2.6898,2.6919,2.6895,2.6836,2.6817,2.6466,0.0,0.0,0.0,0.0,0.0,0.0,0.0,0.0,0.0,0.0,0.0,0.0,0.0,0.0,0.0,0.0,0.0,0.0,0.0,0.0,0.0,0.0,0.0,0.0,0.0,0.0,0.0,0.0,0.0,0.0,0.0,0.0,0.0,0.0,0.0,0.0,0.0,0.0,0.0,0.0,0.0,0.0,0.0,0.0,0.0,0.0,0.0,0.0,0.0,0.0,0.0,0.0,0.0,0.0,0.0,0.0,0.0,0.0,0.0,0.0,0.0,0.0,0.0,0.0,0.0,0.0,0.0,0.0,0.0,0.0,0.0,0.0,0.0,0.0,0.0,0.0,0.0,0.0,0.0,0.0,0.0,0.0,0.0,0.0,0.0,0.0,0.0,0.0,0.0,0.0,0.0,0.0,0.0,0.0,0.0,0.0,0.0,0.0,0.0,0.0,0.0,0.0,0.0,0.0,0.0,0.0,0.0,0.0,0.0,2.7,2.7488,2.774,2.7712,2.7201,2.6767,0.0,0.0,0.0,0.0,0.0,0.0,0.0,0.0,0.0,0.0,0.0,0.0,0.0,0.0,0.0,0.0,0.0,0.0,0.0,0.0,0.0,0.0,0.0,0.0,0.0,0.0,0.0,0.0,0.0,0.0,0.0,0.0,0.0,0.0,0.0,0.0,0.0,0.0,0.0,0.0,0.0,0.0,0.0,0.0,0.0,0.0,0.0,0.0,0.0,0.0,0.0,0.0,0.0,0.0,0.0,0.0,0.0,0.0,0.0,0.0,0.0,0.0,0.0,0.0,0.0,0.0,0.0,0.0,0.0,0.0,0.0,0.0,0.0,0.0,0.0,0.0,0.0,0.0,0.0,0.0,0.0,0.0,0.0,0.0,0.0,0.0,0.0,0.0,0.0,0.0,0.0,0.0,0.0,0.0,0.0,0.0,0.0,0.0,0.0,0.0,0.0,0.0,0.0,0.0,0.0,0.0,0.0,0.0,0.0,2.82,2.9035,2.9284,2.8991,2.8435,2.7762,0.0,0.0,0.0,0.0,0.0,0.0,0.0,0.0,0.0,0.0,0.0,0.0,0.0,0.0,0.0,0.0,0.0,0.0,0.0,0.0,0.0,0.0,0.0,0.0,0.0,0.0,0.0,0.0,0.0,0.0,0.0,0.0,0.0,0.0,0.0,0.0,0.0,0.0,0.0,0.0,0.0,0.0,0.0,0.0,0.0,0.0,0.0,0.0,0.0,0.0,0.0,0.0,0.0,0.0,0.0,0.0,0.0,0.0,0.0,0.0,0.0,0.0,0.0,0.0,0.0,0.0,0.0,0.0,0.0,0.0,0.0,0.0,0.0,0.0,0.0,0.0,0.0,0.0,0.0,0.0,0.0,0.0,0.0,0.0,0.0,0.0,0.0,0.0,0.0,0.0,0.0,0.0,0.0,0.0,0.0,0.0,0.0,0.0,0.0,0.0,0.0,0.0,0.0,0.0,0.0,0.0,0.0,0.0,2.8344,3.0735,3.1598,3.161,3.0787,3.0678,2.9493,0.0,0.0,0.0,0.0,0.0,0.0,0.0,0.0,0.0,0.0,0.0,0.0,0.0,0.0,0.0,0.0,0.0,0.0,0.0,0.0,0.0,0.0,0.0,0.0,0.0,0.0,0.0,0.0,0.0,0.0,0.0,0.0,0.0,0.0,0.0,0.0,0.0,0.0,0.0,0.0,0.0,0.0,0.0,0.0,0.0,0.0,0.0,0.0,0.0,0.0,0.0,0.0,0.0,0.0,0.0,0.0,0.0,0.0,0.0,0.0,0.0,0.0,0.0,0.0,0.0,0.0,0.0,0.0,0.0,0.0,0.0,0.0,0.0,0.0,0.0,0.0,0.0,0.0,0.0,0.0,0.0,0.0,0.0,0.0,0.0,0.0,0.0,0.0,0.0,0.0,0.0,0.0,0.0,0.0,0.0,0.0,0.0,0.0,0.0,0.0,0.0,0.0,0.0,0.0,0.0,0.0,0.0,0.0,0.0,3.3375,3.3691,3.366,3.3368,3.222,3.0651,0.0,0.0,0.0,0.0,0.0,0.0,0.0,0.0,0.0,0.0,0.0,0.0,0.0,0.0,0.0,0.0,0.0,0.0,0.0,0.0,0.0,0.0,0.0,0.0,0.0,0.0,0.0,0.0,0.0,0.0,0.0,0.0,0.0,0.0,0.0,0.0,0.0,0.0,0.0,0.0,0.0,0.0,0.0,0.0,0.0,0.0,0.0,0.0,0.0,0.0,0.0,0.0,0.0,0.0,0.0,0.0,0.0,0.0,0.0,0.0,0.0,0.0,0.0,0.0,0.0,0.0,0.0,0.0,0.0,0.0,0.0,0.0,0.0,0.0,0.0,0.0,0.0,0.0,0.0,0.0,0.0,0.0,0.0,0.0,0.0,0.0,0.0,0.0,0.0,0.0,0.0,0.0,0.0,0.0,0.0,0.0,0.0,0.0,0.0,0.0,0.0,0.0,0.0,0.0,0.0,0.0,0.0,0.0,0.0,3.6918,3.6021,3.5514,3.5531,3.4156,3.2431,3.0404,0.0,0.0,0.0,0.0,0.0,0.0,0.0,0.0,0.0,0.0,0.0,0.0,0.0,0.0,0.0,0.0,0.0,0.0,0.0,0.0,0.0,0.0,0.0,0.0,0.0,0.0,0.0,0.0,0.0,0.0,0.0,0.0,0.0,0.0,0.0,0.0,0.0,0.0,0.0,0.0,0.0,0.0,0.0,0.0,0.0,0.0,0.0,0.0,0.0,0.0,0.0,0.0,0.0,0.0,0.0,0.0,0.0,0.0,0.0,0.0,0.0,0.0,0.0,0.0,0.0,0.0,0.0,0.0,0.0,0.0,0.0,0.0,0.0,0.0,0.0,0.0,0.0,0.0,0.0,0.0,0.0,0.0,0.0,0.0,0.0,0.0,0.0,0.0,0.0,0.0,0.0,0.0,0.0,0.0,0.0,0.0,0.0,0.0,0.0,0.0,0.0,0.0,0.0,0.0,0.0,0.0,0.0,0.0,4.1134,3.8747,3.7459,3.7327,3.6487,3.4753,0.0,0.0,0.0,0.0,0.0,0.0,0.0,0.0,0.0,0.0,0.0,0.0,0.0,0.0,0.0,0.0,0.0,0.0,0.0,0.0,0.0,0.0,0.0,0.0,0.0,0.0,0.0,0.0,0.0,0.0,0.0,0.0,0.0,0.0,0.0,0.0,0.0,0.0,0.0,0.0,0.0,0.0,0.0,0.0,0.0,0.0,0.0,0.0,0.0,0.0,0.0,0.0,0.0,0.0,0.0,0.0,0.0,0.0,0.0,0.0,0.0,0.0,0.0,0.0,0.0,0.0,0.0,0.0,0.0,0.0,0.0,0.0,0.0,0.0,0.0,0.0,0.0,0.0,0.0,0.0,0.0,0.0,0.0,0.0,0.0,0.0,0.0,0.0,0.0,0.0,0.0,0.0,0.0,0.0,0.0,0.0,0.0,0.0,0.0,0.0,0.0,0.0,0.0,0.0,0.0,0.0,0.0,0.0,0.0,4.1939,4.1929,4.1295,4.001,3.9082,3.6802,0.0,0.0,0.0,0.0,0.0,0.0,0.0,0.0,0.0,0.0,0.0,0.0,0.0,0.0,0.0,0.0,0.0,0.0,0.0,0.0,0.0,0.0,0.0,0.0,0.0,0.0,0.0,0.0,0.0,0.0,0.0,0.0,0.0,0.0,0.0,0.0,0.0,0.0,0.0,0.0,0.0,0.0,0.0,0.0,0.0,0.0,0.0,0.0,0.0,0.0,0.0,0.0,0.0,0.0,0.0,0.0,0.0,0.0,0.0,0.0,0.0,0.0,0.0,0.0,0.0,0.0,0.0,0.0,0.0,0.0,0.0,0.0,0.0,0.0,0.0,0.0,0.0,0.0,0.0,0.0,0.0,0.0,0.0,0.0,0.0,0.0,0.0,0.0,0.0,0.0,0.0,0.0,0.0,0.0,0.0,0.0,0.0,0.0,0.0,0.0,0.0,0.0,0.0,0.0,0.0,0.0,0.0,0.0,4.1423,4.3963,4.478,4.4542,4.3177,4.1179,3.8646,0.0,0.0,0.0,0.0,0.0,0.0,0.0,0.0,0.0,0.0,0.0,0.0,0.0,0.0,0.0,0.0,0.0,0.0,0.0,0.0,0.0,0.0,0.0,0.0,0.0,0.0,0.0,0.0,0.0,0.0,0.0,0.0,0.0,0.0,0.0,0.0,0.0,0.0,0.0,0.0,0.0,0.0,0.0,0.0,0.0,0.0,0.0,0.0,0.0,0.0,0.0,0.0,0.0,0.0,0.0,0.0,0.0,0.0,0.0,0.0,0.0,0.0,0.0,0.0,0.0,0.0,0.0,0.0,0.0,0.0,0.0,0.0,0.0,0.0,0.0,0.0,0.0,0.0,0.0,0.0,0.0,0.0,0.0,0.0,0.0,0.0,0.0,0.0,0.0,0.0,0.0,0.0,0.0,0.0,0.0,0.0,0.0,0.0,0.0,0.0,0.0,0.0,0.0,0.0,0.0,0.0,0.0,0.0,4.3918,4.6443,4.7157,4.7167,4.6307,4.3161,4.0421,0.0,0.0,0.0,0.0,0.0,0.0,0.0,0.0,0.0,0.0,0.0,0.0,0.0,0.0,0.0,0.0,0.0,0.0,0.0,0.0,0.0,0.0,0.0,0.0,0.0,0.0,0.0,0.0,0.0,0.0,0.0,0.0,0.0,0.0,0.0,0.0,0.0,0.0,0.0,0.0,0.0,0.0,0.0,0.0,0.0,0.0,0.0,0.0,0.0,0.0,0.0,0.0,0.0,0.0,0.0,0.0,0.0,0.0,0.0,0.0,0.0,0.0,0.0,0.0,0.0,0.0,0.0,0.0,0.0,0.0,0.0,0.0,0.0,0.0,0.0,0.0,0.0,0.0,0.0,0.0,0.0,0.0,0.0,0.0,0.0,0.0,0.0,0.0,0.0,0.0,0.0,0.0,0.0,0.0,0.0,0.0,0.0,0.0,0.0,0.0,0.0,0.0,0.0,0.0,0.0,0.0,0.0,0.0,4.5699,4.8158,4.8366,4.8335,4.8136,4.6064,4.2815,0.0,0.0,0.0,0.0,0.0,0.0,0.0,0.0,0.0,0.0,0.0,0.0,0.0,0.0,0.0,0.0,0.0,0.0,0.0,0.0,0.0,0.0,0.0,0.0,0.0,0.0,0.0,0.0,0.0,0.0,0.0,0.0,0.0,0.0,0.0,0.0,0.0,0.0,0.0,0.0,0.0,0.0,0.0,0.0,0.0,0.0,0.0,0.0,2.7086,0.0,0.0,0.0,0.0,0.0,0.0,0.0,0.0,0.0,0.0,0.0,0.0,0.0,0.0,0.0,0.0,0.0,0.0,0.0,0.0,0.0,0.0,0.0,0.0,0.0,0.0,0.0,0.0,0.0,0.0,0.0,0.0,0.0,0.0,0.0,0.0,0.0,0.0,0.0,0.0,0.0,0.0,0.0,0.0,0.0,0.0,0.0,0.0,0.0,0.0,0.0,0.0,0.0,0.0,0.0,0.0,0.0,0.0,0.0,4.783,4.9958,5.0743,5.0702,4.9887,4.8499,4.5568,0.0,0.0,0.0,0.0,0.0,0.0,0.0,0.0,0.0,0.0,0.0,0.0,0.0,0.0,0.0,0.0,0.0,0.0,0.0,0.0,0.0,0.0,0.0,0.0,0.0,0.0,0.0,0.0,0.0,0.0,0.0,0.0,0.0,0.0,0.0,0.0,0.0,0.0,0.0,0.0,0.0,0.0,0.0,0.0,0.0,0.0,0.0,0.0,0.0,0.0,0.0,0.0,0.0,0.0,0.0,0.0,0.0,0.0,0.0,0.0,0.0,0.0,0.0,0.0,0.0,0.0,0.0,0.0,0.0,0.0,0.0,0.0,0.0,0.0,0.0,0.0,0.0,0.0,0.0,0.0,0.0,0.0,0.0,0.0,0.0,0.0,0.0,0.0,0.0,0.0,0.0,0.0,0.0,0.0,0.0,0.0,0.0,0.0,0.0,0.0,0.0,0.0,0.0,0.0,0.0,0.0,0.0,4.744,5.0036,5.1765,5.3112,5.302,5.1444,5.0479,4.805,4.3901,0.0,0.0,0.0,0.0,0.0,0.0,0.0,0.0,0.0,0.0,0.0,0.0,0.0,0.0,0.0,0.0,0.0,0.0,0.0,0.0,0.0,0.0,0.0,0.0,0.0,0.0,0.0,0.0,0.0,0.0,0.0,0.0,0.0,0.0,0.0,0.0,0.0,0.0,2.5801,2.74,0.0,0.0,0.0,0.0,0.0,0.0,0.0,0.0,2.926,0.0,0.0,0.0,0.0,0.0,0.0,0.0,0.0,0.0,0.0,0.0,0.0,0.0,0.0,0.0,0.0,0.0,0.0,0.0,0.0,0.0,0.0,0.0,0.0,0.0,0.0,0.0,0.0,0.0,0.0,0.0,0.0,0.0,0.0,0.0,0.0,0.0,0.0,0.0,0.0,0.0,0.0,0.0,0.0,0.0,0.0,0.0,0.0,0.0,0.0,0.0,0.0,0.0,0.0,0.0,0.0,4.5831,4.9245,5.181,5.3442,5.3697,5.3332,5.2308,5.1399,4.9201,4.5557,0.0,0.0,0.0,0.0,0.0,0.0,0.0,0.0,0.0,0.0,0.0,0.0,0.0,0.0,0.0,0.0,0.0,0.0,0.0,0.0,0.0,0.0,0.0,0.0,0.0,0.0,0.0,0.0,0.0,0.0,0.0,0.0,0.0,0.0,0.0,0.0,0.0,0.0,0.0,2.9506,3.0364,0.0,0.0,0.0,0.0,0.0,0.0,0.0,0.0,3.1147,0.0,0.0,0.0,0.0,0.0,0.0,0.0,0.0,0.0,0.0,0.0,0.0,0.0,0.0,0.0,0.0,0.0,0.0,0.0,0.0,0.0,0.0,0.0,0.0,0.0,0.0,0.0,0.0,0.0,0.0,0.0,0.0,0.0,0.0,0.0,0.0,0.0,0.0,0.0,0.0,0.0,0.0,0.0,0.0,0.0,0.0,0.0,0.0,0.0,0.0,0.0,0.0,0.0,0.0,0.0,4.751,5.0567,5.3085,5.5145,5.5199,5.4936,5.4451,5.2667,5.0079,0.0,0.0,0.0,0.0,0.0,0.0,0.0,0.0,0.0,0.0,0.0,0.0,0.0,0.0,0.0,0.0,0.0,0.0,0.0,0.0,0.0,0.0,0.0,0.0,0.0,0.0,0.0,0.0,0.0,0.0,0.0,0.0,0.0,0.0,0.0,0.0,0.0,0.0,0.0,0.0,3.1409,3.2629,3.3026,0.0,0.0,0.0,0.0,0.0,0.0,3.3865,3.3067,0.0,0.0,0.0,0.0,0.0,0.0,0.0,0.0,0.0,0.0,0.0,0.0,0.0,0.0,0.0,0.0,0.0,0.0,0.0,0.0,0.0,0.0,0.0,0.0,0.0,0.0,0.0,0.0,0.0,0.0,0.0,0.0,0.0,0.0,0.0,0.0,0.0,0.0,0.0,0.0,0.0,0.0,0.0,0.0,0.0,0.0,0.0,0.0,0.0,0.0,0.0,0.0,0.0,0.0,0.0,4.899,5.1804,5.4351,5.6597,5.6845,5.6703,5.6278,5.4037,5.102,0.0,0.0,0.0,0.0,0.0,0.0,0.0,0.0,0.0,0.0,0.0,0.0,0.0,0.0,0.0,0.0,0.0,0.0,0.0,0.0,0.0,0.0,0.0,0.0,0.0,0.0,0.0,0.0,0.0,0.0,0.0,0.0,0.0,0.0,0.0,0.0,0.0,0.0,0.0,0.0,0.0,3.475,3.5251,3.5828,0.0,0.0,0.0,0.0,3.6727,3.5958,0.0,0.0,0.0,0.0,0.0,0.0,0.0,0.0,0.0,0.0,0.0,0.0,0.0,0.0,0.0,0.0,0.0,0.0,0.0,0.0,0.0,0.0,0.0,0.0,0.0,0.0,0.0,0.0,0.0,0.0,0.0,0.0,0.0,0.0,0.0,0.0,0.0,0.0,0.0,0.0,0.0,0.0,0.0,0.0,0.0,0.0,0.0,0.0,0.0,0.0,0.0,0.0,0.0,0.0,0.0,0.0,4.9913,5.3202,5.5786,5.7477,5.8254,5.7871,5.6251,5.5087,5.2182,0.0,0.0,0.0,0.0,0.0,0.0,0.0,0.0,0.0,0.0,0.0,0.0,0.0,0.0,0.0,0.0,0.0,0.0,0.0,0.0,0.0,0.0,0.0,0.0,0.0,0.0,0.0,0.0,0.0,0.0,0.0,0.0,0.0,0.0,0.0,0.0,0.0,0.0,0.0,0.0,0.0,3.6254,3.8491,3.8792,3.8969,0.0,0.0,3.9451,3.8588,3.8213,0.0,0.0,0.0,0.0,0.0,0.0,0.0,0.0,0.0,0.0,0.0,0.0,0.0,0.0,0.0,0.0,0.0,0.0,0.0,0.0,0.0,0.0,0.0,0.0,0.0,0.0,0.0,0.0,0.0,0.0,0.0,0.0,0.0,0.0,0.0,0.0,0.0,0.0,0.0,0.0,0.0,0.0,0.0,0.0,0.0,0.0,0.0,0.0,0.0,0.0,0.0,0.0,0.0,0.0,0.0,4.7606,5.1513,5.445,5.6714,5.8306,5.871,5.848,5.7644,5.6217,5.3288,0.0,0.0,0.0,0.0,0.0,0.0,0.0,0.0,0.0,0.0,0.0,0.0,0.0,0.0,0.0,0.0,0.0,0.0,0.0,0.0,0.0,0.0,0.0,0.0,0.0,0.0,0.0,0.0,0.0,0.0,0.0,0.0,0.0,0.0,0.0,0.0,0.0,0.0,0.0,0.0,0.0,0.0,4.0535,4.1524,0.0,0.0,0.0,4.2199,4.1732,0.0,0.0,0.0,0.0,0.0,0.0,0.0,0.0,0.0,0.0,0.0,0.0,0.0,0.0,0.0,0.0,0.0,0.0,0.0,0.0,0.0,0.0,0.0,0.0,0.0,0.0,0.0,0.0,0.0,0.0,0.0,0.0,0.0,0.0,0.0,0.0,0.0,0.0,0.0,0.0,0.0,0.0,0.0,0.0,0.0,0.0,0.0,0.0,0.0,0.0,0.0,0.0,0.0,0.0,0.0,0.0,0.0,5.2947,5.5535,5.7602,5.9182,5.9437,5.9347,5.901,5.7246,0.0,0.0,0.0,0.0,0.0,0.0,0.0,0.0,0.0,0.0,0.0,0.0,0.0,0.0,0.0,0.0,0.0,0.0,0.0,0.0,0.0,0.0,0.0,0.0,0.0,0.0,0.0,2.4165,0.0,0.0,0.0,0.0,0.0,0.0,0.0,0.0,0.0,0.0,0.0,0.0,0.0,0.0,4.0819,4.2888,4.4388,4.5281,0.0,0.0,4.5125,4.462,4.3171,4.1419,0.0,0.0,0.0,0.0,0.0,0.0,0.0,0.0,0.0,0.0,0.0,0.0,0.0,0.0,0.0,0.0,0.0,0.0,0.0,0.0,0.0,0.0,0.0,0.0,0.0,0.0,0.0,0.0,0.0,0.0,0.0,0.0,0.0,0.0,0.0,0.0,0.0,0.0,0.0,0.0,0.0,0.0,0.0,0.0,0.0,0.0,0.0,0.0,0.0,0.0,0.0,0.0,0.0,0.0,4.9529,5.3728,5.6371,5.849,6.0044,6.0838,6.0808,5.9917,5.8103,5.5499,0.0,0.0,0.0,0.0,0.0,0.0,0.0,0.0,0.0,0.0,0.0,0.0,0.0,0.0,0.0,0.0,0.0,0.0,0.0,0.0,0.0,0.0,0.0,0.0,0.0,0.0,0.0,0.0,0.0,0.0,0.0,0.0,0.0,0.0,0.0,0.0,0.0,0.0,0.0,0.0,0.0,4.3009,4.6221,4.7383,4.793,0.0,4.8353,4.8231,4.6674,4.549,4.3908,4.1411,0.0,0.0,0.0,0.0,0.0,0.0,0.0,0.0,0.0,0.0,0.0,0.0,0.0,0.0,0.0,0.0,0.0,0.0,0.0,0.0,0.0,0.0,0.0,0.0,0.0,0.0,0.0,0.0,0.0,0.0,0.0,0.0,0.0,0.0,0.0,0.0,0.0,0.0,0.0,0.0,0.0,0.0,0.0,0.0,0.0,0.0,0.0,0.0,0.0,0.0,0.0,0.0,0.0,5.0407,5.4663,5.7221,5.9056,6.0161,6.0994,6.0963,6.0034,5.8644,5.6618,0.0,0.0,0.0,0.0,0.0,0.0,0.0,0.0,0.0,0.0,0.0,0.0,0.0,0.0,0.0,0.0,0.0,0.0,0.0,0.0,0.0,0.0,0.0,0.0,0.0,0.0,0.0,0.0,3.1583,3.198,3.0833,0.0,0.0,0.0,0.0,0.0,0.0,0.0,0.0,0.0,0.0,4.4761,4.8105,4.9251,0.0,0.0,5.0258,4.9792,4.9116,4.7745,4.6008,4.3938,4.1873,0.0,0.0,0.0,0.0,0.0,0.0,0.0,0.0,0.0,0.0,0.0,0.0,0.0,0.0,0.0,0.0,0.0,0.0,0.0,0.0,0.0,0.0,0.0,0.0,0.0,0.0,0.0,0.0,0.0,0.0,0.0,0.0,0.0,0.0,0.0,0.0,0.0,0.0,0.0,0.0,0.0,0.0,0.0,0.0,0.0,0.0,0.0,0.0,0.0,0.0,0.0,0.0,5.1671,5.5903,5.846,6.0176,6.0978,6.1784,6.1716,6.0755,5.9707,5.7969,0.0,0.0,0.0,0.0,0.0,0.0,0.0,0.0,0.0,0.0,0.0,0.0,0.0,0.0,0.0,0.0,0.0,0.0,0.0,0.0,0.0,0.0,0.0,0.0,0.0,0.0,0.0,0.0,3.3481,3.339,3.259,0.0,0.0,0.0,0.0,0.0,0.0,0.0,0.0,0.0,0.0,4.7124,4.9953,5.1198,5.1991,5.2358,5.201,5.1544,5.0982,4.9592,4.7952,4.6161,0.0,0.0,0.0,0.0,0.0,0.0,0.0,0.0,0.0,0.0,0.0,0.0,0.0,0.0,0.0,0.0,0.0,0.0,0.0,0.0,0.0,0.0,0.0,0.0,0.0,0.0,0.0,3.6928,0.0,0.0,3.5873,0.0,0.0,0.0,0.0,0.0,0.0,0.0,0.0,0.0,0.0,0.0,0.0,0.0,0.0,0.0,0.0,0.0,0.0,0.0,0.0,0.0,0.0,5.3329,5.7594,6.0165,6.1889,6.2729,6.356,6.3439,6.246,6.1446,5.9708,5.7101,0.0,0.0,0.0,0.0,0.0,0.0,0.0,0.0,0.0,0.0,0.0,0.0,0.0,0.0,0.0,0.0,0.0,0.0,0.0,0.0,0.0,0.0,0.0,0.0,0.0,0.0,3.6353,3.5945,3.5174,0.0,0.0,0.0,0.0,0.0,0.0,0.0,0.0,0.0,4.5401,4.8011,5.0162,5.1824,5.3454,5.415,5.3417,5.3857,5.3733,5.2056,5.0955,4.9739,0.0,0.0,0.0,0.0,0.0,0.0,0.0,0.0,0.0,0.0,0.0,0.0,0.0,0.0,0.0,0.0,0.0,0.0,0.0,0.0,0.0,0.0,0.0,0.0,0.0,0.0,0.0,4.2078,4.1291,0.0,0.0,0.0,0.0,0.0,0.0,0.0,0.0,0.0,0.0,0.0,4.8673,4.9251,0.0,0.0,0.0,0.0,0.0,0.0,0.0,0.0,0.0,0.0,0.0,0.0,5.4264,5.8412,6.0555,6.2279,6.3624,6.3871,6.3789,6.3352,6.1833,5.9204,5.5352,0.0,0.0,0.0,0.0,0.0,0.0,0.0,0.0,0.0,0.0,0.0,0.0,0.0,0.0,0.0,0.0,0.0,0.0,0.0,0.0,0.0,0.0,0.0,0.0,0.0,3.6969,0.0,0.0,0.0,0.0,0.0,0.0,0.0,0.0,0.0,0.0,4.2199,4.5354,4.8114,5.017,5.2041,5.3731,5.437,5.4746,0.0,0.0,0.0,0.0,0.0,0.0,0.0,0.0,0.0,0.0,0.0,0.0,0.0,0.0,3.5776,3.3504,3.3156,3.3365,3.379,0.0,0.0,0.0,0.0,0.0,0.0,0.0,0.0,0.0,0.0,0.0,0.0,0.0,0.0,4.6781,4.5993,4.5969,0.0,0.0,0.0,0.0,0.0,0.0,0.0,0.0,5.1316,5.1991,5.2531,5.2801,5.2801,0.0,5.2296,5.0648,0.0,0.0,0.0,0.0,0.0,0.0,0.0,0.0,5.6145,5.9767,6.188,6.3458,6.4492,6.4779,6.4673,6.4239,6.2124,5.9451,5.616,5.3766,5.0779,0.0,0.0,0.0,0.0,0.0,0.0,0.0,0.0,0.0,0.0,0.0,0.0,0.0,0.0,0.0,0.0,0.0,0.0,0.0,0.0,0.0,0.0,0.0,3.9546,0.0,0.0,0.0,0.0,0.0,0.0,0.0,0.0,0.0,4.2322,4.5259,4.8116,5.0013,5.1968,5.3649,5.476,0.0,0.0,0.0,0.0,0.0,0.0,0.0,5.225,5.1385,4.9786,4.8136,4.674,4.5049,4.3384,4.1971,0.0,0.0,3.7106,3.6558,3.6793,3.7117,3.7516,3.7903,3.8181,3.9548,4.087,0.0,0.0,0.0,0.0,0.0,0.0,0.0,0.0,5.1541,5.1756,0.0,5.0945,0.0,0.0,0.0,0.0,5.1029,5.1871,0.0,0.0,5.5535,5.5938,5.5917,5.6725,5.6708,5.6038,5.6772,5.6773,5.5843,5.1192,0.0,0.0,0.0,0.0,0.0,0.0,5.8993,6.1606,6.413,6.5455,6.5578,6.6283,6.6178,6.5125,6.2588,6.0602,5.9306,5.6078,5.3022,5.0342,4.7605,0.0,0.0,0.0,0.0,0.0,0.0,0.0,0.0,0.0,0.0,0.0,0.0,0.0,0.0,0.0,0.0,0.0,0.0,0.0,0.0,4.17,0.0,0.0,0.0,0.0,0.0,0.0,0.0,0.0,0.0,4.4984,4.5148,4.799,5.0384,5.1136,0.0,0.0,0.0,0.0,5.7309,5.7255,5.7117,5.6621,5.57,5.4786,5.3872,5.2982,0.0,0.0,4.7121,4.6595,4.6259,4.5299,4.5038,4.3918,4.0599,4.044,4.0739,4.0551,4.1489,4.2378,4.2365,4.3394,4.4748,5.7233,0.0,0.0,0.0,0.0,5.4341,5.465,5.4207,5.5866,5.5789,5.4458,5.5056,0.0,0.0,0.0,0.0,0.0,0.0,5.7097,5.8154,5.8979,5.9364,5.9425,5.9678,5.9699,5.9511,5.9803,5.9843,5.9573,5.8199,5.6244,5.3889,0.0,0.0,0.0,0.0,6.1627,6.4176,6.5639,6.6896,6.811,6.8345,6.768,6.5971,6.452,6.2644,6.0353,5.8642,5.6205,5.2851,5.0236,0.0,0.0,0.0,0.0,0.0,0.0,0.0,0.0,0.0,0.0,0.0,0.0,0.0,0.0,0.0,0.0,0.0,0.0,0.0,4.4509,4.4816,4.4662,0.0,0.0,0.0,0.0,0.0,0.0,0.0,0.0,0.0,5.0205,5.1209,5.2388,0.0,0.0,5.6861,5.6848,5.7629,5.8213,5.8199,5.7544,0.0,5.6506,5.5169,5.4101,5.3785,5.2805,5.162,5.0336,5.0097,4.9529,4.8047,4.7732,4.71,4.5481,4.4154,4.3624,4.3879,4.4151,4.4402,4.4782,4.5992,4.708,6.2535,5.9798,5.8428,5.7559,5.7174,5.8137,5.8252,5.7965,5.9276,5.9314,5.8389,5.8869,5.8522,5.7559,5.7212,0.0,0.0,0.0,6.075,6.1597,6.2444,6.2891,6.2937,6.2959,6.3004,6.305,6.3109,6.3149,6.3226,6.3168,6.2143,6.0074,0.0,5.9469,6.0716,6.2182,6.4053,6.6295,6.7275,6.8221,6.9223,6.9202,6.8428,6.6864,6.5835,6.4193,6.181,6.0431,5.8398,5.5511,5.3176,5.0572,0.0,0.0,0.0,0.0,0.0,0.0,0.0,0.0,0.0,0.0,0.0,3.5661,3.8969,0.0,0.0,0.0,4.4893,4.6355,4.824,4.7932,0.0,0.0,0.0,0.0,0.0,0.0,0.0,4.901,5.0324,5.1648,5.3329,5.3593,5.4081,5.5452,5.6753,5.7702,5.8027,0.0,5.9155,5.9103,5.851,5.7879,5.7459,5.6151,5.4943,5.418,5.3683,5.3034,5.2231,5.203,5.1574,5.0685,5.0342,5.0047,4.9363,4.8277,4.7132,4.652,4.6706,4.7091,4.7316,4.8263,4.9086,6.7155,6.609,6.2891,6.142,6.1204,6.1204,6.1204,6.1281,6.2127,6.2435,6.2397,6.2474,6.2435,6.2358,6.155,0.0,6.2544,6.3267,6.4051,6.4936,6.5779,6.6213,6.6213,6.6283,6.6333,6.6399,6.6399,6.6496,6.657,6.6534,6.6515,6.6515,6.34,6.2605,6.4166,6.5118,6.6489,6.8255,6.9184,6.9596,6.9596,6.9344,6.8746,6.7716,6.6745,6.5302,6.346,6.1672,5.9905,5.8142,5.6226,5.3661,5.0475,0.0,0.0,0.0,0.0,0.0,0.0,0.0,0.0,0.0,0.0,0.0,0.0,0.0,0.0,4.7432,4.8971,0.0,5.101,5.101,0.0,0.0,0.0,4.8831,4.9791,4.9173,4.9691,5.2304,0.0,0.0,5.5093,5.5298,5.5677,5.6581,5.727,5.7998,5.8791,5.9614,6.0079,6.0029,5.9766,5.9293,5.8495,5.7373,5.6053,5.474,5.4218,5.3913,5.3225,5.3022,5.287,5.2627,5.2623,5.2437,5.2294,5.1918,5.1287,4.8754,4.9187,4.9936,4.9746,5.0175,5.0744,6.981,6.8945,6.8073,6.6598,6.474,6.4691,6.4666,6.4743,6.5551,6.5551,6.5051,6.5667,6.559,6.4974,6.4782,6.5128,6.5923,6.609,6.6692,6.7551,6.7807,6.8019,6.8116,6.8154,6.8179,6.8239,6.8258,6.8296,6.8276,6.8276,6.8607,6.9188,6.8452,6.7909,6.7713,6.8684,7.0003,7.1757,7.2055,7.2195,7.2172,7.0823,6.9632,6.8679,6.7637,6.6251,6.4455,6.3232,6.1735,5.9863,5.812,5.614,5.3898,5.1471,0.0,0.0,0.0,0.0,0.0,0.0,0.0,0.0,0.0,4.2893,4.7548,0.0,5.1048,0.0,5.3626,5.428,5.4472,5.3933,0.0,0.0,5.1933,5.1395,5.2298,5.1713,5.202,5.4064,5.4375,5.5046,5.6814,5.7019,5.7553,5.9036,5.8853,5.8892,5.9711,6.0498,6.0965,6.0803,6.0228,5.9649,5.9172,5.7796,5.6575,5.6078,5.5517,5.5021,5.483,5.4702,5.4394,5.3769,5.3536,5.3196,5.2483,5.2704,5.2806,5.1978,5.1444,5.1046,5.0972,5.1372,5.1715,7.2207,7.1717,7.1672,7.0815,6.9378,6.7779,6.7281,6.768,6.8103,6.8232,6.8167,6.859,6.8552,6.8129,6.8129,6.8359,6.8783,6.9232,6.9708,7.0196,7.0681,7.0969,7.1081,7.1105,7.1223,7.1258,7.1275,7.1253,7.1326,7.1326,7.1559,7.2008,7.2008,7.1986,7.187,7.1645,7.2196,7.3613,7.3664,7.3481,7.3055,7.2107,7.0907,6.9589,6.8529,6.7145,6.5388,6.432,6.2938,6.1184,5.9786,5.8252,5.6404,5.4329,5.2044,0.0,0.0,0.0,0.0,0.0,0.0,0.0,0.0,0.0,0.0,0.0,5.4318,5.6049,5.6588,5.6857,5.6879,5.6472,5.6186,5.6169,5.4993,5.4513,5.5442,5.4841,5.4929,5.6388,5.6678,5.7068,5.8064,5.8192,5.8647,5.9996,5.9775,5.9775,6.0553,6.108,6.1291,6.1225,6.0786,6.0152,5.9573,5.8256,5.7289,5.7149,5.6816,5.6396,5.6014,5.5847,5.55,5.4645,5.4372,5.4173,5.3602,5.3709,5.3924,5.379,5.3222,5.2677,5.2494,5.2601,5.2696,7.4596,7.4499,7.4439,7.4281,7.3867,7.0761,6.9755,7.0311,7.0311,7.0632,7.1233,7.1233,7.1233,7.1272,7.1272,7.1233,7.131,7.2122,7.2495,7.2559,7.3466,7.3906,7.3928,7.4073,7.4166,7.4178,7.4211,7.4257,7.4325,7.4325,7.4364,7.4481,7.4481,7.4909,7.5663,7.4194,7.3872,7.4703,7.465,7.4221,7.3469,7.3159,7.2196,7.0555,6.944,6.806,6.6344,6.5254,6.3937,6.2413,6.1261,5.9982,5.84,5.678,5.4866,0.0,5.1507,0.0,0.0,0.0,0.0,0.0,0.0,0.0,0.0,5.5164,5.6857,5.8511,5.8627,5.8627,5.8611,5.8511,5.8457,5.8424,5.767,5.7499,5.8238,5.7776,5.7693,5.859,5.8731,5.8814,5.9037,5.905,5.9361,6.0216,6.0372,6.0605,6.1225,6.1352,6.1306,6.1314,6.1212,6.0653,5.9819,5.887,5.8196,5.8066,5.7848,5.7619,5.6893,5.666,5.6376,5.5493,5.518,5.5084,5.4958,5.4761,5.4705,5.4597,5.4364,5.4123,5.387,5.3607,5.3524,7.7852,7.7157,7.7138,7.6322,7.5002,7.4323,7.3612,7.2958,7.2958,7.3009,7.3164,7.3164,7.3164,7.3164,7.3164,7.3164,7.3202,7.3356,7.3484,7.3534,7.3783,7.3949,7.3994,7.4109,7.4178,7.4227,7.4257,7.4286,7.4325,7.4325,7.4637,7.5337,7.5337,7.5779,7.6586,0.0,0.0,0.0,7.5881,7.5463,7.523,7.3826,7.2561,7.1471,7.046,0.0,6.7222,6.6237,6.5191,6.4052,6.254,0.0,0.0,0.0,0.0,0.0,0.0,0.0,0.0,0.0,0.0,0.0,5.5511,5.5318,5.528,5.7396,5.9204,6.0204,6.0319,6.0319,6.0319,5.9704,5.9281,5.9219,5.855,5.8127,5.8296,5.8238,5.8297,5.8583,5.8706,5.9041,5.9745,5.989,6.019,6.0967,6.1161,6.1225,6.1381,6.1366,6.1337,6.1297,6.1157,6.0899,6.0589,5.9701,5.9039,5.883,5.8268,5.7859,5.7576,5.7444,5.7092,5.6273,5.6034,5.5708,5.5072,5.4829,5.4767,5.4742,5.4576,5.4405,5.4235,5.3982,5.3717,7.9065,7.8626,7.8626,7.8103,0.0,7.7272,7.6963,7.6327,7.5005,7.4625,7.4976,7.4951,7.4925,7.4925,7.4925,7.4925,7.4925,7.4976,7.5001,7.5026,7.5166,7.5253,7.5295,7.5461,7.5526,7.5532,7.5586,7.5612,7.5651,7.5624,7.6064,7.6921,7.6921,7.7167,7.7568,7.7199,7.7024,7.6985,7.6586,7.6196,7.5737,7.487,7.3726,7.2366,7.1331,0.0,0.0,0.0,0.0,0.0,0.0,0.0,0.0,6.1516,0.0,5.888,5.8412,5.7796,5.7005,5.6566,5.6896,5.8127,5.9011,5.9127,5.828,5.9819,6.1127,6.1973,6.2012,6.2026,6.1964,6.1233,6.0695,6.0627,5.9935,5.945,5.9527,5.9579,5.9667,5.9823,5.9878,6.0101,6.0647,6.0716,6.0847,6.1289,6.1419,6.1419,6.1419,6.1419,6.1337,6.1281,6.1119,6.0955,6.0719,6.0353,5.9881,5.971,5.9415,5.8929,5.8425,5.8292,5.7938,5.7089,5.6535,5.6019,5.564,5.5163,5.4767,5.4742,5.4948,5.5074,5.494,5.4426,5.4019,7.9895,7.9881,7.9881,7.9773,7.9531,7.957,7.9403,7.9058,7.6883,0.0,0.0,7.6726,7.6701,7.6701,7.6739,7.6675,7.6714,7.6764,7.6814,7.6814,7.6975,7.704,7.7059,7.7276,7.735,7.7378,7.744,7.7472,7.7433,7.7463,7.7823,7.8486,7.8525,7.8525,7.8495,7.7887,7.7458,7.7255,7.7098,7.6652,7.5971,7.5815,7.4984,7.3416,7.2241,7.1223,7.0251,6.8629,6.7316,6.6459,6.5422,6.4487,6.382,6.3463,6.2694,6.1396,6.1243,6.0627,5.9281,5.9165,5.9473,6.0127,6.1473,6.2012,6.1281,6.1897,6.2589,6.3218,6.3295,6.3232,6.3194,6.2618,6.2145,6.2026,6.145,6.1104,6.1195,6.1219,6.1296,6.1445,6.1505,6.1581,6.1724,6.1795,6.1749,6.1857,6.1988,6.1832,6.1794,6.1624,6.1306,6.1191,6.1079,6.0933,6.0734,6.0597,6.0571,6.036,6.0332,6.0113,5.9455,5.9139,5.8737,5.7886,5.7074,5.6702,5.6398,5.5844,5.5252,5.5158,5.5588,5.5977,5.5798,5.5169,5.4764,8.175,8.1741,8.1702,8.1272,8.0513,8.0513,8.0069,7.9353,7.8787,7.8607,7.8701,7.8701,7.8701,7.8701,7.8701,7.8679,7.8689,7.8712,7.8712,7.8712,7.8762,7.8806,7.894,7.9003,7.9063,7.9144,7.9205,7.9227,7.9237,7.9218,7.9305,7.9383,7.9422,7.947,7.9487,7.9377,7.8955,7.8188,7.7447,7.7011,7.6911,7.6186,7.5635,7.5273,7.3611,7.2202,7.1223,7.0173,6.917,6.8178,6.664,6.5705,6.5513,6.4141,6.318,6.2974,6.2935,6.2858,6.2589,6.2627,6.2666,6.2781,6.2974,6.3051,6.2974,6.3089,6.318,6.3245,6.3322,6.3182,6.313,6.3065,6.2924,6.2935,6.2823,6.272,6.27,6.2785,6.282,6.2891,6.3201,6.3284,6.3206,6.3261,6.3291,6.3441,6.3262,6.3456,6.3146,6.2261,6.1358,6.1137,6.1079,6.0933,6.0734,6.0674,6.0533,6.0398,6.037,6.0304,5.993,5.9832,5.9505,5.8698,5.8325,5.7952,5.7384,5.7156,5.6797,5.663,5.6752,5.6836,5.6735,5.6405,5.622,8.3586,8.3527,8.3048,8.2608,8.2194,8.1689,8.1247,8.0883,8.072,8.0105,7.9232,7.9195,7.9175,7.9135,7.9135,7.9153,7.9089,7.9089,7.9089,7.9089,7.9114,7.9233,7.9286,7.9353,7.9453,7.9507,7.9556,7.9578,7.9578,7.9608,7.9851,8.028,8.0319,8.0328,8.0328,7.9869,7.9448,7.9118,7.8227,7.7564,7.7114,7.6692,7.622,7.5713,7.4767,7.3884,7.2944,7.1474,7.0474,6.9972,6.8283,6.7321,6.7205,6.6051,6.5166,6.4743,6.4282,6.382,6.332,6.3743,6.3988,6.3962,6.4385,6.4629,6.4538,6.4168,6.4103,6.4473,6.4512,6.4485,6.4392,6.4019,6.3733,6.3685,6.3312,6.3016,6.3083,6.3102,6.3192,6.3295,6.3415,6.3527,6.365,6.3729,6.3747,6.38,6.3817,6.3834,6.3817,6.3145,6.2393,6.1853,6.1267,6.0843,6.0699,6.0585,6.048,6.0398,6.037,6.0313,6.0129,6.0099,5.9885,5.9425,5.9014,5.8559,5.8104,5.7655,5.7332,5.7196,5.7435,5.7592,5.7563,5.7716,5.7637,8.4824,8.4737,8.4074,8.38,8.3713,8.3009,8.2713,8.2674,8.2454,8.1569,8.0318,8.002,7.9852,7.9815,7.9835,7.9757,7.9717,7.9696,7.9696,7.9696,7.9737,7.9815,7.992,7.9952,8.0012,8.0078,8.0152,8.0163,8.0163,8.0193,8.0514,8.1138,8.1177,8.1216,8.1177,8.0514,8.0133,7.9916,7.9118,7.8266,7.7426,7.7131,7.6671,7.6037,7.5677,7.5215,7.445,7.2812,7.1777,7.1456,6.9976,6.8963,6.8693,6.7898,6.7128,6.6474,6.5628,6.4782,6.3988,6.4487,6.4847,6.4768,6.5344,6.5701,6.5542,6.506,6.4945,6.5465,6.5503,6.5513,6.5341,6.4891,6.4517,6.4428,6.3894,6.3588,6.3558,6.3528,6.3609,6.377,6.3809,6.3945,6.4062,6.4149,6.425,6.4348,6.427,6.4289,6.4251,6.4115,6.3552,6.2871,6.1835,6.1118,6.0879,6.0648,6.0491,6.0398,6.037,6.0285,6.0167,6.0068,6.0007,5.9804,5.9393,5.9051,5.89,5.8457,5.798,5.7914,5.8226,5.846,5.8315,5.8539,5.8601,8.4817,8.4802,8.4763,8.4668,8.4649,8.4532,8.4483,8.4405,8.3703,8.3303,8.2942,8.2168,8.1742,8.1726,8.1615,8.1502,8.1485,8.1563,8.1504,8.1504,8.1543,8.1621,8.1664,8.1719,8.1803,8.1792,8.1789,8.1722,8.1722,8.1821,8.1958,8.2075,8.2075,8.2036,8.2036,8.1958,8.1568,8.0787,7.9931,7.9079,7.8285,7.7441,7.6946,7.6887,7.604,7.5546,7.5354,7.4399,7.3433,7.2491,7.1424,7.0478,6.9733,6.8809,6.8244,6.8129,6.7321,6.6487,6.5705,6.564,6.569,6.5493,6.5646,6.5695,6.56,6.5523,6.5446,6.5532,6.5561,6.5465,6.5444,6.5329,6.5184,6.5184,6.5108,6.5184,6.507,6.5222,6.5253,6.5293,6.5214,6.5474,6.5422,6.5457,6.5604,6.5599,6.5582,6.5603,6.5543,6.5032,6.4594,6.4138,6.3012,6.2002,6.1684,6.1031,6.0606,6.0446,6.0352,6.0226,6.0167,6.0038,5.9982,5.9918,5.9847,5.9658,5.9663,5.963,5.9416,5.905,5.9095,5.9251,5.8989,5.8908,5.8665,8.6347,8.6261,8.5793,8.5286,8.4849,8.4794,8.4833,8.4746,8.4425,8.4259,8.421,8.3804,8.3013,8.2104,8.1983,8.192,8.1852,8.1833,8.1854,8.1873,8.1854,8.1872,8.1943,8.1975,8.2022,8.2039,8.2065,8.2089,8.2089,8.214,8.214,8.214,8.214,8.214,8.214,8.214,8.1722,8.0924,8.0027,7.9179,7.8339,7.748,7.6995,7.6965,7.6598,7.6338,7.6256,7.54,7.4654,7.4066,7.2716,7.1748,7.13,6.9951,6.9167,6.9102,6.8306,6.7637,6.7275,6.7208,6.7142,6.7016,6.7016,6.6987,6.6927,6.6927,6.6736,6.6238,6.5779,6.5405,6.5413,6.5413,6.5413,6.5413,6.5413,6.5413,6.5413,6.5413,6.5444,6.5494,6.5552,6.5608,6.569,6.5756,6.5881,6.6013,6.6036,6.6036,6.5997,6.5635,6.5408,6.5166,6.418,6.2962,6.2065,6.1447,6.0933,6.0561,6.0352,6.0264,6.0137,6.0038,5.9982,5.9918,5.9885,5.989,5.982,5.9719,5.965,5.9545,5.9401,5.9253,5.9024,5.8902,5.8656,8.7407,8.729,8.6705,8.608,8.5534,8.552,8.5512,8.5473,8.5262,8.5175,8.5136,8.4834,8.4033,8.2947,8.274,8.2668,8.2604,8.2625,8.2608,8.2592,8.2592,8.261,8.2625,8.2659,8.2536,8.2401,8.2429,8.2325,8.2143,8.2104,8.2104,8.2104,8.2104,8.2104,8.2104,8.2104,8.1688,8.0853,8.0012,7.9166,7.8301,7.7453,7.7014,7.7004,7.6948,7.6897,7.6894,7.621,7.5602,7.5214,7.3728,7.2684,7.2315,7.0863,6.9937,6.9613,6.9047,6.8464,6.8186,6.8148,6.8089,6.799,6.799,6.7959,6.7928,6.7897,6.763,6.7095,6.6254,6.5719,6.5413,6.5413,6.5413,6.5413,6.5413,6.5413,6.5413,6.5413,6.5405,6.5465,6.5465,6.5494,6.558,6.569,6.5795,6.587,6.5895,6.5895,6.5895,6.5782,6.5705,6.5705,6.5005,6.3991,6.2432,6.1726,6.1287,6.0619,6.0294,6.0197,6.0106,6.0045,5.995,5.989,5.9853,5.982,5.9757,5.965,5.951,5.9439,5.9328,5.91,5.8905,5.8739,5.8486,8.7407,8.7407,8.7368,8.7251,8.7251,8.7212,8.7251,8.7049,8.6386,8.6041,8.5917,8.5239,8.4785,8.4678,8.4559,8.445,8.4326,8.4237,8.4202,8.4146,8.4185,8.4281,8.4375,8.4375,8.3943,8.3166,8.3102,8.2779,8.2143,8.2104,8.2104,8.2104,8.2104,8.2104,8.2104,8.2104,8.1675,8.074,7.9922,7.9104,7.8285,7.7428,7.6983,7.6994,7.7011,7.6962,7.6908,7.677,7.6298,7.5333,7.4337,7.3373,7.2467,7.1441,7.0464,6.9701,6.9481,6.9011,6.828,6.8174,6.8105,6.8005,6.8119,6.7973,6.8126,6.8165,6.805,6.7821,6.7209,6.6445,6.5605,6.5452,6.5413,6.5413,6.5413,6.5413,6.5413,6.5413,6.5413,6.5375,6.5444,6.5435,6.5494,6.5552,6.5608,6.5635,6.5635,6.5635,6.5663,6.5635,6.5608,6.5552,6.5331,6.4843,6.3274,6.2309,6.1449,6.059,6.0197,6.0106,6.0045,5.995,5.989,5.9824,5.9791,5.9757,5.9616,5.951,5.9401,5.929,5.9177,5.9022,5.8743,5.8492,5.8231,8.7407,8.7407,8.7407,8.7407,8.7407,8.7407,8.7407,8.7368,8.7095,8.6939,8.6893,8.6605,8.6432,8.6405,8.635,8.5676,8.4645,8.4521,8.447,8.4474,8.4437,8.4418,8.4437,8.4474,8.4082,8.3337,8.3268,8.2883,8.2182,8.2104,8.2104,8.2104,8.2104,8.2104,8.2104,8.2104,8.1403,8.0078,7.9649,7.8831,7.7584,7.7155,7.6999,7.7011,7.6999,7.6962,7.6894,7.6879,7.6643,7.6167,7.4728,7.3673,7.3157,7.1788,7.0744,7.0364,7.0268,7.0064,6.9642,6.9534,6.9534,6.9502,6.9502,6.9464,6.9502,6.9502,6.9311,6.8814,6.8508,6.7744,6.6445,6.5757,6.5413,6.5413,6.5413,6.5413,6.5413,6.5413,6.5413,6.5413,6.5413,6.5405,6.5465,6.5523,6.5552,6.558,6.5608,6.5608,6.558,6.558,6.5523,6.5494,6.5405,6.5001,6.3894,6.2947,6.204,6.0836,6.0167,6.0076,5.9982,5.9923,5.9791,5.9757,5.9723,5.9653,5.951,5.9365,5.9253,5.9139,5.9022,5.8784,5.8577,5.8275,5.796,8.7407,8.7407,8.7407,8.7407,8.7407,8.7407,8.7407,8.7407,8.7407,8.7407,8.7401,8.7393,8.7369,8.7302,8.732,8.6701,8.5506,8.5424,8.5377,8.5326,8.529,8.529,8.529,8.5308,8.476,8.3687,8.3088,8.2624,8.2143,8.2104,8.2104,8.2104,8.2104,8.2104,8.2065,8.1831,8.0935,7.9727,7.9259,7.8402,7.7155,7.6999,7.6999,7.6999,7.6999,7.6975,7.6894,7.6894,7.6676,7.609,7.4731,7.3601,7.2809,7.1647,7.0843,7.0758,7.0729,7.0678,7.0522,7.049,7.0451,7.0451,7.0419,7.0419,7.0419,7.0419,7.0113,6.9693,6.9273,6.8585,6.7362,6.633,6.5719,6.549,6.5413,6.5413,6.5413,6.5413,6.5413,6.5413,6.5413,6.5405,6.5435,6.5465,6.5465,6.5523,6.5523,6.5523,6.5494,6.5465,6.5405,6.5375,6.5321,6.4877,6.3969,6.3061,6.2223,6.1095,6.0083,5.9982,5.9885,5.9824,5.9723,5.9688,5.9618,5.9474,5.9328,5.9177,5.9061,5.8905,5.8702,5.8535,5.8275,5.8006,5.769,8.7407,8.7407,8.7407,8.7407,8.7407,8.7407,8.7407,8.7407,8.7407,8.7407,8.7407,8.7401,8.7377,8.7312,8.7292,8.7192,8.7014,8.6894,8.6903,8.6856,8.6894,8.6878,8.6839,8.68,8.5977,8.4412,8.2896,8.2143,8.2104,8.2104,8.2104,8.2104,8.2104,8.2026,8.2026,8.1286,8.0428,7.9493,7.8753,7.7935,7.7116,7.6999,7.6999,7.6999,7.6999,7.6962,7.6894,7.6894,7.6443,7.5507,7.4558,7.3098,7.1617,7.1094,7.0948,7.0825,7.0796,7.0776,7.0685,7.0654,7.0585,7.0554,7.0451,7.0419,7.0419,7.0419,7.0381,7.019,6.9616,6.8776,6.7935,6.7049,6.6246,6.5566,6.5413,6.5413,6.5413,6.5413,6.5413,6.5413,6.5413,6.5413,6.5413,6.5444,6.5444,6.5413,6.5375,6.5413,6.5352,6.5321,6.5296,6.5232,6.5123,6.4785,6.3954,6.309,6.2222,6.1348,6.0411,5.9853,5.9753,5.9653,5.9583,5.9512,5.9402,5.9253,5.9063,5.8942,5.8821,5.8656,5.8486,5.8231,5.796,5.7679,5.7328,8.7407,8.7407,8.7407,8.7407,8.7407,8.7407,8.7407,8.7407,8.7407,8.7407,8.7401,8.7393,8.7369,8.7302,8.732,8.7247,8.7209,8.7195,8.7206,8.7176,8.7144,8.7089,8.7089,8.7089,8.621,8.4543,8.2844,8.2039,8.2104,8.2104,8.2104,8.2104,8.2104,8.1753,8.1247,8.0896,8.0156,7.8792,7.8441,7.7896,7.7077,7.6999,7.6999,7.6999,7.6999,7.6975,7.6908,7.6894,7.6404,7.541,7.4538,7.3219,7.1634,7.1108,7.1014,7.0909,7.0843,7.0805,7.071,7.0699,7.0678,7.0647,7.0585,7.0554,7.0522,7.0451,7.0419,7.0342,6.9655,6.8852,6.7973,6.7171,6.633,6.549,6.5413,6.5413,6.5413,6.5413,6.5413,6.5413,6.5413,6.5413,6.5413,6.5413,6.5383,6.5352,6.5321,6.529,6.5264,6.5232,6.5161,6.5095,6.4951,6.4655,6.3751,6.2813,6.1911,6.108,6.0251,5.9685,5.9581,5.9438,5.9365,5.9253,5.91,5.8982,5.8821,5.8656,5.8529,5.84,5.8179,5.795,5.7631,5.7351,5.6978,8.7407,8.7407,8.7407,8.7407,8.7407,8.7407,8.7401,8.7393,8.7393,8.7393,8.7386,8.7369,8.7351,8.7331,8.7309,8.7247,8.7209,8.7209,8.7195,8.7167,8.7152,8.7137,8.6981,8.6436,8.5556,8.4168,8.2688,8.2039,8.2104,8.2104,8.2104,8.2104,8.2104,8.1675,8.0818,8.0428,7.961,7.8441,7.7973,7.7545,7.7116,7.6999,7.6999,7.6999,7.6999,7.6962,7.6908,7.6621,7.5953,7.4921,7.3855,7.2579,7.1451,7.1231,7.1108,7.1017,7.0979,7.094,7.0837,7.0832,7.0787,7.0758,7.0737,7.0647,7.0647,7.0547,7.0439,6.998,6.9559,6.8794,6.7692,6.7049,6.6361,6.549,6.5413,6.5413,6.5413,6.5413,6.5413,6.5413,6.5413,6.5413,6.5413,6.5413,6.5383,6.5321,6.5328,6.5226,6.5161,6.5133,6.5027,6.4886,6.4743,6.4254,6.3463,6.256,6.162,6.0792,5.9964,5.9588,5.9401,5.9215,5.9137,5.8865,5.8743,5.8656,5.8449,5.8275,5.8142,5.7997,5.7857,5.7571,5.7289,5.6984,5.6616,8.7407,8.7407,8.7407,8.7401,8.7401,8.7401,8.7393,8.7377,8.7377,8.7369,8.7312,8.7302,8.7331,8.7309,8.7298,8.7234,8.7209,8.7209,8.7209,8.717,8.7078,8.7,8.6845,8.5481,8.4312,8.3468,8.2533,8.2104,8.2104,8.2104,8.2104,8.2104,8.2065,8.1597,8.0701,7.9883,7.9142,7.8129,7.7428,7.7038,7.6999,7.6999,7.6999,7.6999,7.6999,7.6962,7.683,7.6023,7.5098,7.4062,7.2647,7.1723,7.1455,7.1334,7.1269,7.1207,7.1144,7.113,7.1106,7.1056,7.0979,7.0925,7.0843,7.0825,7.0729,7.0699,7.0363,6.9634,6.9298,6.8578,6.7285,6.6681,6.623,6.5597,6.5375,6.5413,6.5413,6.5413,6.5413,6.5413,6.5413,6.5413,6.5413,6.5413,6.5383,6.5328,6.5296,6.5194,6.4989,6.4886,6.4853,6.4632,6.4407,6.3577,6.2747,6.1881,6.09,5.9996,5.936,5.9211,5.9024,5.8902,5.8781,5.8614,5.8363,5.8231,5.8097,5.796,5.7774,5.7583,5.7388,5.7138,5.6897,5.6599,5.592,8.7401,8.7386,8.7386,8.7377,8.7321,8.7321,8.7321,8.7312,8.7312,8.7341,8.7292,8.732,8.7309,8.7298,8.7234,8.7222,8.7209,8.7209,8.7209,8.7092,8.6546,8.6351,8.5962,8.4598,8.3624,8.3234,8.2494,8.2104,8.2104,8.2104,8.2104,8.2104,8.2065,8.1325,8.0039,7.961,7.8714,7.7545,7.7155,7.6999,7.6999,7.6999,7.6999,7.6999,7.6999,7.6923,7.6738,7.5393,7.4195,7.3268,7.2219,7.1603,7.1532,7.1511,7.1397,7.1369,7.1324,7.1291,7.1236,7.1186,7.113,7.113,7.103,7.0952,7.0925,7.0815,7.0364,6.9568,6.8935,6.8062,6.6998,6.6308,6.582,6.5571,6.5435,6.5413,6.5413,6.5413,6.5413,6.5413,6.5413,6.5413,6.5413,6.5413,6.5352,6.5296,6.5232,6.5128,6.4886,6.4779,6.4707,6.4256,6.3798,6.2891,6.1983,6.1039,6.0133,5.9144,5.873,5.8651,5.8535,5.8529,5.84,5.8268,5.8051,5.7867,5.7774,5.7631,5.7388,5.7188,5.7036,5.6829,5.6349,5.6026,5.5114,8.7386,8.736,8.736,8.7312,8.7302,8.7302,8.7292,8.732,8.732,8.7281,8.7259,8.7247,8.7234,8.7234,8.7222,8.7209,8.7209,8.7209,8.7209,8.6975,8.6001,8.5299,8.4715,8.3741,8.3234,8.2805,8.2338,8.2143,8.2104,8.2104,8.2104,8.2104,8.2104,8.1169,7.9649,7.9454,7.8675,7.7311,7.6999,7.6999,7.6999,7.6999,7.6999,7.6999,7.696,7.6729,7.5765,7.4405,7.3424,7.2841,7.2103,7.1581,7.1603,7.1581,7.1508,7.1475,7.1475,7.1417,7.1397,7.1337,7.133,7.1269,7.1178,7.113,7.0965,7.0709,7.004,6.9194,6.8333,6.746,6.6573,6.5866,6.559,6.5503,6.5444,6.5413,6.5413,6.5413,6.5413,6.5413,6.5413,6.5413,6.5413,6.5413,6.5321,6.5226,6.5199,6.5027,6.4815,6.4707,6.4521,6.414,6.3375,6.2421,6.147,6.0524,5.9529,5.8578,5.8142,5.8097,5.8097,5.8051,5.796,5.7904,5.7679,5.7486,5.7388,5.7188,5.6984,5.6776,5.6653,5.6456,5.6059,5.5269,5.4323,8.736,8.7302,8.7302,8.7292,8.7292,8.7292,8.727,8.7298,8.7298,8.7247,8.7222,8.7209,8.7209,8.7209,8.7209,8.7209,8.7209,8.7209,8.6936,8.639,8.5299,8.4208,8.3429,8.3273,8.2805,8.2299,8.2104,8.2104,8.2104,8.2104,8.2104,8.2104,8.2104,8.113,7.9844,7.9493,7.8597,7.7311,7.6999,7.6999,7.6999,7.6999,7.6999,7.6999,7.6715,7.595,7.4714,7.3511,7.288,7.2724,7.1986,7.1636,7.1598,7.1598,7.1598,7.1581,7.1525,7.1503,7.1503,7.1493,7.1475,7.1435,7.1334,7.1291,7.1131,7.0521,6.9702,6.8814,6.785,6.6984,6.6128,6.5678,6.5542,6.5503,6.5482,6.5413,6.5413,6.5413,6.5413,6.5413,6.5413,6.5413,6.5413,6.5413,6.5352,6.5296,6.5232,6.5061,6.4815,6.467,6.4482,6.4209,6.3215,6.2023,6.1025,6.0026,5.9025,5.8097,5.7715,5.7583,5.7631,5.7583,5.7534,5.7437,5.7289,5.7138,5.6969,5.676,5.66,5.6328,5.6217,5.6049,5.5738,5.4627,5.3647,8.7292,8.7309,8.7309,8.7259,8.7234,8.7234,8.7222,8.7222,8.7222,8.7222,8.7209,8.7209,8.7209,8.7209,8.7209,8.7209,8.717,8.7092,8.6585,8.5143,8.4208,8.3234,8.2533,8.2455,8.2299,8.2104,8.2104,8.2104,8.2104,8.2104,8.2104,8.2104,8.1909,8.1208,7.9766,7.9376,7.8675,7.7311,7.6999,7.6999,7.6999,7.6999,7.696,7.6882,7.6274,7.5379,7.4403,7.3464,7.264,7.2041,7.1714,7.1598,7.1598,7.1598,7.1598,7.1598,7.1598,7.1559,7.1542,7.1586,7.1571,7.1532,7.1475,7.1455,7.1378,7.0522,6.9649,6.8798,6.7922,6.6923,6.6112,6.582,6.569,6.559,6.5512,6.5452,6.5413,6.5413,6.5413,6.5413,6.5413,6.5413,6.5413,6.5375,6.5383,6.5328,6.5232,6.5095,6.4924,6.4708,6.4444,6.4206,6.2757,6.1565,6.0774,5.9605,5.8396,5.768,5.7361,5.7087,5.7138,5.7138,5.7138,5.7036,5.6984,5.6812,5.66,5.6492,5.6273,5.5993,5.5706,5.559,5.5133,5.3952,5.3077,8.727,8.7234,8.7234,8.7222,8.717,8.7209,8.7209,8.7209,8.7209,8.7209,8.7209,8.7209,8.7209,8.7209,8.7209,8.7209,8.7092,8.6741,8.5962,8.4754,8.3819,8.2961,8.226,8.2104,8.2104,8.2104,8.2104,8.2104,8.2104,8.2104,8.2104,8.2026,8.1714,8.0779,7.9571,7.9142,7.8285,7.7272,7.6999,7.6999,7.6999,7.6999,7.6727,7.6325,7.5521,7.4639,7.3703,7.2842,7.219,7.173,7.1598,7.1598,7.1598,7.1598,7.1598,7.1598,7.1598,7.1598,7.1581,7.162,7.1586,7.1603,7.155,7.1299,7.0893,7.0079,6.9169,6.8297,6.7425,6.6587,6.6067,6.587,6.5743,6.5635,6.5541,6.5452,6.5413,6.5413,6.5413,6.5413,6.5413,6.5405,6.5405,6.5435,6.5405,6.5352,6.5352,6.5226,6.4924,6.4745,6.4444,6.3869,6.2305,6.1106,6.037,5.926,5.7751,5.7174,5.6917,5.6707,5.66,5.6653,5.6707,5.6653,5.6564,5.6402,5.6217,5.6106,5.5936,5.5613,5.5319,5.5139,5.4574,5.3428,5.2658,8.7234,8.7209,8.7209,8.7209,8.7209,8.7209,8.7209,8.7209,8.7209,8.7209,8.7209,8.7209,8.7209,8.7209,8.7209,8.717,8.6741,8.5884,8.491,8.4325,8.3468,8.2727,8.2182,8.2104,8.2104,8.2104,8.2104,8.2104,8.2104,8.2104,8.2104,8.1948,8.1247,8.0428,7.9532,7.8714,7.7935,7.7116,7.6999,7.6999,7.6999,7.696,7.661,7.5819,7.4976,7.408,7.3183,7.2337,7.1723,7.1598,7.1598,7.1598,7.1598,7.1598,7.1598,7.1598,7.1598,7.1598,7.1598,7.1598,7.1598,7.1598,7.1603,7.1159,7.0404,6.961,6.8721,6.7793,6.698,6.6281,6.6036,6.5866,6.5718,6.5624,6.5571,6.5482,6.5413,6.5413,6.5413,6.5413,6.5405,6.5435,6.5465,6.5494,6.5465,6.5435,6.5405,6.5352,6.5061,6.4741,6.4483,6.3686,6.2201,6.0263,5.9365,5.8614,5.718,5.6724,5.6546,5.6328,5.6197,5.6162,5.6217,5.6273,5.6217,5.5993,5.5764,5.5648,5.5413,5.5139,5.4826,5.4482,5.3839,5.2894,5.2158,8.7209,8.7209,8.7209,8.7209,8.7209,8.7209,8.7209,8.7209,8.7209,8.7209,8.7209,8.7209,8.7209,8.717,8.7209,8.6858,8.6001,8.4832,8.3935,8.3585,8.2883,8.2221,8.2143,8.2104,8.2104,8.2104,8.2104,8.2104,8.2104,8.2104,8.2026,8.187,8.113,8.0273,7.9415,7.8714,7.7779,7.7116,7.6999,7.6999,7.6999,7.6832,7.6442,7.5521,7.4652,7.3808,7.2974,7.2166,7.1684,7.1598,7.1598,7.1598,7.1598,7.1598,7.1598,7.1598,7.1598,7.1598,7.1598,7.1598,7.1598,7.1598,7.1581,7.1154,7.0338,6.9506,6.858,6.7635,6.6767,6.6144,6.5974,6.5851,6.573,6.5624,6.5532,6.5452,6.5413,6.5413,6.5413,6.5444,6.5435,6.5494,6.5523,6.5618,6.559,6.5552,6.5523,6.5474,6.529,6.4909,6.4512,6.3465,6.2173,6.0078,5.819,5.7536,5.6653,5.6347,5.6106,5.5879,5.5706,5.5648,5.5648,5.5555,5.5648,5.5648,5.5413,5.5174,5.493,5.4648,5.4264,5.384,5.3028,5.2153,5.1116,8.7209,8.7209,8.7209,8.7209,8.7209,8.7209,8.7209,8.7209,8.7209,8.7209,8.7209,8.7209,8.7209,8.7092,8.6702,8.6118,8.5104,8.4052,8.3429,8.3195,8.2533,8.2104,8.2104,8.2104,8.2104,8.2104,8.2104,8.2104,8.2104,8.2104,8.187,8.1286,8.0545,7.9727,7.887,7.8012,7.7467,7.7038,7.6999,7.6999,7.6909,7.6624,7.582,7.5002,7.4133,7.3236,7.2453,7.2011,7.1684,7.1614,7.1598,7.1598,7.1598,7.1598,7.1598,7.1598,7.1598,7.1598,7.1598,7.1598,7.1598,7.1598,7.1581,7.0904,6.9972,6.9123,6.8312,6.7231,6.669,6.6123,6.6029,6.5874,6.5755,6.5624,6.5541,6.5482,6.5413,6.5413,6.5444,6.5444,6.5465,6.5523,6.5674,6.5674,6.5701,6.5674,6.5674,6.5561,6.5444,6.4991,6.4495,6.29,6.1528,5.9604,5.7728,5.6937,5.6328,5.5993,5.5613,5.5413,5.5174,5.5018,5.4834,5.471,5.4869,5.4957,5.4834,5.4523,5.4367,5.411,5.3649,5.3145,5.2302,5.1396,5.0359,8.7195,8.7195,8.7209,8.7209,8.7209,8.7209,8.7209,8.7209,8.7209,8.7209,8.717,8.7014,8.6897,8.6663,8.5923,8.5066,8.4325,8.3468,8.3078,8.2922,8.2455,8.2104,8.2104,8.2104,8.2104,8.2104,8.2104,8.2104,8.2104,8.2104,8.1597,8.0896,7.9961,7.9104,7.8324,7.7584,7.7116,7.6999,7.6999,7.6999,7.6793,7.6093,7.5196,7.4366,7.3483,7.2624,7.1879,7.1723,7.1669,7.1614,7.1598,7.1598,7.1598,7.1598,7.1598,7.1598,7.1598,7.1598,7.1598,7.1581,7.1581,7.162,7.1374,7.0425,6.9321,6.8452,6.7658,6.6495,6.6123,6.6058,6.5919,6.5827,6.5705,6.5597,6.5503,6.5452,6.5413,6.5413,6.5444,6.5435,6.5494,6.5552,6.5674,6.5793,6.5781,6.582,6.5755,6.5674,6.5456,6.4925,6.4073,6.2297,6.0646,5.8887,5.7456,5.6653,5.607,5.5613,5.5199,5.4834,5.4586,5.4333,5.4141,5.3881,5.3946,5.4042,5.3946,5.3881,5.3717,5.345,5.3008,5.2296,5.1327,5.0523,4.9653,8.7191,8.7191,8.7195,8.7209,8.7209,8.7209,8.7209,8.7209,8.7209,8.7209,8.7053,8.6468,8.6196,8.5728,8.4481,8.378,8.3312,8.2805,8.2416,8.2377,8.2182,8.2104,8.2104,8.2104,8.2104,8.2104,8.2104,8.2104,8.1948,8.1948,8.1558,8.0701,7.9805,7.9065,7.809,7.7389,7.7038,7.6999,7.6999,7.696,7.6754,7.6002,7.5118,7.4247,7.3363,7.2516,7.173,7.1614,7.1614,7.1598,7.1598,7.1598,7.1598,7.1598,7.1598,7.1598,7.1598,7.1598,7.1581,7.1603,7.1568,7.1413,7.095,6.9943,6.8762,6.7444,6.6548,6.6278,6.599,6.5895,6.5807,6.5628,6.5563,6.5503,6.5444,6.5413,6.5383,6.5352,6.5383,6.5474,6.5435,6.559,6.5701,6.582,6.5897,6.5897,6.5833,6.569,6.514,6.436,6.3327,6.1504,5.9955,5.826,5.7129,5.6347,5.5694,5.5199,5.4648,5.4205,5.3946,5.3683,5.3247,5.3111,5.3111,5.3111,5.3043,5.2974,5.3041,5.2764,5.2378,5.1442,5.0278,4.9538,4.8931,8.7072,8.7121,8.7137,8.7152,8.7152,8.7152,8.7152,8.7152,8.7206,8.6909,8.648,8.6182,8.5494,8.452,8.3624,8.3156,8.265,8.226,8.2104,8.2104,8.2104,8.2104,8.2104,8.2104,8.2104,8.2104,8.2026,8.1714,8.1558,8.1286,8.0935,8.0078,7.9259,7.8363,7.774,7.7233,7.7038,7.6999,7.696,7.6715,7.6144,7.5326,7.4481,7.3596,7.2695,7.2096,7.173,7.1598,7.1598,7.1598,7.1598,7.1581,7.1603,7.1607,7.1607,7.1547,7.1493,7.1532,7.155,7.1532,7.1513,7.1281,7.0583,6.9477,6.8116,6.683,6.5951,6.5943,6.5846,6.5731,6.5666,6.5525,6.5493,6.5427,6.5321,6.5321,6.529,6.529,6.529,6.5383,6.5405,6.5427,6.5437,6.5482,6.5536,6.5628,6.5486,6.5186,6.4191,6.2921,6.184,6.0516,5.9102,5.7715,5.6793,5.5978,5.5249,5.4676,5.4011,5.355,5.3281,5.2939,5.2487,5.2203,5.2131,5.2098,5.2026,5.2131,5.2203,5.202,5.1729,5.0732,4.97,4.9102,4.8361,8.6982,8.7037,8.7072,8.7089,8.7089,8.7089,8.7089,8.7089,8.716,8.6709,8.5945,8.5428,8.4429,8.3351,8.3,8.2689,8.2143,8.2104,8.2104,8.2104,8.2104,8.2104,8.2104,8.2104,8.2104,8.2065,8.1714,8.1403,8.0896,8.035,7.9766,7.9181,7.8714,7.7896,7.7272,7.6999,7.6999,7.6948,7.6676,7.6235,7.5573,7.4559,7.3752,7.2944,7.2213,7.1598,7.1598,7.1598,7.1598,7.1598,7.1598,7.1581,7.1607,7.1552,7.1513,7.1455,7.1376,7.1373,7.1373,7.1373,7.1394,7.1025,7.0165,6.8838,6.7509,6.6396,6.5782,6.5769,6.569,6.5597,6.5559,6.5427,6.5388,6.5283,6.5237,6.5204,6.5166,6.5095,6.5095,6.5128,6.5112,6.4985,6.5001,6.5082,6.5207,6.5329,6.5148,6.4719,6.3352,6.1713,6.0642,5.951,5.84,5.7216,5.6403,5.5601,5.4887,5.4136,5.3382,5.287,5.2487,5.2059,5.1549,5.1327,5.1102,5.0843,5.0735,5.107,5.1327,5.1102,5.0855,5.008,4.9245,4.8627,4.7712,8.692,8.692,8.7037,8.7089,8.7089,8.7089,8.7089,8.7072,8.705,8.6505,8.5432,8.4256,8.313,8.2442,8.2325,8.2247,8.2104,8.2104,8.2104,8.2104,8.2104,8.2104,8.2104,8.2104,8.2026,8.187,8.1442,8.1013,8.0428,7.9298,7.8753,7.8324,7.8129,7.7701,7.7272,7.6999,7.687,7.6663,7.6235,7.5703,7.5001,7.4087,7.3123,7.2773,7.2135,7.1598,7.1598,7.1598,7.1598,7.1598,7.1598,7.1547,7.1552,7.1468,7.1402,7.1308,7.1247,7.1193,7.1144,7.1154,7.1186,7.0714,6.9692,6.8232,6.7179,6.6189,6.5712,6.5608,6.5523,6.5465,6.5388,6.5282,6.5238,6.5166,6.5072,6.4964,6.4926,6.4888,6.4888,6.4924,6.4731,6.4385,6.4002,6.3911,6.41,6.4259,6.3719,6.3213,6.2122,6.0679,5.9729,5.8644,5.7765,5.6757,5.5928,5.5154,5.4293,5.3549,5.2767,5.2131,5.1623,5.1102,5.0461,5.0151,4.9915,4.963,4.947,4.9757,5.0073,5.0182,4.9914,4.9409,4.8604,4.777,4.6862,8.6785,8.6899,8.6961,8.7021,8.704,8.704,8.704,8.6941,8.6493,8.5516,8.4248,8.3058,8.2333,8.2114,8.2036,8.2036,8.2036,8.2036,8.2051,8.2065,8.2039,8.2052,8.2052,8.1987,8.1831,8.1364,8.0857,8.0078,7.9142,7.8468,7.7973,7.7701,7.7572,7.735,7.7038,7.6882,7.6624,7.6132,7.569,7.5196,7.3946,7.3511,7.2741,7.208,7.1925,7.1598,7.1598,7.1598,7.1581,7.1603,7.1581,7.1511,7.1435,7.1356,7.1246,7.1169,7.1081,7.0979,7.0937,7.094,7.0825,6.999,6.8998,6.7917,6.7055,6.6116,6.5638,6.5503,6.5413,6.5314,6.5258,6.5144,6.5009,6.4999,6.4896,6.4747,6.4634,6.4521,6.4219,6.403,6.3766,6.3462,6.3009,6.2557,6.2838,6.3036,6.2378,6.1681,6.0642,5.9692,5.8695,5.7847,5.6948,5.6075,5.5238,5.4482,5.3681,5.2872,5.2059,5.1294,5.0615,4.9994,4.9439,4.9147,4.8821,4.849,4.8377,4.8543,4.8821,4.9228,4.9247,4.9028,4.8105,4.7092,4.6222,8.6687,8.6809,8.6877,8.6941,8.6982,8.702,8.6826,8.6515,8.6049,8.4803,8.322,8.2403,8.1975,8.1991,8.1991,8.1991,8.1991,8.1991,8.2007,8.2022,8.1998,8.2012,8.1987,8.1728,8.1286,8.0754,8.0039,7.9221,7.8442,7.8014,7.7547,7.7157,7.6975,7.6975,7.696,7.6637,7.6235,7.5729,7.4884,7.4413,7.3084,7.2679,7.2391,7.1714,7.1636,7.1598,7.1598,7.1581,7.1603,7.1568,7.155,7.1436,7.133,7.1231,7.1082,7.0991,7.0898,7.0815,7.0787,7.0777,7.0574,7.0067,6.8858,6.7995,6.7131,6.6154,6.5482,6.5383,6.5258,6.5166,6.5103,6.4909,6.4772,6.4709,6.4556,6.4399,6.4096,6.3946,6.3491,6.3072,6.2701,6.2216,6.1384,6.0895,6.1016,6.1168,6.0717,6.0074,5.9376,5.8534,5.7752,5.6964,5.615,5.5355,5.4544,5.3613,5.2597,5.1743,5.0995,5.0274,4.9599,4.8872,4.8324,4.7904,4.7593,4.7336,4.7219,4.7276,4.7819,4.8438,4.8429,4.8337,4.7835,4.6862,4.6027,8.661,8.6636,8.6832,8.692,8.6982,8.702,8.6554,8.5894,8.5544,8.4611,8.3092,8.2237,8.1943,8.1975,8.1975,8.1998,8.1975,8.2014,8.1975,8.1991,8.1991,8.1991,8.1656,8.1267,8.0698,8.0294,7.936,7.8479,7.7998,7.7467,7.7025,7.6869,7.6805,7.6741,7.687,7.6079,7.5612,7.5298,7.3883,7.327,7.2702,7.2103,7.1753,7.1636,7.1598,7.1598,7.1581,7.1603,7.1568,7.1532,7.1396,7.1334,7.1224,7.1056,7.092,7.0909,7.0796,7.0678,7.0616,7.0678,7.0448,7.008,6.8786,6.7914,6.747,6.6421,6.529,6.5226,6.5095,6.4924,6.4813,6.4626,6.4483,6.4366,6.42,6.3841,6.3574,6.3233,6.2737,6.1788,6.1261,6.0778,5.9826,5.9183,5.919,5.9128,5.8837,5.8437,5.796,5.7364,5.6632,5.5913,5.5168,5.4281,5.3381,5.2494,5.1525,5.0659,4.9884,4.9085,4.8346,4.7704,4.7133,4.6756,4.6491,4.6195,4.6016,4.5808,4.6432,4.7046,4.7593,4.7528,4.7099,4.6615,4.5815,8.6375,8.661,8.6687,8.6809,8.692,8.6961,8.6477,8.5583,8.4495,8.3388,8.2455,8.195,8.1929,8.1947,8.1947,8.1947,8.1947,8.1947,8.1947,8.1943,8.1865,8.1509,8.1158,8.0707,8.0046,7.9112,7.8178,7.7711,7.7283,7.6971,7.6933,7.6855,7.6178,7.6052,7.5832,7.5209,7.452,7.3907,7.3207,7.2726,7.2119,7.1753,7.1598,7.1598,7.1598,7.1581,7.1603,7.1607,7.1513,7.1435,7.1291,7.1224,7.1081,7.0892,7.0844,7.0737,7.0616,7.0585,7.033,7.0069,6.9649,6.9234,6.8623,6.7598,6.6924,6.5944,6.5313,6.5061,6.4924,6.4781,6.4558,6.4369,6.4218,6.4046,6.3786,6.323,6.2835,6.2464,6.1892,6.06,5.9771,5.9134,5.8275,5.7728,5.7704,5.7447,5.718,5.7143,5.6789,5.6259,5.5552,5.4809,5.3999,5.3146,5.2213,5.1122,5.0179,4.9264,4.8481,4.7843,4.7073,4.6403,4.5958,4.5475,4.5201,4.4954,4.4926,4.4926,4.511,4.5566,4.6106,4.6638,4.6518,4.6102,4.5658,8.6223,8.6404,8.6556,8.6494,8.6382,8.6454,8.5874,8.469,8.3291,8.2359,8.197,8.1931,8.1892,8.1892,8.1892,8.1892,8.1892,8.1892,8.1892,8.1869,8.1558,8.1148,8.0698,8.0014,7.9104,7.817,7.7665,7.7276,7.6926,7.6848,7.6615,7.6109,7.5253,7.467,7.4398,7.3985,7.3635,7.3114,7.2672,7.219,7.1808,7.1598,7.1598,7.1598,7.1581,7.1603,7.1568,7.1513,7.1455,7.1313,7.1201,7.1106,7.0964,7.0796,7.0716,7.0654,7.0522,7.0304,6.9851,6.9485,6.8913,6.8106,6.7583,6.7088,6.6407,6.5622,6.5179,6.4924,6.4781,6.4596,6.4328,6.4103,6.3825,6.3668,6.3086,6.2509,6.1813,6.1482,6.0577,5.9237,5.8373,5.7637,5.6989,5.651,5.6166,5.5872,5.5574,5.5517,5.5424,5.4929,5.4253,5.3445,5.2566,5.1572,5.0606,4.9631,4.8697,4.7782,4.7043,4.6373,4.575,4.5052,4.462,4.4275,4.4087,4.3926,4.3926,4.3926,4.4021,4.4275,4.4712,4.5173,4.5627,4.5518,4.5051,8.6094,8.6126,8.6394,8.6041,8.5436,8.5452,8.4591,8.3136,8.2281,8.1931,8.1892,8.1892,8.1892,8.1892,8.1892,8.1892,8.1892,8.1892,8.1776,8.1582,8.1095,8.0668,7.989,7.8958,7.8276,7.7753,7.7287,7.6954,7.6687,7.651,7.6121,7.5189,7.3984,7.344,7.3146,7.2967,7.2866,7.2539,7.2174,7.1808,7.1598,7.1598,7.1598,7.1581,7.1603,7.1589,7.1552,7.1435,7.1313,7.1201,7.1056,7.0952,7.0815,7.0708,7.0616,7.0445,7.0276,6.9785,6.9141,6.8735,6.7977,6.7026,6.6497,6.6307,6.6045,6.5373,6.5002,6.4708,6.4558,6.4287,6.4046,6.3729,6.3363,6.2882,6.2267,6.1542,6.077,6.0012,5.9074,5.8058,5.7329,5.66,5.5943,5.5414,5.4809,5.4281,5.3866,5.3409,5.3343,5.3411,5.2704,5.1828,5.0908,4.9946,4.8942,4.8034,4.7186,4.6256,4.5541,4.484,4.4219,4.3748,4.3396,4.3136,4.297,4.2873,4.2873,4.2873,4.2873,4.3136,4.3396,4.3871,4.4434,4.462,4.4337,8.5923,8.6055,8.5536,8.5265,8.5087,8.4118,8.3419,8.2999,8.2262,8.1892,8.1892,8.1892,8.1873,8.1892,8.1892,8.1892,8.1892,8.1815,8.1426,8.1038,8.0514,7.9756,7.8979,7.8184,7.7619,7.7192,7.6842,7.663,7.6493,7.6221,7.4939,7.3657,7.3135,7.2591,7.2219,7.2002,7.208,7.2041,7.1714,7.1636,7.1598,7.1598,7.1581,7.1586,7.1568,7.1513,7.1415,7.1352,7.1224,7.103,7.0952,7.0843,7.0678,7.0578,7.0439,6.9551,6.9298,6.8925,6.8164,6.7341,6.6701,6.6135,6.5609,6.5305,6.5154,6.5006,6.4633,6.4444,6.4247,6.4,6.3712,6.3386,6.2771,6.2095,6.1427,6.0554,5.9743,5.8734,5.7782,5.6921,5.6217,5.5484,5.4818,5.4126,5.3545,5.284,5.2213,5.1645,5.132,5.1353,5.095,5.0147,4.9171,4.814,4.7242,4.6344,4.5541,4.4776,4.4031,4.3368,4.2916,4.2431,4.2164,4.1967,4.1769,4.1769,4.1769,4.1769,4.1769,4.1769,4.2039,4.2652,4.3136,4.33,4.3491,8.5817,8.5808,8.5137,8.4605,8.4,8.2832,8.2351,8.2344,8.1988,8.1834,8.1834,8.1796,8.1834,8.1834,8.1834,8.1796,8.1796,8.1349,8.096,8.0611,7.9893,7.9,7.8146,7.7603,7.7118,7.6788,7.6594,7.6458,7.5972,7.4924,7.3682,7.3061,7.2634,7.209,7.1741,7.1663,7.1624,7.1642,7.1581,7.1598,7.1581,7.1603,7.1607,7.155,7.1532,7.1376,7.1291,7.1224,7.1056,7.0898,7.0843,7.0699,7.0407,7.0151,6.9813,6.8998,6.8514,6.7911,6.7154,6.648,6.5916,6.5426,6.4898,6.4671,6.4558,6.4481,6.4326,6.4166,6.3958,6.3661,6.3334,6.2919,6.2132,6.1332,6.0429,5.9545,5.8554,5.7548,5.6624,5.5719,5.5009,5.4293,5.3613,5.2942,5.2142,5.1345,5.0486,4.9679,4.941,4.941,4.901,4.8306,4.7297,4.6315,4.5541,4.472,4.4003,4.3273,4.2598,4.194,4.1471,4.1172,4.087,4.0769,4.0668,4.0668,4.0668,4.0668,4.0694,4.0668,4.0769,4.1172,4.167,4.2039,4.2235,8.5628,8.5513,8.4882,8.3695,8.2459,8.1733,8.1451,8.14,8.1577,8.1669,8.1669,8.1691,8.1691,8.1691,8.1691,8.1536,8.1303,8.0838,8.0295,8.014,7.8861,7.7969,7.7542,7.7038,7.6746,7.6591,7.6281,7.5759,7.479,7.3859,7.3084,7.2696,7.1979,7.1533,7.1533,7.1494,7.1513,7.1532,7.155,7.1547,7.1547,7.1589,7.1591,7.1513,7.1435,7.1269,7.1201,7.1081,7.0898,7.0787,7.0699,7.0515,6.9966,6.9489,6.904,6.8288,6.7612,6.6861,6.6181,6.5615,6.5161,6.4744,6.4366,6.4166,6.4083,6.4166,6.4125,6.3792,6.3565,6.3252,6.2988,6.2549,6.1835,6.0752,5.9672,5.8488,5.722,5.6258,5.5348,5.4516,5.3844,5.3112,5.2213,5.1492,5.053,4.9663,4.8779,4.7867,4.7212,4.7212,4.6867,4.6168,4.5483,4.4599,4.376,4.2958,4.2377,4.1743,4.1045,4.0668,4.0262,3.9878,3.9569,3.9569,3.9544,3.9569,3.9569,3.9569,3.9672,3.9672,3.9775,3.9775,4.0185,4.0769,4.1172,8.5207,8.4595,8.3285,8.2188,8.1424,8.1184,8.1167,8.1319,8.1374,8.1453,8.1553,8.1553,8.1475,8.1437,8.1437,8.119,8.0593,8.0129,7.9493,7.8873,7.7866,7.7318,7.6908,7.6637,7.6444,7.6211,7.5708,7.4779,7.3618,7.2844,7.2263,7.176,7.1373,7.1355,7.1376,7.1376,7.1435,7.1455,7.1435,7.1475,7.1494,7.1494,7.1514,7.1415,7.1291,7.1178,7.1081,7.0952,7.0729,7.0578,7.0515,7.0009,6.9302,6.8856,6.8022,6.6964,6.6482,6.5767,6.5197,6.4815,6.451,6.4233,6.3915,6.3698,6.3654,6.3873,6.383,6.3474,6.3147,6.2904,6.2544,6.2099,6.1418,6.016,5.8938,5.7458,5.5974,5.5015,5.4042,5.3348,5.2664,5.1743,5.0855,4.9899,4.8942,4.7951,4.7013,4.596,4.4818,4.445,4.4422,4.3892,4.3571,4.2765,4.2012,4.1419,4.0818,4.0313,3.9699,3.9312,3.8921,3.8712,3.8396,3.8421,3.8421,3.8421,3.8526,3.8631,3.8631,3.8736,3.8841,3.8945,3.905,3.9544,4.0058,8.5054,8.4175,8.2679,8.1594,8.0965,8.0888,8.0991,8.1085,8.1085,8.1146,8.1196,8.1308,8.1207,8.0872,8.0821,8.0383,7.9661,7.9197,7.8553,7.7843,7.7225,7.6814,7.648,7.6301,7.6301,7.603,7.4934,7.3814,7.2592,7.2013,7.1549,7.124,7.1201,7.1224,7.1247,7.1269,7.1269,7.1291,7.1286,7.1308,7.1313,7.133,7.1308,7.124,7.113,7.0992,7.086,7.0787,7.057,7.0381,7.0281,6.9687,6.8899,6.822,6.7275,6.6219,6.5464,6.4853,6.4387,6.407,6.3953,6.3698,6.3565,6.3336,6.2917,6.311,6.311,6.2768,6.2705,6.2449,6.2023,6.1589,6.0485,5.9251,5.8202,5.7035,5.5346,5.3883,5.3009,5.2246,5.1451,5.0442,4.9473,4.8306,4.7242,4.602,4.4995,4.4135,4.3026,4.203,4.1834,4.1637,4.1267,4.0993,4.0516,3.9905,3.939,3.8792,3.8372,3.795,3.7655,3.7441,3.7227,3.7227,3.7227,3.7358,3.7465,3.7548,3.7785,3.7785,3.7974,3.808,3.821,3.8421,3.8945,8.4785,8.3792,8.2301,8.1377,8.0835,8.0792,8.0792,8.0792,8.0792,8.0716,8.063,8.0885,8.0521,8.0097,7.9741,7.9191,7.8679,7.8139,7.7599,7.7059,7.6531,7.6272,7.6195,7.6118,7.5848,7.5154,7.4037,7.3035,7.1994,7.1531,7.1185,7.1094,7.1056,7.1056,7.1056,7.1056,7.1081,7.1106,7.1081,7.1081,7.1094,7.1108,7.1133,7.1069,7.0952,7.0843,7.0699,7.0578,7.0419,7.0133,6.9842,6.9055,6.8224,6.7354,6.6409,6.5426,6.4732,6.4252,6.3922,6.3803,6.3548,6.3279,6.3147,6.2904,6.2464,6.2308,6.2308,6.2149,6.2078,6.1878,6.1472,6.1013,5.9817,5.852,5.7491,5.6215,5.4431,5.287,5.2026,5.1187,5.0133,4.9103,4.792,4.6723,4.5483,4.4256,4.315,4.2279,4.1392,4.0464,3.9854,3.9521,3.9134,3.8847,3.8792,3.8477,3.795,3.7501,3.7096,3.6665,3.6254,3.6122,3.6013,3.6036,3.6145,3.6277,3.6495,3.658,3.6688,3.6904,3.7227,3.7441,3.7548,3.7785,3.8104,8.3639,8.2187,8.1193,8.0695,8.0614,8.065,8.0723,8.0792,8.0792,8.0413,7.9842,7.9757,7.9665,7.9479,7.8859,7.8231,7.7553,7.71,7.6639,7.6109,7.6024,7.5887,7.581,7.5686,7.4896,7.3974,7.2967,7.1977,7.1458,7.1007,7.0787,7.0825,7.0825,7.0815,7.0871,7.0871,7.0898,7.0925,7.0898,7.0898,7.0898,7.0937,7.0964,7.0937,7.0871,7.0699,7.0547,7.0413,7.0286,6.9921,6.9246,6.8376,6.7465,6.6517,6.5497,6.4735,6.4065,6.3771,6.3548,6.3353,6.3088,6.2855,6.2705,6.2412,6.2041,6.1768,6.16,6.1221,6.1198,6.1198,6.0891,6.0749,5.9834,5.7989,5.6667,5.4771,5.2924,5.1835,5.0811,4.9773,4.8697,4.7528,4.6315,4.5058,4.3826,4.2544,4.1465,4.0591,3.9777,3.8871,3.7926,3.7501,3.718,3.7203,3.7311,3.7096,3.6688,3.6231,3.5904,3.5488,3.5157,3.4914,3.4803,3.5046,3.5179,3.5312,3.54,3.5598,3.5927,3.6145,3.6603,3.6928,3.7059,3.7416,3.7797]},{"header":{"parameterUnit":"m.s-1","parameterCategory":1,"la1":31.0,"la2":29.5877,"lo1":-88.7671,"lo2":-86.6584,"dx":0.0162,"dy":0.0185,"nx":115,"ny":88,"refTime":"2022-12-15T18:00:00:Z","depth":0,"parameterNumber":3,"parameterNumberName":"V-component_of_WINDS"},"data":[0.0,0.0,0.0,0.0,0.0,0.0,0.0,0.0,0.0,0.0,0.0,0.0,0.0,0.0,0.0,0.0,0.0,0.0,0.0,0.0,0.0,0.0,0.0,0.0,0.0,0.0,0.0,0.0,0.0,0.0,0.0,0.0,0.0,0.0,0.0,0.0,0.0,0.0,0.0,0.0,0.0,0.0,0.0,0.0,0.0,0.0,0.0,0.0,0.0,0.0,0.0,0.0,0.0,0.0,0.0,0.0,0.0,0.0,0.0,0.0,0.0,0.0,0.0,0.0,0.0,0.0,0.0,0.0,0.0,0.0,0.0,0.0,0.0,0.0,0.0,0.0,0.0,0.0,0.0,0.0,0.0,0.0,0.0,0.0,0.0,0.0,0.0,0.0,0.0,0.0,0.0,0.0,0.0,0.0,0.0,0.0,0.0,0.0,0.0,0.0,0.0,0.0,0.0,0.0,0.0,0.0,0.0,0.0,0.0,0.0,0.0,0.0,0.0,0.0,0.0,0.0,0.0,0.0,0.0,0.0,0.0,0.0,0.0,0.0,0.0,0.0,0.0,0.0,0.0,0.0,0.0,0.0,0.0,0.0,0.0,0.0,0.0,0.0,0.0,0.0,0.0,0.0,0.0,0.0,0.0,0.0,0.0,0.0,0.0,0.0,0.0,0.0,0.0,0.0,0.0,0.0,0.0,0.0,0.0,0.0,0.0,0.0,0.0,0.0,0.0,0.0,0.0,0.0,0.0,0.0,0.0,0.0,0.0,0.0,0.0,0.0,0.0,0.0,0.0,0.0,0.0,0.0,0.0,0.0,0.0,0.0,0.0,0.0,0.0,0.0,0.0,0.0,0.0,0.0,0.0,0.0,0.0,0.0,0.0,0.0,0.0,0.0,0.0,0.0,0.0,0.0,0.0,0.0,0.0,0.0,0.0,0.0,0.0,0.0,0.0,0.0,0.0,0.0,0.0,0.0,0.0,0.0,0.0,0.0,0.0,0.0,0.0,0.0,0.0,0.0,0.0,0.0,0.0,0.0,0.0,0.0,0.0,0.0,0.0,0.0,0.0,0.0,0.0,0.0,0.0,0.0,0.0,0.0,0.0,0.0,0.0,0.0,0.0,0.0,0.0,0.0,0.0,0.0,0.0,0.0,0.0,0.0,0.0,0.0,0.0,0.0,0.0,0.0,0.0,0.0,0.0,0.0,0.0,0.0,0.0,0.0,0.0,0.0,0.0,0.0,0.0,0.0,0.0,0.0,0.0,0.0,0.0,0.0,0.0,0.0,0.0,0.0,0.0,0.0,0.0,0.0,0.0,0.0,0.0,0.0,0.0,0.0,0.0,0.0,0.0,0.0,0.0,0.0,0.0,0.0,0.0,0.0,0.0,0.0,0.0,0.0,0.0,0.0,0.0,0.0,0.0,0.0,0.0,0.0,0.0,0.0,0.0,0.0,0.0,0.0,0.0,0.0,0.0,0.0,0.0,0.0,0.0,0.0,0.0,0.0,0.0,0.0,0.0,0.0,0.0,0.0,0.0,0.0,0.0,0.0,0.0,0.0,0.0,0.0,0.0,0.0,0.0,0.0,0.0,0.0,0.0,0.0,0.0,0.0,0.0,0.0,0.0,0.0,0.0,0.0,0.0,0.0,0.0,0.0,0.0,0.0,0.0,0.0,0.0,0.0,0.0,0.0,0.0,0.0,0.0,0.0,0.0,0.0,0.0,0.0,0.0,0.0,0.0,0.0,0.0,0.0,0.0,0.0,0.0,0.0,0.0,0.0,0.0,0.0,0.0,0.0,0.0,0.0,0.0,0.0,0.0,0.0,0.0,0.0,0.0,0.0,0.0,0.0,0.0,0.0,0.0,0.0,0.0,0.0,0.0,0.0,0.0,0.0,0.0,0.0,0.0,0.0,0.0,0.0,0.0,0.0,0.0,0.0,0.0,0.0,0.0,0.0,0.0,0.0,0.0,0.0,0.0,0.0,0.0,0.0,0.0,0.0,0.0,0.0,0.0,0.0,0.0,0.0,0.0,0.0,0.0,0.0,0.0,0.0,0.0,0.0,0.0,0.0,0.0,0.0,0.0,0.0,0.0,0.0,0.0,0.0,0.0,0.0,0.0,0.0,0.0,0.0,0.0,0.0,0.0,0.0,0.0,0.0,0.0,0.0,0.0,0.0,0.0,0.0,0.0,0.0,0.0,0.0,0.0,0.0,0.0,0.0,0.0,0.0,0.0,0.0,0.0,0.0,0.0,0.0,0.0,0.0,0.0,0.0,0.0,0.0,0.0,0.0,0.0,0.0,0.0,0.0,0.0,0.0,0.0,0.0,0.0,0.0,0.0,0.0,0.0,0.0,0.0,0.0,0.0,0.0,0.0,0.0,0.0,0.0,0.0,0.0,0.0,0.0,0.0,0.0,0.0,0.0,0.0,0.0,0.0,0.0,0.0,0.0,0.0,0.0,0.0,0.0,0.0,0.0,0.0,0.0,0.0,0.0,0.0,0.0,0.0,0.0,0.0,0.0,0.0,0.0,0.0,0.0,0.0,0.0,0.0,0.0,0.0,0.0,0.0,0.0,0.0,0.0,0.0,0.0,0.0,0.0,0.0,0.0,0.0,0.0,0.0,0.0,0.0,0.0,0.0,0.0,0.0,0.0,0.0,0.0,0.0,0.0,0.0,0.0,0.0,0.0,0.0,0.0,0.0,0.0,0.0,0.0,0.0,0.0,0.0,0.0,0.0,0.0,0.0,0.0,0.0,0.0,0.0,0.0,0.0,0.0,0.0,0.0,0.0,0.0,0.0,0.0,0.0,0.0,0.0,0.0,0.0,0.0,0.0,0.0,0.0,0.0,0.0,0.0,0.0,0.0,0.0,0.0,0.0,0.0,0.0,0.0,0.0,0.0,0.0,0.0,0.0,0.0,0.0,0.0,0.0,0.0,0.0,0.0,0.0,0.0,0.0,0.0,0.0,0.0,0.0,0.0,0.0,0.0,0.0,0.0,0.0,0.0,0.0,0.0,0.0,0.0,0.0,0.0,0.0,0.0,0.0,0.0,0.0,0.0,0.0,0.0,0.0,0.0,0.0,0.0,0.0,0.0,0.0,0.0,0.0,0.0,0.0,0.0,0.0,0.0,0.0,0.0,0.0,0.0,0.0,0.0,0.0,0.0,0.0,0.0,0.0,0.0,0.0,0.0,0.0,0.0,0.0,0.0,0.0,0.0,0.0,0.0,0.0,0.0,0.0,0.0,0.0,0.0,0.0,0.0,0.0,0.0,0.0,0.0,0.0,0.0,0.0,0.0,0.0,0.0,0.0,0.0,0.0,0.0,0.0,0.0,0.0,0.0,0.0,0.0,0.0,0.0,0.0,0.0,0.0,0.0,0.0,0.0,0.0,0.0,0.0,0.0,0.0,0.0,0.0,0.0,0.0,0.0,0.0,0.0,0.0,0.0,0.0,0.0,0.0,0.0,0.0,0.0,0.0,0.0,0.0,0.0,0.0,0.0,0.0,0.0,0.0,0.0,0.0,0.0,0.0,0.0,0.0,0.0,0.0,0.0,0.0,0.0,0.0,0.0,0.0,0.0,0.0,0.0,0.0,0.0,0.0,0.0,0.0,0.0,0.0,0.0,0.0,0.0,0.0,0.0,0.0,0.0,0.0,0.0,0.0,0.0,0.0,0.0,0.0,0.0,0.0,0.0,0.0,0.0,0.0,0.0,0.0,0.0,0.0,0.0,0.0,0.0,0.0,0.0,0.0,0.0,0.0,0.0,0.0,0.0,0.0,0.0,0.0,0.0,0.0,0.0,0.0,0.0,0.0,0.0,0.0,0.0,0.0,0.0,0.0,0.0,0.0,0.0,0.0,0.0,0.0,0.0,0.0,0.0,0.0,0.0,0.0,0.0,0.0,0.0,0.0,0.0,0.0,0.0,0.0,0.0,0.0,0.0,0.0,0.0,0.0,0.0,0.0,0.0,0.0,0.0,0.0,0.0,0.0,0.0,0.0,0.0,0.0,0.0,0.0,0.0,0.0,0.0,0.0,0.0,0.0,0.0,0.0,0.0,0.0,0.0,0.0,0.0,0.0,0.0,0.0,0.0,0.0,0.0,0.0,0.0,0.0,0.0,0.0,0.0,0.0,0.0,0.0,0.0,0.0,0.0,0.0,0.0,0.0,0.0,0.0,0.0,0.0,0.0,0.0,0.0,0.0,0.0,0.0,0.0,0.0,0.0,0.0,0.0,0.0,0.0,0.0,0.0,-0.0897,0.0,0.0,0.0,-0.0056,0.0,0.0,0.0,0.0,0.0,0.0,0.0,0.0,0.0,0.0,0.0,0.0,0.0,0.0,0.0,0.0,0.0,0.0,0.0,0.0,0.0,0.0,0.0,0.0,0.0,0.0,0.0,0.0,0.0,0.0,0.0,0.0,0.0,0.0,0.0,0.0,0.0,0.0,0.0,0.0,0.0,0.0,0.0,0.0,0.0,0.0,0.0,0.0,0.0,0.0,0.0,0.0,0.0,0.0,0.0,0.0,0.0,0.0,0.0,0.0,0.0,0.0,0.0,0.0,0.0,0.0,0.0,0.0,0.0,0.0,0.0,0.0,0.0,0.0,0.0,0.0,0.0,0.0,0.0,0.0,0.0,0.0,0.0,0.0,0.0,0.0,0.0,0.0,0.0,0.0,0.0,0.0,0.0,0.0,0.0,0.0,0.0,0.0,0.0,0.0,0.0,0.0,0.0,0.0,0.0,0.0,0.0,0.0,0.0,0.0,-0.028,0.0224,0.0561,0.0729,0.0673,0.0,0.0,0.0,0.0,0.0,0.0,0.0,0.0,0.0,0.0,0.0,0.0,0.0,0.0,0.0,0.0,0.0,0.0,0.0,0.0,0.0,0.0,0.0,0.0,0.0,0.0,0.0,0.0,0.0,0.0,0.0,0.0,0.0,0.0,0.0,0.0,0.0,0.0,0.0,0.0,0.0,0.0,0.0,0.0,0.0,0.0,0.0,0.0,0.0,0.0,0.0,0.0,0.0,0.0,0.0,0.0,0.0,0.0,0.0,0.0,0.0,0.0,0.0,0.0,0.0,0.0,0.0,0.0,0.0,0.0,0.0,0.0,0.0,0.0,0.0,0.0,0.0,0.0,0.0,0.0,0.0,0.0,0.0,0.0,0.0,0.0,0.0,0.0,0.0,0.0,0.0,0.0,0.0,0.0,0.0,0.0,0.0,0.0,0.0,0.0,0.0,0.0,0.0,0.0,0.0,0.0,0.0,0.0,0.0,0.0,0.0,0.0,0.1065,0.1347,0.1289,0.0,0.0,0.0,0.0,0.0,0.0,0.0,0.0,0.0,0.0,0.0,0.0,0.0,0.0,0.0,0.0,0.0,0.0,0.0,0.0,0.0,0.0,0.0,0.0,0.0,0.0,0.0,0.0,0.0,0.0,0.0,0.0,0.0,0.0,0.0,0.0,0.0,0.0,0.0,0.0,0.0,0.0,0.0,0.0,0.0,0.0,0.0,0.0,0.0,0.0,0.0,0.0,0.0,0.0,0.0,0.0,0.0,0.0,0.0,0.0,0.0,0.0,0.0,0.0,0.0,0.0,0.0,0.0,0.0,0.0,0.0,0.0,0.0,0.0,0.0,0.0,0.0,0.0,0.0,0.0,0.0,0.0,0.0,0.0,0.0,0.0,0.0,0.0,0.0,0.0,0.0,0.0,0.0,0.0,0.0,0.0,0.0,0.0,0.0,0.0,0.0,0.0,0.0,0.0,0.0,0.0,0.0,0.0,0.0,0.0,0.0617,0.1121,0.1347,0.0,0.1289,0.0,0.0,0.0,0.0,0.0,0.0,0.0,0.0,0.0,0.0,0.0,0.0,0.0,0.0,0.0,0.0,0.0,0.0,0.0,0.0,0.0,0.0,0.0,0.0,0.0,0.0,0.0,0.0,0.0,0.0,0.0,0.0,0.0,0.0,0.0,0.0,0.0,0.0,0.0,0.0,0.0,0.0,0.0,0.0,0.0,0.0,0.0,0.0,0.0,0.0,0.0,0.0,0.0,0.0,0.0,0.0,0.0,0.0,0.0,0.0,0.0,0.0,0.0,0.0,0.0,0.0,0.0,0.0,0.0,0.0,0.0,0.0,0.0,0.0,0.0,0.0,0.0,0.0,0.0,0.0,0.0,0.0,0.0,0.0,0.0,0.0,0.0,0.0,0.0,0.0,0.0,0.0,0.0,0.0,0.0,0.0,0.0,0.0,0.0,0.0,0.0,0.0,0.0,0.0,0.0,0.0,0.0,0.0,0.0,0.0,0.1009,0.1347,0.1572,0.1684,0.0,0.0,0.0,0.0,0.0,0.0,0.0,0.0,0.0,0.0,0.0,0.0,0.0,0.0,0.0,0.0,0.0,0.0,0.0,0.0,0.0,0.0,0.0,0.0,0.0,0.0,0.0,0.0,0.0,0.0,0.0,0.0,0.0,0.0,0.0,0.0,0.0,0.0,0.0,0.0,0.0,0.0,0.0,0.0,0.0,0.0,0.0,0.0,0.0,0.0,0.0,0.0,0.0,0.0,0.0,0.0,0.0,0.0,0.0,0.0,0.0,0.0,0.0,0.0,0.0,0.0,0.0,0.0,0.0,0.0,0.0,0.0,0.0,0.0,0.0,0.0,0.0,0.0,0.0,0.0,0.0,0.0,0.0,0.0,0.0,0.0,0.0,0.0,0.0,0.0,0.0,0.0,0.0,0.0,0.0,0.0,0.0,0.0,0.0,0.0,0.0,0.0,0.0,0.0,0.0,0.0,0.0,0.0,0.0,0.0,0.0968,0.1422,0.165,0.1877,0.1925,0.1852,0.0,0.0,0.0,0.0,0.0,0.0,0.0,0.0,0.0,0.0,0.0,0.0,0.0,0.0,0.0,0.0,0.0,0.0,0.0,0.0,0.0,0.0,0.0,0.0,0.0,0.0,0.0,0.0,0.0,0.0,0.0,0.0,0.0,0.0,0.0,0.0,0.0,0.0,0.0,0.0,0.0,0.0,0.0,0.0,0.0,0.0,0.0,0.0,0.0,0.0,0.0,0.0,0.0,0.0,0.0,0.0,0.0,0.0,0.0,0.0,0.0,0.0,0.0,0.0,0.0,0.0,0.0,0.0,0.0,0.0,0.0,0.0,0.0,0.0,0.0,0.0,0.0,0.0,0.0,0.0,0.0,0.0,0.0,0.0,0.0,0.0,0.0,0.0,0.0,0.0,0.0,0.0,0.0,0.0,0.0,0.0,0.0,0.0,0.0,0.0,0.0,0.0,0.0,0.0,0.0,0.0,0.0,0.0,0.0939,0.1352,0.1763,0.2053,0.2287,0.2257,0.0,0.0,0.0,0.0,0.0,0.0,0.0,0.0,0.0,0.0,0.0,0.0,0.0,0.0,0.0,0.0,0.0,0.0,0.0,0.0,0.0,0.0,0.0,0.0,0.0,0.0,0.0,0.0,0.0,0.0,0.0,0.0,0.0,0.0,0.0,0.0,0.0,0.0,0.0,0.0,0.0,0.0,0.0,0.0,0.0,0.0,0.0,0.0,0.0,0.0,0.0,0.0,0.0,0.0,0.0,0.0,0.0,0.0,0.0,0.0,0.0,0.0,0.0,0.0,0.0,0.0,0.0,0.0,0.0,0.0,0.0,0.0,0.0,0.0,0.0,0.0,0.0,0.0,0.0,0.0,0.0,0.0,0.0,0.0,0.0,0.0,0.0,0.0,0.0,0.0,0.0,0.0,0.0,0.0,0.0,0.0,0.0,0.0,0.0,0.0,0.0,0.0,0.0,0.0,0.0,0.0,0.0,0.0,0.0,0.1297,0.1681,0.2001,0.2364,0.238,0.2401,0.0,0.0,0.0,0.0,0.0,0.0,0.0,0.0,0.0,0.0,0.0,0.0,0.0,0.0,0.0,0.0,0.0,0.0,0.0,0.0,0.0,0.0,0.0,0.0,0.0,0.0,0.0,0.0,0.0,0.0,0.0,0.0,0.0,0.0,0.0,0.0,0.0,0.0,0.0,0.0,0.0,0.0,0.0,0.0,0.0,0.0,0.0,0.0,0.0,0.0,0.0,0.0,0.0,0.0,0.0,0.0,0.0,0.0,0.0,0.0,0.0,0.0,0.0,0.0,0.0,0.0,0.0,0.0,0.0,0.0,0.0,0.0,0.0,0.0,0.0,0.0,0.0,0.0,0.0,0.0,0.0,0.0,0.0,0.0,0.0,0.0,0.0,0.0,0.0,0.0,0.0,0.0,0.0,0.0,0.0,0.0,0.0,0.0,0.0,0.0,0.0,0.0,0.0,0.0,0.0,0.0,0.0,0.0,0.0,0.154,0.1967,0.2305,0.2536,0.2613,0.2673,0.0,0.0,0.0,0.0,0.0,0.0,0.0,0.0,0.0,0.0,0.0,0.0,0.0,0.0,0.0,0.0,0.0,0.0,0.0,0.0,0.0,0.0,0.0,0.0,0.0,0.0,0.0,0.0,0.0,0.0,0.0,0.0,0.0,0.0,0.0,0.0,0.0,0.0,0.0,0.0,0.0,0.0,0.0,0.0,0.0,0.0,0.0,0.0,0.0,0.0,0.0,0.0,0.0,0.0,0.0,0.0,0.0,0.0,0.0,0.0,0.0,0.0,0.0,0.0,0.0,0.0,0.0,0.0,0.0,0.0,0.0,0.0,0.0,0.0,0.0,0.0,0.0,0.0,0.0,0.0,0.0,0.0,0.0,0.0,0.0,0.0,0.0,0.0,0.0,0.0,0.0,0.0,0.0,0.0,0.0,0.0,0.0,0.0,0.0,0.0,0.0,0.0,0.0,0.0,0.0,0.0,0.0,0.0,0.0928,0.1678,0.2279,0.2627,0.2626,0.2954,0.3035,0.0,0.0,0.0,0.0,0.0,0.0,0.0,0.0,0.0,0.0,0.0,0.0,0.0,0.0,0.0,0.0,0.0,0.0,0.0,0.0,0.0,0.0,0.0,0.0,0.0,0.0,0.0,0.0,0.0,0.0,0.0,0.0,0.0,0.0,0.0,0.0,0.0,0.0,0.0,0.0,0.0,0.0,0.0,0.0,0.0,0.0,0.0,0.0,0.0,0.0,0.0,0.0,0.0,0.0,0.0,0.0,0.0,0.0,0.0,0.0,0.0,0.0,0.0,0.0,0.0,0.0,0.0,0.0,0.0,0.0,0.0,0.0,0.0,0.0,0.0,0.0,0.0,0.0,0.0,0.0,0.0,0.0,0.0,0.0,0.0,0.0,0.0,0.0,0.0,0.0,0.0,0.0,0.0,0.0,0.0,0.0,0.0,0.0,0.0,0.0,0.0,0.0,0.0,0.0,0.0,0.0,0.0,0.0,0.0,0.2041,0.2578,0.2945,0.314,0.3244,0.3222,0.0,0.0,0.0,0.0,0.0,0.0,0.0,0.0,0.0,0.0,0.0,0.0,0.0,0.0,0.0,0.0,0.0,0.0,0.0,0.0,0.0,0.0,0.0,0.0,0.0,0.0,0.0,0.0,0.0,0.0,0.0,0.0,0.0,0.0,0.0,0.0,0.0,0.0,0.0,0.0,0.0,0.0,0.0,0.0,0.0,0.0,0.0,0.0,0.0,0.0,0.0,0.0,0.0,0.0,0.0,0.0,0.0,0.0,0.0,0.0,0.0,0.0,0.0,0.0,0.0,0.0,0.0,0.0,0.0,0.0,0.0,0.0,0.0,0.0,0.0,0.0,0.0,0.0,0.0,0.0,0.0,0.0,0.0,0.0,0.0,0.0,0.0,0.0,0.0,0.0,0.0,0.0,0.0,0.0,0.0,0.0,0.0,0.0,0.0,0.0,0.0,0.0,0.0,0.0,0.0,0.0,0.0,0.0,0.0,0.2339,0.2835,0.3263,0.35,0.3515,0.348,0.333,0.0,0.0,0.0,0.0,0.0,0.0,0.0,0.0,0.0,0.0,0.0,0.0,0.0,0.0,0.0,0.0,0.0,0.0,0.0,0.0,0.0,0.0,0.0,0.0,0.0,0.0,0.0,0.0,0.0,0.0,0.0,0.0,0.0,0.0,0.0,0.0,0.0,0.0,0.0,0.0,0.0,0.0,0.0,0.0,0.0,0.0,0.0,0.0,0.0,0.0,0.0,0.0,0.0,0.0,0.0,0.0,0.0,0.0,0.0,0.0,0.0,0.0,0.0,0.0,0.0,0.0,0.0,0.0,0.0,0.0,0.0,0.0,0.0,0.0,0.0,0.0,0.0,0.0,0.0,0.0,0.0,0.0,0.0,0.0,0.0,0.0,0.0,0.0,0.0,0.0,0.0,0.0,0.0,0.0,0.0,0.0,0.0,0.0,0.0,0.0,0.0,0.0,0.0,0.0,0.0,0.0,0.0,0.0,0.2516,0.3049,0.3442,0.3594,0.3754,0.3806,0.0,0.0,0.0,0.0,0.0,0.0,0.0,0.0,0.0,0.0,0.0,0.0,0.0,0.0,0.0,0.0,0.0,0.0,0.0,0.0,0.0,0.0,0.0,0.0,0.0,0.0,0.0,0.0,0.0,0.0,0.0,0.0,0.0,0.0,0.0,0.0,0.0,0.0,0.0,0.0,0.0,0.0,0.0,0.0,0.0,0.0,0.0,0.0,0.0,0.0,0.0,0.0,0.0,0.0,0.0,0.0,0.0,0.0,0.0,0.0,0.0,0.0,0.0,0.0,0.0,0.0,0.0,0.0,0.0,0.0,0.0,0.0,0.0,0.0,0.0,0.0,0.0,0.0,0.0,0.0,0.0,0.0,0.0,0.0,0.0,0.0,0.0,0.0,0.0,0.0,0.0,0.0,0.0,0.0,0.0,0.0,0.0,0.0,0.0,0.0,0.0,0.0,0.0,0.0,0.0,0.0,0.0,0.0,0.0,0.2106,0.2932,0.3522,0.3853,0.4108,0.4112,0.0,0.0,0.0,0.0,0.0,0.0,0.0,0.0,0.0,0.0,0.0,0.0,0.0,0.0,0.0,0.0,0.0,0.0,0.0,0.0,0.0,0.0,0.0,0.0,0.0,0.0,0.0,0.0,0.0,0.0,0.0,0.0,0.0,0.0,0.0,0.0,0.0,0.0,0.0,0.0,0.0,0.0,0.0,0.0,0.0,0.0,0.0,0.0,0.0,0.0,0.0,0.0,0.0,0.0,0.0,0.0,0.0,0.0,0.0,0.0,0.0,0.0,0.0,0.0,0.0,0.0,0.0,0.0,0.0,0.0,0.0,0.0,0.0,0.0,0.0,0.0,0.0,0.0,0.0,0.0,0.0,0.0,0.0,0.0,0.0,0.0,0.0,0.0,0.0,0.0,0.0,0.0,0.0,0.0,0.0,0.0,0.0,0.0,0.0,0.0,0.0,0.0,0.0,0.0,0.0,0.0,0.0,0.0,0.1356,0.2304,0.3033,0.3603,0.3967,0.4328,0.4489,0.0,0.0,0.0,0.0,0.0,0.0,0.0,0.0,0.0,0.0,0.0,0.0,0.0,0.0,0.0,0.0,0.0,0.0,0.0,0.0,0.0,0.0,0.0,0.0,0.0,0.0,0.0,0.0,0.0,0.0,0.0,0.0,0.0,0.0,0.0,0.0,0.0,0.0,0.0,0.0,0.0,0.0,0.0,0.0,0.0,0.0,0.0,0.0,0.0,0.0,0.0,0.0,0.0,0.0,0.0,0.0,0.0,0.0,0.0,0.0,0.0,0.0,0.0,0.0,0.0,0.0,0.0,0.0,0.0,0.0,0.0,0.0,0.0,0.0,0.0,0.0,0.0,0.0,0.0,0.0,0.0,0.0,0.0,0.0,0.0,0.0,0.0,0.0,0.0,0.0,0.0,0.0,0.0,0.0,0.0,0.0,0.0,0.0,0.0,0.0,0.0,0.0,0.0,0.0,0.0,0.0,0.0,0.0,0.1534,0.2739,0.3194,0.3609,0.4051,0.4536,0.4784,0.0,0.0,0.0,0.0,0.0,0.0,0.0,0.0,0.0,0.0,0.0,0.0,0.0,0.0,0.0,0.0,0.0,0.0,0.0,0.0,0.0,0.0,0.0,0.0,0.0,0.0,0.0,0.0,0.0,0.0,0.0,0.0,0.0,0.0,0.0,0.0,0.0,0.0,0.0,0.0,0.0,0.0,0.0,0.0,0.0,0.0,0.0,0.0,0.0,0.0,0.0,0.0,0.0,0.0,0.0,0.0,0.0,0.0,0.0,0.0,0.0,0.0,0.0,0.0,0.0,0.0,0.0,0.0,0.0,0.0,0.0,0.0,0.0,0.0,0.0,0.0,0.0,0.0,0.0,0.0,0.0,0.0,0.0,0.0,0.0,0.0,0.0,0.0,0.0,0.0,0.0,0.0,0.0,0.0,0.0,0.0,0.0,0.0,0.0,0.0,0.0,0.0,0.0,0.0,0.0,0.0,0.0,0.0,0.1995,0.284,0.3276,0.3698,0.4211,0.4943,0.5162,0.0,0.0,0.0,0.0,0.0,0.0,0.0,0.0,0.0,0.0,0.0,0.0,0.0,0.0,0.0,0.0,0.0,0.0,0.0,0.0,0.0,0.0,0.0,0.0,0.0,0.0,0.0,0.0,0.0,0.0,0.0,0.0,0.0,0.0,0.0,0.0,0.0,0.0,0.0,0.0,0.0,0.0,0.0,0.0,0.0,0.0,0.0,0.0,0.5388,0.0,0.0,0.0,0.0,0.0,0.0,0.0,0.0,0.0,0.0,0.0,0.0,0.0,0.0,0.0,0.0,0.0,0.0,0.0,0.0,0.0,0.0,0.0,0.0,0.0,0.0,0.0,0.0,0.0,0.0,0.0,0.0,0.0,0.0,0.0,0.0,0.0,0.0,0.0,0.0,0.0,0.0,0.0,0.0,0.0,0.0,0.0,0.0,0.0,0.0,0.0,0.0,0.0,0.0,0.0,0.0,0.0,0.0,0.0,0.2402,0.2837,0.3437,0.399,0.4365,0.5312,0.5494,0.0,0.0,0.0,0.0,0.0,0.0,0.0,0.0,0.0,0.0,0.0,0.0,0.0,0.0,0.0,0.0,0.0,0.0,0.0,0.0,0.0,0.0,0.0,0.0,0.0,0.0,0.0,0.0,0.0,0.0,0.0,0.0,0.0,0.0,0.0,0.0,0.0,0.0,0.0,0.0,0.0,0.0,0.0,0.0,0.0,0.0,0.0,0.0,0.0,0.0,0.0,0.0,0.0,0.0,0.0,0.0,0.0,0.0,0.0,0.0,0.0,0.0,0.0,0.0,0.0,0.0,0.0,0.0,0.0,0.0,0.0,0.0,0.0,0.0,0.0,0.0,0.0,0.0,0.0,0.0,0.0,0.0,0.0,0.0,0.0,0.0,0.0,0.0,0.0,0.0,0.0,0.0,0.0,0.0,0.0,0.0,0.0,0.0,0.0,0.0,0.0,0.0,0.0,0.0,0.0,0.0,0.0,0.2382,0.2841,0.2713,0.3714,0.4406,0.4501,0.5528,0.5793,0.5293,0.0,0.0,0.0,0.0,0.0,0.0,0.0,0.0,0.0,0.0,0.0,0.0,0.0,0.0,0.0,0.0,0.0,0.0,0.0,0.0,0.0,0.0,0.0,0.0,0.0,0.0,0.0,0.0,0.0,0.0,0.0,0.0,0.0,0.0,0.0,0.0,0.0,0.0,0.3626,0.4034,0.0,0.0,0.0,0.0,0.0,0.0,0.0,0.0,0.7295,0.0,0.0,0.0,0.0,0.0,0.0,0.0,0.0,0.0,0.0,0.0,0.0,0.0,0.0,0.0,0.0,0.0,0.0,0.0,0.0,0.0,0.0,0.0,0.0,0.0,0.0,0.0,0.0,0.0,0.0,0.0,0.0,0.0,0.0,0.0,0.0,0.0,0.0,0.0,0.0,0.0,0.0,0.0,0.0,0.0,0.0,0.0,0.0,0.0,0.0,0.0,0.0,0.0,0.0,0.0,0.0,0.16,0.2258,0.2602,0.2801,0.3755,0.4432,0.4922,0.5743,0.6041,0.5897,0.0,0.0,0.0,0.0,0.0,0.0,0.0,0.0,0.0,0.0,0.0,0.0,0.0,0.0,0.0,0.0,0.0,0.0,0.0,0.0,0.0,0.0,0.0,0.0,0.0,0.0,0.0,0.0,0.0,0.0,0.0,0.0,0.0,0.0,0.0,0.0,0.0,0.0,0.0,0.4476,0.4809,0.0,0.0,0.0,0.0,0.0,0.0,0.0,0.0,0.8273,0.0,0.0,0.0,0.0,0.0,0.0,0.0,0.0,0.0,0.0,0.0,0.0,0.0,0.0,0.0,0.0,0.0,0.0,0.0,0.0,0.0,0.0,0.0,0.0,0.0,0.0,0.0,0.0,0.0,0.0,0.0,0.0,0.0,0.0,0.0,0.0,0.0,0.0,0.0,0.0,0.0,0.0,0.0,0.0,0.0,0.0,0.0,0.0,0.0,0.0,0.0,0.0,0.0,0.0,0.0,0.1659,0.2429,0.2898,0.3131,0.4102,0.4927,0.5483,0.6001,0.626,0.0,0.0,0.0,0.0,0.0,0.0,0.0,0.0,0.0,0.0,0.0,0.0,0.0,0.0,0.0,0.0,0.0,0.0,0.0,0.0,0.0,0.0,0.0,0.0,0.0,0.0,0.0,0.0,0.0,0.0,0.0,0.0,0.0,0.0,0.0,0.0,0.0,0.0,0.0,0.0,0.4694,0.5241,0.5231,0.0,0.0,0.0,0.0,0.0,0.0,0.8995,0.9248,0.0,0.0,0.0,0.0,0.0,0.0,0.0,0.0,0.0,0.0,0.0,0.0,0.0,0.0,0.0,0.0,0.0,0.0,0.0,0.0,0.0,0.0,0.0,0.0,0.0,0.0,0.0,0.0,0.0,0.0,0.0,0.0,0.0,0.0,0.0,0.0,0.0,0.0,0.0,0.0,0.0,0.0,0.0,0.0,0.0,0.0,0.0,0.0,0.0,0.0,0.0,0.0,0.0,0.0,0.0,0.1818,0.2715,0.3324,0.371,0.4599,0.5335,0.6039,0.6396,0.6604,0.0,0.0,0.0,0.0,0.0,0.0,0.0,0.0,0.0,0.0,0.0,0.0,0.0,0.0,0.0,0.0,0.0,0.0,0.0,0.0,0.0,0.0,0.0,0.0,0.0,0.0,0.0,0.0,0.0,0.0,0.0,0.0,0.0,0.0,0.0,0.0,0.0,0.0,0.0,0.0,0.0,0.5582,0.5662,0.6237,0.0,0.0,0.0,0.0,0.9157,0.9635,0.0,0.0,0.0,0.0,0.0,0.0,0.0,0.0,0.0,0.0,0.0,0.0,0.0,0.0,0.0,0.0,0.0,0.0,0.0,0.0,0.0,0.0,0.0,0.0,0.0,0.0,0.0,0.0,0.0,0.0,0.0,0.0,0.0,0.0,0.0,0.0,0.0,0.0,0.0,0.0,0.0,0.0,0.0,0.0,0.0,0.0,0.0,0.0,0.0,0.0,0.0,0.0,0.0,0.0,0.0,0.0,0.2179,0.2905,0.3534,0.4019,0.5097,0.5827,0.6285,0.713,0.7334,0.0,0.0,0.0,0.0,0.0,0.0,0.0,0.0,0.0,0.0,0.0,0.0,0.0,0.0,0.0,0.0,0.0,0.0,0.0,0.0,0.0,0.0,0.0,0.0,0.0,0.0,0.0,0.0,0.0,0.0,0.0,0.0,0.0,0.0,0.0,0.0,0.0,0.0,0.0,0.0,0.0,0.5823,0.6182,0.6753,0.731,0.0,0.0,0.9017,0.9442,0.9971,0.0,0.0,0.0,0.0,0.0,0.0,0.0,0.0,0.0,0.0,0.0,0.0,0.0,0.0,0.0,0.0,0.0,0.0,0.0,0.0,0.0,0.0,0.0,0.0,0.0,0.0,0.0,0.0,0.0,0.0,0.0,0.0,0.0,0.0,0.0,0.0,0.0,0.0,0.0,0.0,0.0,0.0,0.0,0.0,0.0,0.0,0.0,0.0,0.0,0.0,0.0,0.0,0.0,0.0,0.0,0.2183,0.2249,0.2973,0.3717,0.4461,0.5266,0.6018,0.6823,0.7526,0.7608,0.0,0.0,0.0,0.0,0.0,0.0,0.0,0.0,0.0,0.0,0.0,0.0,0.0,0.0,0.0,0.0,0.0,0.0,0.0,0.0,0.0,0.0,0.0,0.0,0.0,0.0,0.0,0.0,0.0,0.0,0.0,0.0,0.0,0.0,0.0,0.0,0.0,0.0,0.0,0.0,0.0,0.0,0.6511,0.7228,0.0,0.0,0.0,0.9259,0.9731,0.0,0.0,0.0,0.0,0.0,0.0,0.0,0.0,0.0,0.0,0.0,0.0,0.0,0.0,0.0,0.0,0.0,0.0,0.0,0.0,0.0,0.0,0.0,0.0,0.0,0.0,0.0,0.0,0.0,0.0,0.0,0.0,0.0,0.0,0.0,0.0,0.0,0.0,0.0,0.0,0.0,0.0,0.0,0.0,0.0,0.0,0.0,0.0,0.0,0.0,0.0,0.0,0.0,0.0,0.0,0.0,0.0,0.2543,0.3154,0.3902,0.4788,0.5461,0.6369,0.7245,0.7791,0.0,0.0,0.0,0.0,0.0,0.0,0.0,0.0,0.0,0.0,0.0,0.0,0.0,0.0,0.0,0.0,0.0,0.0,0.0,0.0,0.0,0.0,0.0,0.0,0.0,0.0,0.0,0.399,0.0,0.0,0.0,0.0,0.0,0.0,0.0,0.0,0.0,0.0,0.0,0.0,0.0,0.0,0.6465,0.6889,0.7627,0.8188,0.0,0.0,0.9592,0.9892,1.0265,1.0519,0.0,0.0,0.0,0.0,0.0,0.0,0.0,0.0,0.0,0.0,0.0,0.0,0.0,0.0,0.0,0.0,0.0,0.0,0.0,0.0,0.0,0.0,0.0,0.0,0.0,0.0,0.0,0.0,0.0,0.0,0.0,0.0,0.0,0.0,0.0,0.0,0.0,0.0,0.0,0.0,0.0,0.0,0.0,0.0,0.0,0.0,0.0,0.0,0.0,0.0,0.0,0.0,0.0,0.0,0.2812,0.3286,0.3571,0.409,0.5253,0.5992,0.666,0.7224,0.8425,0.8666,0.0,0.0,0.0,0.0,0.0,0.0,0.0,0.0,0.0,0.0,0.0,0.0,0.0,0.0,0.0,0.0,0.0,0.0,0.0,0.0,0.0,0.0,0.0,0.0,0.0,0.0,0.0,0.0,0.0,0.0,0.0,0.0,0.0,0.0,0.0,0.0,0.0,0.0,0.0,0.0,0.0,0.662,0.7321,0.7717,0.8236,0.0,0.9399,0.9813,0.9815,1.0293,1.0541,1.0229,0.0,0.0,0.0,0.0,0.0,0.0,0.0,0.0,0.0,0.0,0.0,0.0,0.0,0.0,0.0,0.0,0.0,0.0,0.0,0.0,0.0,0.0,0.0,0.0,0.0,0.0,0.0,0.0,0.0,0.0,0.0,0.0,0.0,0.0,0.0,0.0,0.0,0.0,0.0,0.0,0.0,0.0,0.0,0.0,0.0,0.0,0.0,0.0,0.0,0.0,0.0,0.0,0.0,0.3193,0.3343,0.375,0.4389,0.5263,0.6007,0.6677,0.7238,0.8503,0.8841,0.0,0.0,0.0,0.0,0.0,0.0,0.0,0.0,0.0,0.0,0.0,0.0,0.0,0.0,0.0,0.0,0.0,0.0,0.0,0.0,0.0,0.0,0.0,0.0,0.0,0.0,0.0,0.0,0.5569,0.5567,0.509,0.0,0.0,0.0,0.0,0.0,0.0,0.0,0.0,0.0,0.0,0.6789,0.7404,0.7911,0.0,0.0,0.9201,0.9566,0.977,1.004,1.0305,1.0245,1.015,0.0,0.0,0.0,0.0,0.0,0.0,0.0,0.0,0.0,0.0,0.0,0.0,0.0,0.0,0.0,0.0,0.0,0.0,0.0,0.0,0.0,0.0,0.0,0.0,0.0,0.0,0.0,0.0,0.0,0.0,0.0,0.0,0.0,0.0,0.0,0.0,0.0,0.0,0.0,0.0,0.0,0.0,0.0,0.0,0.0,0.0,0.0,0.0,0.0,0.0,0.0,0.0,0.3613,0.3542,0.396,0.4604,0.5335,0.5949,0.6623,0.746,0.8524,0.9052,0.0,0.0,0.0,0.0,0.0,0.0,0.0,0.0,0.0,0.0,0.0,0.0,0.0,0.0,0.0,0.0,0.0,0.0,0.0,0.0,0.0,0.0,0.0,0.0,0.0,0.0,0.0,0.0,0.5828,0.5663,0.5235,0.0,0.0,0.0,0.0,0.0,0.0,0.0,0.0,0.0,0.0,0.6833,0.7466,0.8109,0.8584,0.8762,0.9171,0.9553,0.9794,0.9977,1.0193,1.0339,0.0,0.0,0.0,0.0,0.0,0.0,0.0,0.0,0.0,0.0,0.0,0.0,0.0,0.0,0.0,0.0,0.0,0.0,0.0,0.0,0.0,0.0,0.0,0.0,0.0,0.0,0.0,0.4044,0.0,0.0,0.3612,0.0,0.0,0.0,0.0,0.0,0.0,0.0,0.0,0.0,0.0,0.0,0.0,0.0,0.0,0.0,0.0,0.0,0.0,0.0,0.0,0.0,0.0,0.3963,0.4027,0.4207,0.4735,0.5488,0.584,0.6668,0.7669,0.8499,0.9057,0.9044,0.0,0.0,0.0,0.0,0.0,0.0,0.0,0.0,0.0,0.0,0.0,0.0,0.0,0.0,0.0,0.0,0.0,0.0,0.0,0.0,0.0,0.0,0.0,0.0,0.0,0.0,0.641,0.6015,0.565,0.0,0.0,0.0,0.0,0.0,0.0,0.0,0.0,0.0,0.5575,0.6108,0.6827,0.763,0.8347,0.8698,0.8819,0.9496,0.9959,1.0001,1.0136,1.0233,0.0,0.0,0.0,0.0,0.0,0.0,0.0,0.0,0.0,0.0,0.0,0.0,0.0,0.0,0.0,0.0,0.0,0.0,0.0,0.0,0.0,0.0,0.0,0.0,0.0,0.0,0.0,0.5073,0.507,0.0,0.0,0.0,0.0,0.0,0.0,0.0,0.0,0.0,0.0,0.0,0.7818,0.7911,0.0,0.0,0.0,0.0,0.0,0.0,0.0,0.0,0.0,0.0,0.0,0.0,0.4033,0.4085,0.4234,0.4765,0.5566,0.5869,0.6705,0.7779,0.8553,0.9245,1.0009,0.0,0.0,0.0,0.0,0.0,0.0,0.0,0.0,0.0,0.0,0.0,0.0,0.0,0.0,0.0,0.0,0.0,0.0,0.0,0.0,0.0,0.0,0.0,0.0,0.0,0.6519,0.0,0.0,0.0,0.0,0.0,0.0,0.0,0.0,0.0,0.0,0.4342,0.4967,0.5588,0.616,0.6621,0.6955,0.7762,0.8426,0.0,0.0,0.0,0.0,0.0,0.0,0.0,0.0,0.0,0.0,0.0,0.0,0.0,0.0,0.9252,0.9134,0.9507,1.0042,1.0654,0.0,0.0,0.0,0.0,0.0,0.0,0.0,0.0,0.0,0.0,0.0,0.0,0.0,0.0,0.6471,0.6464,0.6358,0.0,0.0,0.0,0.0,0.0,0.0,0.0,0.0,0.8357,0.8584,0.8673,0.8717,0.8717,0.0,0.8166,0.7569,0.0,0.0,0.0,0.0,0.0,0.0,0.0,0.0,0.4542,0.431,0.4327,0.4716,0.5501,0.581,0.6512,0.7603,0.8731,0.9682,1.0789,1.0817,1.0794,0.0,0.0,0.0,0.0,0.0,0.0,0.0,0.0,0.0,0.0,0.0,0.0,0.0,0.0,0.0,0.0,0.0,0.0,0.0,0.0,0.0,0.0,0.0,0.6973,0.0,0.0,0.0,0.0,0.0,0.0,0.0,0.0,0.0,0.3889,0.4358,0.4845,0.5477,0.5921,0.635,0.6602,0.0,0.0,0.0,0.0,0.0,0.0,0.0,1.063,1.0571,1.0582,1.0451,1.0255,1.0297,1.0216,1.0076,0.0,0.0,1.0029,1.0397,1.0986,1.1792,1.2462,1.3144,1.3991,1.4688,1.528,0.0,0.0,0.0,0.0,0.0,0.0,0.0,0.0,0.7933,0.8082,0.0,0.7955,0.0,0.0,0.0,0.0,0.7399,0.81,0.0,0.0,0.9418,0.9612,0.9734,0.9875,0.9744,0.9252,0.9119,0.8865,0.8221,0.7081,0.0,0.0,0.0,0.0,0.0,0.0,0.5161,0.4849,0.4625,0.4721,0.5161,0.5653,0.6372,0.742,0.8796,1.0141,1.1394,1.1409,1.1512,1.1507,1.1869,0.0,0.0,0.0,0.0,0.0,0.0,0.0,0.0,0.0,0.0,0.0,0.0,0.0,0.0,0.0,0.0,0.0,0.0,0.0,0.0,0.7353,0.0,0.0,0.0,0.0,0.0,0.0,0.0,0.0,0.0,0.3936,0.3851,0.4093,0.4519,0.5262,0.0,0.0,0.0,0.0,0.8182,0.8557,0.943,1.0239,1.0701,1.0898,1.1083,1.1141,0.0,0.0,1.0339,1.0543,1.0786,1.0771,1.1021,1.1154,1.0878,1.131,1.1971,1.2981,1.3882,1.4903,1.5629,1.6224,1.6953,0.9449,0.0,0.0,0.0,0.0,0.8485,0.8534,0.8586,0.8848,0.8836,0.8747,0.872,0.0,0.0,0.0,0.0,0.0,0.0,0.9555,0.9862,1.0134,1.0201,1.0078,0.9987,0.9856,0.9559,0.9205,0.8944,0.8903,0.8309,0.7905,0.7814,0.0,0.0,0.0,0.0,0.5527,0.5051,0.4878,0.4825,0.536,0.5829,0.6666,0.8246,0.9355,1.0483,1.1322,1.1532,1.1947,1.2445,1.2293,0.0,0.0,0.0,0.0,0.0,0.0,0.0,0.0,0.0,0.0,0.0,0.0,0.0,0.0,0.0,0.0,0.0,0.0,0.0,0.7848,0.7902,0.7875,0.0,0.0,0.0,0.0,0.0,0.0,0.0,0.0,0.0,0.3841,0.403,0.4468,0.0,0.0,0.5726,0.585,0.6948,0.7922,0.8309,0.9243,0.0,1.0856,1.0974,1.113,1.131,1.1224,1.0972,1.0814,1.0992,1.1207,1.1203,1.1349,1.1634,1.1974,1.2245,1.2819,1.373,1.4666,1.5506,1.6299,1.7196,1.8072,1.0185,0.9739,0.9646,0.9632,0.9568,0.9729,0.9748,0.957,0.9786,0.9793,0.964,0.9851,0.9793,0.9632,0.9574,0.0,0.0,0.0,1.0439,1.0584,1.073,1.0665,1.0391,1.0254,0.9979,0.9423,0.9291,0.9015,0.8745,0.8597,0.8595,0.8443,0.0,0.7961,0.7455,0.6673,0.6027,0.5509,0.4999,0.492,0.5144,0.5902,0.7041,0.8654,0.9546,1.0455,1.1177,1.1747,1.2147,1.2561,1.2767,1.2726,0.0,0.0,0.0,0.0,0.0,0.0,0.0,0.0,0.0,0.0,0.0,0.6288,0.6871,0.0,0.0,0.0,0.7916,0.8174,0.8506,0.8452,0.0,0.0,0.0,0.0,0.0,0.0,0.0,0.4935,0.4735,0.4405,0.3963,0.41,0.4375,0.4851,0.5215,0.5556,0.5843,0.0,0.7657,0.8044,0.9136,1.0076,1.0649,1.1042,1.1303,1.1516,1.1411,1.1273,1.1102,1.1297,1.1552,1.1585,1.1854,1.2246,1.2881,1.3162,1.3626,1.4445,1.5401,1.6215,1.7105,1.7925,1.8842,1.0486,1.0468,1.0665,1.0692,1.0792,1.0792,1.0792,1.0806,1.0955,1.1009,1.1002,1.1016,1.1009,1.0995,1.0853,0.0,1.0607,1.1013,1.1294,1.145,1.1155,1.0932,1.0932,1.0498,0.9914,0.9184,0.9184,0.8754,0.8174,0.8464,0.8609,0.8609,0.8628,0.8381,0.7879,0.7132,0.6402,0.5972,0.5141,0.4867,0.4867,0.6067,0.7377,0.8765,0.9529,1.0197,1.1047,1.1709,1.2188,1.2226,1.311,1.3255,1.2468,0.0,0.0,0.0,0.0,0.0,0.0,0.0,0.0,0.0,0.0,0.0,0.0,0.0,0.0,0.8364,0.8635,0.0,0.8994,0.8994,0.0,0.0,0.0,0.8062,0.7998,0.713,0.6211,0.5728,0.0,0.0,0.4457,0.4352,0.4504,0.495,0.5136,0.5329,0.605,0.6792,0.751,0.7903,0.8932,0.9922,1.0183,1.0893,1.1531,1.1511,1.1524,1.1459,1.1313,1.1512,1.1842,1.2029,1.2391,1.2831,1.3403,1.3911,1.4585,1.5022,1.5982,1.6951,1.7616,1.8386,1.9099,1.0433,1.092,1.0934,1.0995,1.0979,1.1261,1.1402,1.1416,1.1558,1.1558,1.147,1.1579,1.1565,1.1457,1.1423,1.1484,1.1476,1.1653,1.161,1.1456,1.1347,1.0773,0.9876,0.9882,0.943,0.8681,0.8532,0.8537,0.8383,0.8383,0.8576,0.8648,0.8556,0.8489,0.8164,0.7219,0.6586,0.6278,0.5513,0.5207,0.5522,0.6196,0.7165,0.7977,0.9355,1.0197,1.0786,1.1434,1.2,1.2588,1.2885,1.2961,1.294,1.2833,0.0,0.0,0.0,0.0,0.0,0.0,0.0,0.0,0.0,0.7563,0.8384,0.0,0.9001,0.0,0.9456,0.9571,0.9605,0.951,0.0,0.0,0.9157,0.8831,0.84,0.7844,0.708,0.616,0.5835,0.5422,0.4971,0.4863,0.5035,0.5555,0.5408,0.5411,0.5881,0.6626,0.7351,0.8005,0.8465,0.9181,1.0168,1.0973,1.151,1.1792,1.1801,1.1695,1.1654,1.1877,1.2183,1.229,1.2606,1.3017,1.3451,1.3999,1.452,1.515,1.5974,1.6709,1.6932,1.794,1.8951,0.9667,1.0079,1.0392,1.0583,1.0678,1.1038,1.141,1.163,1.1702,1.1878,1.202,1.2094,1.2088,1.2013,1.2013,1.2054,1.2128,1.2052,1.1821,1.1747,1.1195,1.0606,0.9832,0.9361,0.8745,0.8119,0.7963,0.7804,0.7497,0.7497,0.7521,0.7727,0.7727,0.7566,0.7554,0.7056,0.6634,0.6117,0.5474,0.5299,0.575,0.6309,0.6984,0.7929,0.9174,1.0035,1.0649,1.1341,1.1949,1.217,1.2572,1.2648,1.2504,1.2294,1.1776,0.0,0.0,0.0,0.0,0.0,0.0,0.0,0.0,0.0,0.0,0.0,0.9578,0.9883,0.9978,1.0025,0.9901,0.9958,0.9781,0.9652,0.9573,0.9367,0.8781,0.8318,0.772,0.6799,0.6332,0.5998,0.5463,0.5347,0.5518,0.5777,0.5624,0.5624,0.6097,0.6689,0.7254,0.7789,0.8138,0.899,1.037,1.106,1.1526,1.2017,1.2077,1.1987,1.1906,1.2126,1.2431,1.249,1.2803,1.3131,1.3489,1.4015,1.4575,1.4917,1.5765,1.6483,1.693,1.7728,1.8531,0.8829,0.8982,0.947,0.9779,1.0217,1.0417,1.1048,1.1766,1.1766,1.1978,1.24,1.24,1.24,1.2407,1.2407,1.24,1.2414,1.2069,1.1969,1.1817,1.0816,1.0222,1.0061,0.8931,0.8122,0.7633,0.7309,0.6823,0.6503,0.6503,0.6506,0.6516,0.6516,0.6554,0.6453,0.6654,0.6301,0.5715,0.5384,0.5353,0.546,0.5918,0.6634,0.7727,0.8834,0.9717,1.036,1.1213,1.1706,1.1568,1.2185,1.2203,1.1749,1.1681,1.1287,0.0,1.0362,0.0,0.0,0.0,0.0,0.0,0.0,0.0,0.0,0.9727,1.0025,1.0317,1.0337,1.0337,1.0203,1.0317,1.0176,0.9908,0.991,0.9751,0.9354,0.8764,0.798,0.7454,0.6951,0.6571,0.5945,0.5816,0.5847,0.5931,0.5946,0.5969,0.6435,0.6719,0.7121,0.7393,0.8195,0.9335,1.0548,1.1177,1.1576,1.221,1.2296,1.2247,1.2093,1.2432,1.2627,1.2812,1.312,1.3352,1.3703,1.4162,1.453,1.4629,1.5332,1.6161,1.6985,1.7547,1.8169,0.8183,0.8791,0.8959,0.9202,0.9375,0.9455,1.0346,1.1555,1.1555,1.1727,1.1752,1.1752,1.1752,1.1752,1.1752,1.1752,1.1758,1.1783,1.1474,1.1154,1.0534,0.99,0.9249,0.828,0.7633,0.7147,0.6823,0.6499,0.6503,0.6503,0.653,0.6591,0.6591,0.6463,0.6196,0.0,0.0,0.0,0.514,0.4946,0.4272,0.4839,0.5551,0.641,0.7872,0.0,1.0046,1.0787,1.1348,1.1727,1.1309,0.0,0.0,0.0,0.0,0.0,0.0,0.0,0.0,0.0,0.0,0.0,0.9788,0.9754,0.9747,1.012,1.0439,1.0616,1.0636,1.0636,1.0636,1.0527,1.0453,1.0575,1.0324,1.0249,1.041,0.9354,0.8453,0.8103,0.7468,0.6988,0.6675,0.6427,0.6193,0.6273,0.6293,0.6435,0.6451,0.6585,0.6853,0.7526,0.8595,0.9782,1.0683,1.12,1.1743,1.2371,1.2385,1.243,1.2632,1.2867,1.3181,1.3251,1.3582,1.3761,1.3731,1.4052,1.4291,1.454,1.5007,1.5472,1.6194,1.702,1.7713,0.7439,0.7917,0.7917,0.8037,0.0,0.8463,0.9109,1.0388,1.0541,1.0986,1.154,1.1704,1.1867,1.1867,1.1867,1.1867,1.1867,1.154,1.1376,1.1213,1.023,0.9573,0.8912,0.7765,0.7106,0.6608,0.5949,0.5619,0.5622,0.5454,0.5319,0.5379,0.5379,0.5227,0.5084,0.4722,0.4374,0.4372,0.4516,0.4493,0.4301,0.4415,0.5155,0.649,0.7812,0.0,0.0,0.0,0.0,0.0,0.0,0.0,0.0,1.1263,0.0,1.0913,1.0431,1.0321,1.0308,1.0101,1.0032,1.0249,1.0405,1.0426,1.0276,1.0548,1.0778,1.0928,1.0934,1.1077,1.1205,1.1073,1.0975,1.069,1.0568,1.0616,1.063,1.0104,0.9317,0.8541,0.8149,0.7646,0.7044,0.6784,0.6664,0.6577,0.6455,0.6455,0.6455,0.6455,0.6853,0.766,0.8862,0.9927,1.0843,1.1322,1.1911,1.2556,1.2629,1.266,1.2953,1.319,1.3509,1.3706,1.3834,1.3967,1.3873,1.401,1.4291,1.454,1.498,1.5403,1.6014,1.651,1.7291,0.6463,0.6638,0.6638,0.6979,0.7483,0.7487,0.7995,0.8658,0.944,0.0,0.0,1.1467,1.1634,1.1634,1.164,1.1801,1.1807,1.1473,1.1137,1.1137,0.9963,0.9118,0.861,0.7271,0.6427,0.609,0.5245,0.4738,0.4736,0.4229,0.4079,0.4113,0.4115,0.4115,0.3942,0.3571,0.3551,0.3711,0.3703,0.4017,0.4314,0.4305,0.5079,0.6585,0.7752,0.8745,0.9561,1.041,1.0963,1.1121,1.1389,1.1516,1.1253,1.1476,1.1337,1.0826,1.0799,1.069,1.0453,1.0432,1.0487,1.0602,1.0839,1.0934,1.0806,1.0914,1.1036,1.1289,1.1303,1.1434,1.1855,1.1747,1.1518,1.1077,1.0974,1.0912,1.1066,1.0932,1.0257,0.932,0.8918,0.8381,0.7579,0.7314,0.7035,0.6774,0.6652,0.6635,0.6631,0.6749,0.7121,0.8056,0.9128,1.006,1.0982,1.1505,1.2048,1.2692,1.2824,1.2914,1.3181,1.3517,1.3696,1.3897,1.4098,1.4137,1.4062,1.4183,1.4289,1.4651,1.5155,1.5655,1.6,1.6342,1.7005,0.5179,0.5895,0.5892,0.6396,0.7044,0.7044,0.7181,0.7292,0.8977,0.9826,1.0012,1.0012,1.0012,1.0012,1.0012,1.0184,1.0709,1.0537,1.0537,1.0537,0.9845,0.9153,0.8297,0.7259,0.657,0.6055,0.5191,0.4846,0.4673,0.4325,0.4156,0.416,0.4162,0.3991,0.3644,0.3466,0.3275,0.2901,0.2874,0.3026,0.3526,0.466,0.5289,0.5429,0.6602,0.7748,0.8745,0.955,1.0492,1.1256,1.1451,1.1586,1.1552,1.1454,1.1283,1.1104,1.1097,1.1084,1.1036,1.1043,1.105,1.107,1.1104,1.1118,1.1104,1.1124,1.1283,1.1579,1.1593,1.171,1.1986,1.2116,1.2231,1.2376,1.1927,1.205,1.2756,1.192,1.1077,1.0665,0.9728,0.8894,0.8602,0.8188,0.7631,0.7368,0.7208,0.723,0.7195,0.7369,0.767,0.8456,0.9128,1.006,1.0982,1.1519,1.2041,1.27,1.2832,1.2955,1.3561,1.3813,1.4012,1.4363,1.4407,1.4449,1.4307,1.4251,1.4557,1.5042,1.534,1.5628,1.6135,1.6708,1.7322,0.4563,0.4926,0.5079,0.5233,0.5567,0.6071,0.6216,0.6366,0.7772,0.8419,0.8502,0.8848,0.9021,0.9366,0.9366,0.9544,1.0061,1.0061,1.0061,1.0061,0.9539,0.8852,0.7984,0.7292,0.6602,0.5908,0.5214,0.4867,0.4867,0.4346,0.4185,0.4207,0.4209,0.4034,0.4034,0.3836,0.3642,0.3109,0.2903,0.2878,0.3367,0.4691,0.533,0.5294,0.6377,0.744,0.815,0.9251,1.0218,1.0926,1.158,1.187,1.185,1.1647,1.1491,1.1416,1.1335,1.1253,1.1165,1.124,1.1427,1.1566,1.1643,1.1832,1.2107,1.1748,1.1881,1.2241,1.2248,1.2389,1.2662,1.2734,1.2967,1.3392,1.2881,1.2964,1.3409,1.3125,1.2283,1.1303,1.0612,0.992,0.9371,0.8815,0.8392,0.7975,0.7836,0.7697,0.7836,0.8173,0.8491,0.8968,0.9704,1.0591,1.1387,1.1776,1.2305,1.27,1.2832,1.3095,1.3744,1.3875,1.4101,1.4679,1.4714,1.46,1.4487,1.4509,1.4827,1.5192,1.5659,1.5972,1.6506,1.7096,1.7897,0.4074,0.4256,0.4222,0.4208,0.4387,0.5077,0.5421,0.5419,0.6308,0.6599,0.7027,0.7705,0.8217,0.8565,0.8743,0.9087,0.9435,0.9609,0.9609,0.9609,0.9261,0.8565,0.752,0.7171,0.6473,0.56,0.5078,0.4903,0.4903,0.4378,0.422,0.4252,0.4254,0.4256,0.4254,0.422,0.4024,0.3664,0.3109,0.2904,0.338,0.4549,0.5025,0.515,0.6288,0.7077,0.7661,0.894,0.9928,1.052,1.1396,1.2005,1.1958,1.1972,1.1837,1.1721,1.1572,1.1423,1.1427,1.1516,1.1726,1.215,1.2258,1.2474,1.2888,1.2499,1.2477,1.2873,1.2881,1.3031,1.3294,1.335,1.342,1.3842,1.3727,1.3661,1.38,1.3938,1.3375,1.1963,1.1538,1.0988,1.029,0.973,0.9316,0.89,0.8604,0.8464,0.8744,0.9154,0.9498,0.9817,1.0348,1.1052,1.1696,1.2064,1.2444,1.27,1.2832,1.3227,1.3752,1.4006,1.4268,1.4772,1.4808,1.4723,1.4685,1.4846,1.513,1.5383,1.5874,1.635,1.6997,1.7618,1.8477,0.3332,0.3703,0.3701,0.4067,0.4436,0.443,0.4612,0.4608,0.457,0.473,0.4891,0.6467,0.7331,0.751,0.7859,0.8207,0.8744,0.9113,0.9286,0.9286,0.9291,0.8579,0.7324,0.7149,0.6618,0.5719,0.5182,0.4998,0.4998,0.4646,0.4295,0.4301,0.4301,0.4299,0.4299,0.4295,0.4275,0.4234,0.3315,0.3107,0.3418,0.3889,0.4369,0.4703,0.5651,0.6443,0.7256,0.8148,0.9016,1.0188,1.0993,1.1478,1.1669,1.1978,1.2033,1.2013,1.187,1.1873,1.2029,1.2166,1.2323,1.2731,1.276,1.2919,1.3197,1.3182,1.3167,1.3333,1.319,1.3468,1.3761,1.3737,1.3855,1.3855,1.3839,1.3855,1.3831,1.3863,1.3721,1.3136,1.2529,1.1987,1.1389,1.0954,1.0537,0.9804,0.9655,0.9512,0.9649,1.0155,1.0665,1.1021,1.1111,1.1212,1.1851,1.214,1.2468,1.2848,1.3104,1.349,1.3752,1.4137,1.4539,1.48,1.4922,1.4874,1.5014,1.5144,1.5505,1.5822,1.625,1.6711,1.7613,1.815,1.892,0.3204,0.3389,0.3371,0.3351,0.3519,0.3888,0.3889,0.4071,0.424,0.4416,0.4598,0.5493,0.6169,0.6281,0.6812,0.7527,0.8242,0.8421,0.8603,0.8786,0.8964,0.8425,0.771,0.7352,0.6815,0.6097,0.5739,0.538,0.538,0.5204,0.5204,0.5204,0.5204,0.5204,0.5204,0.5204,0.4998,0.4595,0.4544,0.4323,0.3934,0.3891,0.4204,0.4707,0.5524,0.6343,0.6839,0.7592,0.8671,0.9915,1.0543,1.1203,1.1772,1.202,1.2196,1.234,1.2352,1.2536,1.2772,1.2912,1.3051,1.3482,1.3482,1.3629,1.3921,1.3921,1.3881,1.3778,1.3682,1.3753,1.3904,1.3904,1.3904,1.3904,1.3904,1.3904,1.3904,1.3904,1.3761,1.3325,1.3039,1.2753,1.2323,1.1743,1.1025,1.0455,1.0311,1.0311,1.0305,1.0836,1.1239,1.1491,1.1895,1.2239,1.2346,1.2641,1.2813,1.2873,1.3104,1.3498,1.3884,1.4137,1.4539,1.48,1.4931,1.5071,1.5192,1.5583,1.5844,1.6234,1.6753,1.7271,1.7905,1.8431,1.92,0.3052,0.3048,0.3028,0.3006,0.2987,0.336,0.3547,0.3545,0.3909,0.4091,0.4089,0.4632,0.4956,0.5437,0.6149,0.7051,0.7772,0.7956,0.8136,0.8681,0.8681,0.8501,0.7956,0.7595,0.7221,0.6485,0.6126,0.5937,0.5744,0.5741,0.5741,0.5741,0.5741,0.5741,0.5741,0.5741,0.5533,0.5122,0.542,0.5189,0.4618,0.4398,0.4542,0.471,0.5549,0.6221,0.6727,0.7338,0.828,0.9568,1.0362,1.1025,1.1615,1.2017,1.2332,1.2588,1.2641,1.2998,1.3408,1.3401,1.3698,1.3987,1.3987,1.4136,1.4284,1.4432,1.4375,1.4261,1.4083,1.3969,1.3904,1.3904,1.3904,1.3904,1.3904,1.3904,1.3904,1.3904,1.3753,1.3468,1.3468,1.3325,1.2896,1.2323,1.1749,1.1319,1.1175,1.1175,1.1175,1.1599,1.2029,1.2029,1.2783,1.2874,1.2702,1.2839,1.3027,1.3162,1.3367,1.3621,1.4015,1.4277,1.467,1.5071,1.5062,1.5192,1.5593,1.5844,1.6364,1.6764,1.7152,1.7787,1.8291,1.8944,1.9711,0.3052,0.3052,0.3051,0.3047,0.3047,0.3046,0.3047,0.323,0.3205,0.3005,0.3188,0.3535,0.4073,0.4623,0.5913,0.6832,0.7378,0.7926,0.8293,0.8844,0.8848,0.8672,0.8124,0.8124,0.7713,0.6728,0.654,0.6152,0.5744,0.5741,0.5741,0.5741,0.5741,0.5741,0.5741,0.5741,0.5711,0.5646,0.5589,0.5531,0.5474,0.5414,0.5046,0.4878,0.5216,0.5888,0.656,0.7223,0.8019,0.925,0.9952,1.0639,1.1154,1.1635,1.2266,1.2761,1.2877,1.3258,1.3737,1.387,1.4011,1.43,1.4324,1.4448,1.4481,1.4489,1.4464,1.4416,1.4286,1.4123,1.3945,1.3912,1.3904,1.3904,1.3904,1.3904,1.3904,1.3904,1.3904,1.3896,1.3761,1.3611,1.3325,1.3039,1.2753,1.261,1.261,1.261,1.2466,1.261,1.2753,1.3039,1.3143,1.3193,1.2873,1.3102,1.3202,1.3294,1.3621,1.4015,1.4277,1.467,1.5071,1.5332,1.5463,1.5593,1.5974,1.6364,1.6753,1.7141,1.7529,1.8045,1.8804,1.9571,2.0335,0.3052,0.3052,0.3052,0.3052,0.3052,0.3052,0.3052,0.3051,0.3041,0.3036,0.3224,0.3592,0.3963,0.4528,0.5471,0.6179,0.6848,0.7395,0.7948,0.832,0.8688,0.8873,0.8688,0.832,0.7911,0.7474,0.6919,0.6341,0.5747,0.5741,0.5741,0.5741,0.5741,0.5741,0.5741,0.5741,0.5692,0.56,0.557,0.5512,0.5425,0.5395,0.5384,0.5216,0.5384,0.5888,0.6727,0.6895,0.7718,0.9183,0.9672,1.019,1.077,1.1691,1.2474,1.3041,1.3341,1.3778,1.4486,1.4621,1.4621,1.4773,1.4773,1.4765,1.4773,1.4773,1.4732,1.4627,1.4562,1.4399,1.4123,1.3977,1.3904,1.3904,1.3904,1.3904,1.3904,1.3904,1.3904,1.3904,1.3904,1.3753,1.3468,1.3182,1.3039,1.2896,1.2753,1.2753,1.2896,1.2896,1.3182,1.3325,1.3753,1.3965,1.3727,1.3667,1.3612,1.3626,1.3752,1.4146,1.4539,1.4941,1.5463,1.5593,1.5724,1.5984,1.6364,1.6882,1.7271,1.7658,1.8045,1.8676,1.9316,2.0208,2.1096,0.3052,0.3052,0.3052,0.3052,0.3052,0.3052,0.3052,0.3052,0.3052,0.3052,0.3243,0.3434,0.4006,0.4575,0.4958,0.5493,0.6354,0.6911,0.747,0.8028,0.84,0.84,0.84,0.8214,0.7788,0.7506,0.6722,0.614,0.5744,0.5741,0.5741,0.5741,0.5741,0.5741,0.5739,0.5722,0.566,0.5575,0.5542,0.5482,0.5395,0.5384,0.5384,0.5384,0.5384,0.572,0.6727,0.6727,0.7383,0.8838,0.9341,0.9853,1.0719,1.1829,1.2811,1.3274,1.3428,1.3898,1.4669,1.4822,1.4814,1.4814,1.4968,1.4968,1.4968,1.4968,1.4903,1.4814,1.4724,1.4578,1.4318,1.4099,1.3969,1.392,1.3904,1.3904,1.3904,1.3904,1.3904,1.3904,1.3904,1.3753,1.3611,1.3468,1.3468,1.3182,1.3182,1.3182,1.3325,1.3468,1.3753,1.3896,1.4332,1.4531,1.4475,1.4414,1.4222,1.4245,1.4286,1.4539,1.4931,1.5332,1.5724,1.5854,1.6114,1.6494,1.7012,1.7529,1.7916,1.8291,1.8932,1.9444,2.0208,2.0969,2.1713,0.3052,0.3052,0.3052,0.3052,0.3052,0.3052,0.3052,0.3052,0.3052,0.3052,0.3052,0.3243,0.3815,0.4385,0.4766,0.5142,0.6085,0.6648,0.703,0.7599,0.7602,0.7792,0.7788,0.7785,0.7333,0.6829,0.616,0.5744,0.5741,0.5741,0.5741,0.5741,0.5741,0.5736,0.5736,0.5684,0.5624,0.5559,0.5507,0.545,0.5392,0.5384,0.5384,0.5384,0.5384,0.5888,0.6727,0.6727,0.7361,0.8436,0.8824,0.9786,1.1023,1.2057,1.267,1.3127,1.3281,1.3597,1.406,1.4214,1.4361,1.4515,1.4814,1.4968,1.4968,1.4968,1.496,1.4919,1.4797,1.4619,1.444,1.4099,1.393,1.3937,1.3904,1.3904,1.3904,1.3904,1.3904,1.3904,1.3904,1.3904,1.3904,1.3761,1.3761,1.3904,1.3896,1.3904,1.4189,1.4332,1.4625,1.491,1.5035,1.5106,1.5059,1.5147,1.5082,1.487,1.4922,1.5062,1.5453,1.5984,1.6244,1.6504,1.6893,1.7271,1.7776,1.8302,1.8688,1.92,1.9711,2.0335,2.1096,2.1853,2.2438,0.3052,0.3052,0.3052,0.3052,0.3052,0.3052,0.3052,0.3052,0.3052,0.3052,0.3243,0.3434,0.4006,0.4575,0.4958,0.5527,0.6098,0.6288,0.6672,0.7052,0.7433,0.7619,0.7619,0.7619,0.7353,0.6654,0.6338,0.6097,0.5741,0.5741,0.5741,0.5741,0.5741,0.5717,0.5681,0.5657,0.5605,0.551,0.5485,0.5447,0.539,0.5384,0.5384,0.5384,0.5384,0.572,0.656,0.6727,0.7357,0.8592,0.8657,0.9152,1.0386,1.174,1.2522,1.2663,1.2811,1.2804,1.3105,1.3583,1.3898,1.4053,1.4361,1.4515,1.4669,1.4814,1.4968,1.4952,1.4806,1.4635,1.4448,1.4278,1.4099,1.392,1.3904,1.3904,1.3904,1.3904,1.3904,1.3904,1.3904,1.3904,1.3904,1.3904,1.4047,1.4189,1.4332,1.4474,1.4768,1.491,1.5044,1.5328,1.5593,1.5821,1.5895,1.6099,1.6155,1.5938,1.5863,1.5714,1.6104,1.6623,1.6882,1.7271,1.7787,1.8173,1.8688,1.92,1.9584,1.9966,2.0602,2.1235,2.1978,2.2591,2.3311,0.3052,0.3052,0.3052,0.3052,0.3052,0.3052,0.3243,0.3434,0.3434,0.3434,0.3624,0.4006,0.4387,0.4768,0.5149,0.5527,0.6098,0.6098,0.6288,0.6669,0.6859,0.7049,0.7037,0.6992,0.6733,0.6439,0.6326,0.6097,0.5741,0.5741,0.5741,0.5741,0.5741,0.5711,0.5651,0.5624,0.5567,0.5485,0.5452,0.5422,0.5392,0.5384,0.5384,0.5384,0.5384,0.5888,0.656,0.6703,0.7146,0.804,0.8088,0.859,0.9724,1.0964,1.174,1.2044,1.2037,1.203,1.2172,1.2649,1.312,1.3274,1.359,1.4053,1.4053,1.4353,1.4491,1.4397,1.431,1.4153,1.408,1.4099,1.3954,1.392,1.3904,1.3904,1.3904,1.3904,1.3904,1.3904,1.3904,1.3904,1.3904,1.3904,1.4047,1.4332,1.4483,1.4759,1.5044,1.5337,1.5612,1.6028,1.6593,1.6767,1.6857,1.7056,1.7234,1.7002,1.6771,1.6665,1.6753,1.74,1.7798,1.8419,1.8804,1.92,1.9699,2.0208,2.0589,2.1109,2.1488,2.2244,2.2856,2.3604,2.4178,0.3052,0.3052,0.3052,0.3243,0.3243,0.3243,0.3434,0.3815,0.3815,0.4006,0.4385,0.4575,0.4768,0.5149,0.5339,0.5718,0.6098,0.6098,0.6098,0.6096,0.628,0.6274,0.6263,0.6165,0.6081,0.5837,0.5771,0.5741,0.5741,0.5741,0.5741,0.5741,0.5739,0.5706,0.5643,0.5586,0.5534,0.5463,0.5414,0.5387,0.5384,0.5384,0.5384,0.5384,0.5384,0.5888,0.6553,0.6818,0.7066,0.7621,0.7635,0.8172,0.909,0.9708,1.0175,1.1119,1.1268,1.1107,1.1262,1.1572,1.2037,1.2347,1.2811,1.3127,1.3428,1.3583,1.3677,1.3535,1.3627,1.3641,1.3536,1.3566,1.3625,1.3793,1.3896,1.3904,1.3904,1.3904,1.3904,1.3904,1.3904,1.3904,1.3904,1.3904,1.4047,1.4483,1.4625,1.4901,1.5603,1.6028,1.632,1.6866,1.7409,1.7631,1.7697,1.7744,1.8039,1.8199,1.8007,1.7961,1.7905,1.8431,1.8816,1.9328,1.9954,2.0335,2.0716,2.1096,2.1601,2.2104,2.2606,2.323,2.3713,2.4317,2.4605,0.3243,0.3624,0.3624,0.3815,0.4194,0.4194,0.4194,0.4385,0.4385,0.4577,0.4766,0.4958,0.5149,0.5339,0.5718,0.5908,0.6098,0.6098,0.6098,0.609,0.6052,0.6038,0.6011,0.5916,0.5848,0.582,0.5769,0.5741,0.5741,0.5741,0.5741,0.5741,0.5739,0.5687,0.5597,0.5567,0.5504,0.5422,0.5395,0.5384,0.5384,0.5384,0.5384,0.5384,0.5384,0.5885,0.6714,0.726,0.7471,0.7701,0.7591,0.7842,0.8466,0.8306,0.8925,1.003,1.0342,1.0019,0.9853,1.048,1.1107,1.1107,1.1727,1.2192,1.2347,1.2965,1.3041,1.3051,1.3244,1.323,1.3175,1.3039,1.3092,1.334,1.3611,1.3904,1.3904,1.3904,1.3904,1.3904,1.3904,1.3904,1.3904,1.3904,1.4189,1.4625,1.491,1.5186,1.6028,1.6452,1.6734,1.7518,1.8143,1.8331,1.8507,1.8661,1.8816,1.9217,1.9224,1.934,1.9444,1.9584,1.9966,2.0348,2.0843,2.1348,2.1601,2.1978,2.2606,2.3106,2.3479,2.3976,2.4501,2.4944,2.4972,0.3624,0.4196,0.4196,0.4385,0.4575,0.4575,0.4766,0.4958,0.4958,0.4956,0.5337,0.5527,0.5718,0.5718,0.5908,0.6098,0.6098,0.6098,0.6098,0.6082,0.6014,0.5965,0.5924,0.5856,0.582,0.579,0.5758,0.5744,0.5741,0.5741,0.5741,0.5741,0.5741,0.5676,0.557,0.5556,0.5501,0.5406,0.5384,0.5384,0.5384,0.5384,0.5384,0.5384,0.5382,0.587,0.6629,0.7328,0.7717,0.7656,0.7578,0.7681,0.7842,0.7681,0.7989,0.8934,0.8934,0.8769,0.8608,0.9392,1.0025,1.0175,1.0796,1.1107,1.1399,1.1991,1.2192,1.2045,1.2203,1.2199,1.2489,1.2654,1.3047,1.3476,1.3761,1.3904,1.3904,1.3904,1.3904,1.3904,1.3904,1.3904,1.3904,1.3904,1.4332,1.4759,1.5052,1.5612,1.631,1.6734,1.7288,1.7938,1.8622,1.9084,1.9381,1.952,1.9918,2.017,2.0589,2.0716,2.0716,2.0843,2.1096,2.1362,2.1853,2.2355,2.2606,2.3106,2.3604,2.41,2.4487,2.4841,2.5253,2.5479,2.5476,0.4196,0.4575,0.4575,0.4766,0.4766,0.4766,0.5147,0.5339,0.5339,0.5527,0.5908,0.6098,0.6098,0.6098,0.6098,0.6098,0.6098,0.6098,0.6079,0.6041,0.5965,0.5888,0.5834,0.5823,0.579,0.5755,0.5741,0.5741,0.5741,0.5741,0.5741,0.5741,0.5741,0.5673,0.5583,0.5559,0.5496,0.5406,0.5384,0.5384,0.5384,0.5384,0.5384,0.5384,0.5533,0.5811,0.6537,0.724,0.766,0.7644,0.7566,0.7529,0.7525,0.7525,0.7525,0.7681,0.7833,0.7673,0.7673,0.8462,0.8934,0.9246,0.9708,1.0019,1.0314,1.0697,1.0884,1.0745,1.0595,1.1059,1.166,1.2173,1.2888,1.3476,1.3769,1.3904,1.3904,1.3904,1.3904,1.3904,1.3904,1.3904,1.3904,1.3904,1.4189,1.4625,1.491,1.547,1.631,1.6875,1.758,1.8412,1.9025,1.9705,2.0123,2.0522,2.0902,2.1289,2.1866,2.2104,2.1978,2.2104,2.223,2.248,2.2856,2.323,2.3743,2.4239,2.461,2.5226,2.5472,2.5839,2.6139,2.6202,2.6165,0.4766,0.5149,0.5149,0.5337,0.5718,0.5718,0.5908,0.5908,0.5908,0.5908,0.6098,0.6098,0.6098,0.6098,0.6098,0.6098,0.6096,0.609,0.6055,0.5954,0.5888,0.582,0.5771,0.5766,0.5755,0.5741,0.5741,0.5741,0.5741,0.5741,0.5741,0.5741,0.5728,0.5679,0.5578,0.5551,0.5501,0.5406,0.5384,0.5384,0.5384,0.5384,0.5382,0.5376,0.5668,0.6098,0.6509,0.6912,0.7314,0.7413,0.7537,0.7525,0.7525,0.7525,0.7525,0.7525,0.7525,0.7521,0.7677,0.7998,0.8471,0.8466,0.8934,0.909,0.908,0.9598,0.9634,0.9516,0.9848,1.045,1.1063,1.1606,1.2323,1.3047,1.3626,1.3912,1.3904,1.3904,1.3904,1.3904,1.3904,1.3904,1.3904,1.3896,1.4047,1.4483,1.491,1.5328,1.6037,1.6885,1.7721,1.8563,1.9187,1.9855,2.063,2.1254,2.1833,2.2286,2.2885,2.3355,2.323,2.323,2.323,2.3479,2.3604,2.4115,2.461,2.4857,2.5349,2.5961,2.6571,2.6813,2.7039,2.7046,2.7044,0.5147,0.5718,0.5718,0.5908,0.6096,0.6098,0.6098,0.6098,0.6098,0.6098,0.6098,0.6098,0.6098,0.6098,0.6098,0.6098,0.609,0.6066,0.6011,0.5927,0.5861,0.5801,0.5752,0.5741,0.5741,0.5741,0.5741,0.5741,0.5741,0.5741,0.5741,0.5736,0.5714,0.5649,0.5564,0.5534,0.5474,0.5403,0.5384,0.5384,0.5384,0.5384,0.5365,0.5505,0.5778,0.6038,0.6448,0.6854,0.711,0.7381,0.7525,0.7525,0.7525,0.7525,0.7525,0.7525,0.7525,0.7525,0.7681,0.7686,0.7998,0.7842,0.831,0.8439,0.8548,0.876,0.8799,0.884,0.9176,0.9803,1.0612,1.1319,1.2036,1.261,1.3484,1.3912,1.3904,1.3904,1.3904,1.3904,1.3904,1.3753,1.3753,1.3611,1.3753,1.4189,1.4189,1.4759,1.6037,1.6744,1.7721,1.8465,1.9197,2.0002,2.1082,2.1862,2.2749,2.3245,2.3867,2.4363,2.461,2.4487,2.4363,2.4487,2.4595,2.4964,2.5472,2.5717,2.6083,2.6675,2.728,2.7642,2.7807,2.7813,2.7852,0.5718,0.6098,0.6098,0.6098,0.6098,0.6098,0.6098,0.6098,0.6098,0.6098,0.6098,0.6098,0.6098,0.6098,0.6098,0.6096,0.6066,0.6006,0.5937,0.5897,0.5837,0.5785,0.5747,0.5741,0.5741,0.5741,0.5741,0.5741,0.5741,0.5741,0.5741,0.573,0.5681,0.5624,0.5561,0.5504,0.545,0.5392,0.5384,0.5384,0.5384,0.5382,0.5357,0.5468,0.5736,0.6156,0.6564,0.6806,0.7064,0.7525,0.7525,0.7525,0.7525,0.7525,0.7525,0.7525,0.7525,0.7525,0.7525,0.7525,0.7525,0.7525,0.7842,0.795,0.8021,0.8085,0.8286,0.8474,0.8669,0.9463,1.0311,1.0875,1.1736,1.2459,1.334,1.3769,1.3904,1.3904,1.3904,1.3904,1.3753,1.3611,1.3468,1.3325,1.3468,1.3611,1.3753,1.4189,1.547,1.6442,1.7278,1.8111,1.8868,2.031,2.1461,2.2794,2.3539,2.4224,2.4734,2.5226,2.561,2.5594,2.5472,2.5349,2.5472,2.5961,2.6449,2.6692,2.7177,2.7642,2.8086,2.8664,2.8627,2.857,2.8615,0.6098,0.6098,0.6098,0.6098,0.6098,0.6098,0.6098,0.6098,0.6098,0.6098,0.6098,0.6098,0.6098,0.6096,0.6098,0.6074,0.6014,0.5932,0.5869,0.5845,0.5796,0.5749,0.5744,0.5741,0.5741,0.5741,0.5741,0.5741,0.5741,0.5741,0.5736,0.5725,0.5673,0.5613,0.5553,0.5504,0.5439,0.5392,0.5384,0.5384,0.5384,0.5541,0.5513,0.5778,0.5875,0.6133,0.6705,0.6949,0.706,0.7525,0.7525,0.7525,0.7525,0.7525,0.7525,0.7525,0.7525,0.7525,0.7525,0.7525,0.7525,0.7525,0.7681,0.7636,0.7548,0.7612,0.7814,0.8155,0.879,0.959,1.0449,1.0725,1.1442,1.2459,1.3333,1.3912,1.3904,1.3904,1.3904,1.3761,1.3611,1.3325,1.3182,1.2904,1.3047,1.3039,1.3182,1.3619,1.4474,1.5434,1.6234,1.7302,1.8417,2.0248,2.2046,2.3392,2.4487,2.5087,2.5717,2.6205,2.6571,2.6692,2.6692,2.6796,2.6692,2.6692,2.7177,2.7659,2.814,2.86,2.9157,2.9691,2.9545,2.9507,2.9512,0.6098,0.6098,0.6098,0.6098,0.6098,0.6098,0.6098,0.6098,0.6098,0.6098,0.6098,0.6098,0.6098,0.609,0.6063,0.6022,0.5951,0.5878,0.5834,0.5818,0.5771,0.5741,0.5741,0.5741,0.5741,0.5741,0.5741,0.5741,0.5741,0.5741,0.5725,0.5684,0.5632,0.5575,0.5515,0.5455,0.5417,0.5387,0.5384,0.5384,0.5547,0.5694,0.5967,0.5903,0.5997,0.6407,0.6817,0.6934,0.706,0.7369,0.7525,0.7525,0.7525,0.7525,0.7525,0.7525,0.7525,0.7525,0.7525,0.7525,0.7525,0.7525,0.7681,0.7765,0.7663,0.7876,0.8085,0.8553,0.878,0.9735,1.0606,1.0581,1.1299,1.2459,1.3484,1.3769,1.3904,1.3904,1.3761,1.3761,1.3468,1.3182,1.2617,1.2617,1.2474,1.2617,1.2617,1.319,1.3761,1.4557,1.5484,1.7296,1.8664,2.0669,2.2594,2.4022,2.5226,2.5961,2.6675,2.7177,2.7659,2.7882,2.8241,2.848,2.8259,2.8002,2.8241,2.8838,2.9213,2.9686,3.0353,3.0684,3.0502,3.0426,3.0409,0.6288,0.6288,0.6098,0.6098,0.6098,0.6098,0.6098,0.6098,0.6098,0.6098,0.6096,0.6085,0.6076,0.606,0.6008,0.5948,0.5897,0.5837,0.5809,0.5798,0.5766,0.5741,0.5741,0.5741,0.5741,0.5741,0.5741,0.5741,0.5741,0.5741,0.5706,0.5657,0.5591,0.5531,0.5477,0.5425,0.5392,0.5384,0.5384,0.5384,0.5538,0.5989,0.6413,0.6016,0.6267,0.6673,0.7079,0.7064,0.7217,0.7369,0.7525,0.7525,0.7525,0.7525,0.7525,0.7525,0.7525,0.7525,0.7525,0.7681,0.7681,0.7686,0.8132,0.818,0.8205,0.8556,0.8907,0.9345,0.9735,1.0167,1.1031,1.0868,1.1586,1.2602,1.3476,1.3912,1.3904,1.3904,1.3761,1.3611,1.3325,1.3039,1.2617,1.2194,1.2043,1.2051,1.2187,1.2617,1.3317,1.3948,1.5235,1.7277,1.9267,2.1288,2.3068,2.4487,2.57,2.6675,2.7521,2.8241,2.8719,2.9194,2.9549,3.002,2.9903,2.9648,2.9903,3.002,3.0392,3.0859,3.1536,3.1734,3.1299,3.1264,3.1329,0.6862,0.6862,0.6288,0.6098,0.6098,0.6098,0.6098,0.6098,0.6098,0.6098,0.6087,0.6046,0.6027,0.5995,0.5907,0.5858,0.5826,0.579,0.5763,0.576,0.5747,0.5741,0.5741,0.5741,0.5741,0.5741,0.5741,0.5741,0.573,0.573,0.5703,0.5643,0.5581,0.5529,0.5461,0.5412,0.5387,0.5384,0.5384,0.5382,0.5535,0.6148,0.6407,0.6496,0.6741,0.6982,0.7381,0.7369,0.7369,0.7525,0.7525,0.7525,0.7525,0.7525,0.7525,0.7525,0.7525,0.7525,0.7681,0.7842,0.8154,0.8136,0.8397,0.8588,0.89,0.9329,0.9797,0.9757,1.0599,1.1175,1.1456,1.1572,1.2151,1.2881,1.3761,1.3904,1.4047,1.4189,1.4047,1.3619,1.3611,1.3047,1.2474,1.2051,1.1619,1.1619,1.1756,1.2323,1.3105,1.3974,1.5496,1.7781,1.9625,2.1638,2.3664,2.5087,2.6415,2.7521,2.86,2.9431,2.9903,3.0372,3.1053,3.1285,3.1285,3.1285,3.1401,3.1516,3.1556,3.2018,3.2571,3.2301,3.1876,3.2017,3.2233,0.7809,0.7239,0.7049,0.6859,0.6859,0.6859,0.6859,0.6859,0.6672,0.6458,0.6427,0.6215,0.5978,0.591,0.5848,0.5815,0.5779,0.5752,0.5741,0.5741,0.5741,0.5741,0.5741,0.5741,0.5741,0.5741,0.5736,0.5714,0.5703,0.5684,0.566,0.56,0.5542,0.548,0.5436,0.5401,0.5387,0.5384,0.5382,0.5533,0.5826,0.6259,0.6516,0.6763,0.716,0.726,0.7381,0.7525,0.7525,0.7525,0.7525,0.7681,0.7842,0.8159,0.8159,0.7994,0.8462,0.8466,0.831,0.8466,0.8622,0.891,0.9136,0.9455,0.9876,1.0286,1.0593,1.0887,1.1462,1.1886,1.2022,1.2144,1.2731,1.346,1.4332,1.4332,1.4474,1.4474,1.4474,1.4047,1.3753,1.346,1.3016,1.258,1.2294,1.2015,1.2137,1.2671,1.3644,1.4671,1.6425,1.8502,2.0206,2.1866,2.3961,2.5806,2.7246,2.8462,2.9785,3.0606,3.1073,3.1652,3.2322,3.2778,3.2892,3.2871,3.2985,3.2892,3.2778,3.314,3.3593,3.3262,3.3052,3.2964,3.3082,0.8759,0.8189,0.7809,0.7619,0.7619,0.7619,0.7619,0.7619,0.7242,0.7014,0.6764,0.6348,0.6089,0.5828,0.5804,0.5782,0.5744,0.5741,0.5741,0.5741,0.5741,0.5741,0.5741,0.5741,0.5741,0.5739,0.5714,0.5692,0.5657,0.5619,0.5578,0.5537,0.5504,0.5447,0.5403,0.5384,0.5384,0.5549,0.553,0.5665,0.6114,0.6523,0.6777,0.7024,0.7271,0.7525,0.7525,0.7525,0.7525,0.7525,0.7525,0.7681,0.8159,0.8944,0.9256,0.909,0.9397,0.9713,0.9713,0.9713,0.9558,0.9666,1.0173,1.0595,1.0995,1.126,1.1599,1.1893,1.2323,1.2602,1.2595,1.2866,1.3452,1.4324,1.5061,1.5203,1.5195,1.5328,1.5328,1.5186,1.4733,1.4407,1.3965,1.3389,1.297,1.2551,1.2663,1.302,1.419,1.5673,1.7389,1.948,2.1256,2.2827,2.4671,2.652,2.7966,2.9394,3.082,3.1767,3.2322,3.3006,3.3797,3.4134,3.4469,3.4781,3.4869,3.4447,3.4134,3.4469,3.4626,3.458,3.4482,3.4207,3.3876,0.9711,0.9711,0.8189,0.7619,0.7619,0.7619,0.7619,0.7809,0.7616,0.7568,0.7287,0.6816,0.6178,0.5946,0.5937,0.5932,0.5741,0.5741,0.5741,0.5741,0.5741,0.5741,0.5741,0.5741,0.5736,0.5725,0.5695,0.5665,0.5624,0.5545,0.5507,0.5477,0.5463,0.5433,0.5403,0.5384,0.5544,0.5697,0.5665,0.5958,0.6397,0.6971,0.7202,0.7167,0.7264,0.7525,0.7525,0.7525,0.7525,0.7525,0.7525,0.7994,0.8627,0.9885,1.0353,1.018,1.033,1.0958,1.1268,1.0952,1.048,1.0726,1.1194,1.1878,1.1997,1.2417,1.2624,1.2753,1.3182,1.3468,1.3452,1.3579,1.4164,1.5195,1.5923,1.6197,1.6188,1.6178,1.6178,1.6037,1.5839,1.5606,1.5365,1.4902,1.4064,1.3512,1.398,1.4449,1.5489,1.697,1.8404,2.0336,2.2174,2.3946,2.5635,2.7349,2.902,3.0451,3.1862,3.2892,3.3685,3.4469,3.5333,3.5772,3.61,3.6557,3.6773,3.6317,3.5881,3.5795,3.5768,3.5733,3.5313,3.4866,3.4518,1.0848,0.9901,0.9332,0.8763,0.8573,0.8573,0.8573,0.8372,0.8138,0.767,0.7371,0.7084,0.6841,0.6643,0.6637,0.6637,0.6637,0.6637,0.6458,0.6279,0.6097,0.5918,0.5918,0.5733,0.5722,0.5689,0.5654,0.56,0.5534,0.5659,0.5452,0.5433,0.5594,0.5409,0.5387,0.5376,0.5694,0.5992,0.6123,0.6413,0.6795,0.724,0.7485,0.7417,0.7401,0.7525,0.7525,0.7525,0.7681,0.7842,0.7681,0.8306,0.9246,1.0664,1.1125,1.1113,1.1417,1.2037,1.2508,1.203,1.1535,1.2026,1.2477,1.2741,1.2882,1.3001,1.3205,1.3476,1.3904,1.4181,1.4617,1.4591,1.5008,1.6056,1.6783,1.7046,1.7168,1.7288,1.7358,1.7307,1.7086,1.6708,1.6589,1.6616,1.5522,1.4698,1.5264,1.5952,1.7103,1.8392,2.0067,2.1628,2.3589,2.5407,2.7091,2.8664,3.0217,3.1612,3.3006,3.4112,3.5113,3.5991,3.675,3.7203,3.7631,3.8056,3.8137,3.7926,3.7631,3.7096,3.6942,3.6778,3.625,3.5647,3.5307,1.1605,1.0659,1.009,0.9522,0.9142,0.9146,0.9126,0.9093,0.8665,0.8166,0.7464,0.7391,0.7352,0.7173,0.7173,0.7173,0.7173,0.7173,0.6994,0.6815,0.6633,0.6454,0.6273,0.6073,0.6219,0.6001,0.6124,0.6061,0.6001,0.5969,0.5933,0.5903,0.572,0.572,0.5382,0.5527,0.5665,0.6126,0.6387,0.6838,0.7198,0.7318,0.7449,0.7537,0.7529,0.7525,0.7525,0.7681,0.7842,0.8154,0.831,0.8929,1.0025,1.0964,1.1895,1.2198,1.2501,1.2965,1.312,1.2958,1.2762,1.3144,1.3229,1.3371,1.3506,1.3609,1.3769,1.4047,1.4617,1.5195,1.563,1.5434,1.5999,1.7036,1.7903,1.8314,1.8379,1.8336,1.8506,1.8683,1.8424,1.8134,1.8329,1.8327,1.7784,1.6963,1.7124,1.7937,1.9006,2.0298,2.188,2.345,2.5146,2.6849,2.8545,3.0179,3.1917,3.3283,3.4558,3.553,3.6534,3.7501,3.8267,3.8792,3.9233,3.9544,3.9622,3.9494,3.8896,3.8185,3.8007,3.7935,3.7372,3.6777,3.6448,1.2172,1.1983,1.0469,0.9711,0.9142,0.9146,0.9097,0.9028,0.8991,0.852,0.8001,0.7918,0.771,0.7352,0.7352,0.7535,0.7352,0.7356,0.7352,0.7173,0.7173,0.7173,0.6965,0.6931,0.6706,0.6848,0.6769,0.6521,0.6652,0.6437,0.657,0.6556,0.6382,0.6208,0.5544,0.5654,0.6117,0.6588,0.6626,0.6894,0.7481,0.7578,0.7542,0.7529,0.7525,0.7525,0.7681,0.7842,0.8154,0.8466,0.9241,0.9708,1.0486,1.205,1.2824,1.2663,1.3281,1.3898,1.4207,1.3898,1.3853,1.4099,1.3995,1.3972,1.4187,1.4421,1.4474,1.4759,1.5328,1.6037,1.616,1.6263,1.7127,1.8002,1.8865,1.9518,1.9588,1.9634,1.9781,1.9927,1.9905,1.9748,2.0017,2.009,1.9948,1.9641,1.9401,1.9979,2.1096,2.2452,2.4039,2.5481,2.7056,2.871,3.0509,3.2011,3.362,3.498,3.6077,3.7156,3.8113,3.8976,3.9725,4.0287,4.0593,4.087,4.1071,4.1246,4.0541,3.9827,3.9233,3.9005,3.8481,3.8086,3.7767,1.3487,1.2172,1.1605,1.0659,0.9711,0.9332,0.9089,0.8995,0.8881,0.8581,0.8485,0.8433,0.825,0.8071,0.8071,0.8071,0.8071,0.8071,0.8071,0.771,0.7702,0.731,0.7279,0.7061,0.7003,0.6921,0.684,0.6799,0.6761,0.6734,0.6731,0.6724,0.6832,0.6487,0.6301,0.6249,0.652,0.6791,0.6727,0.6843,0.7421,0.7542,0.7525,0.7525,0.7525,0.7681,0.7842,0.8159,0.8622,0.9246,1.0019,1.0486,1.1417,1.2979,1.345,1.359,1.4207,1.4361,1.4629,1.4734,1.4646,1.4716,1.4586,1.4523,1.4683,1.477,1.5079,1.547,1.6037,1.6603,1.7147,1.6947,1.7658,1.8971,1.9959,2.0545,2.0872,2.0749,2.0859,2.1014,2.1019,2.1523,2.1933,2.2594,2.244,2.2774,2.2812,2.2798,2.3668,2.4901,2.6349,2.7776,2.9319,3.0839,3.2468,3.4159,3.5463,3.6788,3.7878,3.8742,3.9674,4.0516,4.1019,4.167,4.1967,4.2289,4.2262,4.2262,4.2065,4.1571,4.0971,4.0364,3.9906,3.9549,3.9168,1.4429,1.3299,1.255,1.1579,1.0606,0.9659,0.9215,0.8901,0.8754,0.8656,0.8615,0.8611,0.8607,0.8607,0.8607,0.8607,0.8607,0.8607,0.8607,0.8063,0.8033,0.7814,0.7593,0.7352,0.7443,0.7355,0.7307,0.7271,0.7238,0.723,0.7208,0.7161,0.708,0.7026,0.7,0.6798,0.6766,0.6879,0.6997,0.711,0.7389,0.7525,0.7525,0.7525,0.7681,0.7842,0.8154,0.8622,0.909,0.9864,1.0641,1.1262,1.2353,1.3281,1.3906,1.4214,1.4669,1.4944,1.5007,1.5404,1.5278,1.4943,1.5138,1.5027,1.5026,1.5301,1.5648,1.6037,1.6603,1.7308,1.7991,1.7928,1.8754,2.0074,2.1108,2.1829,2.2041,2.1923,2.1899,2.2148,2.2553,2.3141,2.3897,2.4718,2.5301,2.5757,2.6211,2.6332,2.6436,2.7537,2.8847,3.0238,3.1741,3.3332,3.4781,3.6225,3.7536,3.8693,3.9649,4.049,4.1193,4.2012,4.2528,4.2943,4.3136,4.3355,4.3355,4.3355,4.3259,4.2943,4.2431,4.194,4.1445,4.0984,4.0743,1.5181,1.4993,1.3104,1.2284,1.1817,1.0492,0.9451,0.8738,0.8648,0.8611,0.8607,0.8607,0.8607,0.8607,0.8607,0.8607,0.8607,0.8607,0.8595,0.8575,0.8345,0.8301,0.8221,0.8125,0.7882,0.8001,0.7953,0.7749,0.806,0.7873,0.7833,0.7737,0.7613,0.7557,0.7365,0.7187,0.7016,0.7145,0.7268,0.7389,0.7525,0.7525,0.7525,0.7681,0.7842,0.8315,0.8627,0.9246,0.9864,1.0641,1.1572,1.2192,1.2965,1.3744,1.4207,1.4653,1.5259,1.5311,1.5328,1.5711,1.5694,1.5474,1.5505,1.5461,1.5552,1.5845,1.6207,1.6885,1.7449,1.8282,1.8971,1.9484,2.013,2.1346,2.251,2.301,2.3175,2.3187,2.3121,2.3457,2.3893,2.461,2.579,2.6729,2.7776,2.871,2.9399,3.0064,3.018,3.0219,3.1512,3.2859,3.4338,3.579,3.7216,3.838,3.9418,4.0565,4.1366,4.2181,4.2889,4.3368,4.3776,4.4087,4.4303,4.4397,4.4397,4.4397,4.4397,4.4087,4.3776,4.33,4.2722,4.2528,4.2258,1.6119,1.5174,1.4506,1.3505,1.2337,1.1074,1.0058,0.9273,0.8828,0.8607,0.8607,0.8607,0.8786,0.8607,0.8607,0.8607,0.8607,0.8599,0.8558,0.8517,0.864,0.8383,0.8301,0.839,0.8158,0.8113,0.8076,0.8223,0.804,0.8011,0.7876,0.7742,0.7848,0.779,0.7591,0.7409,0.7417,0.7413,0.7537,0.7529,0.7525,0.7525,0.7681,0.7998,0.8154,0.8622,0.9402,0.9869,1.0486,1.1727,1.2192,1.2811,1.3898,1.4199,1.4491,1.5101,1.5522,1.5754,1.558,1.6012,1.6168,1.6183,1.6358,1.6282,1.6245,1.651,1.7017,1.7721,1.8422,1.9262,1.9935,2.0443,2.1308,2.2295,2.3426,2.4159,2.429,2.4178,2.423,2.5046,2.5472,2.6762,2.7931,2.9083,3.014,3.1436,3.2468,3.3219,3.3647,3.3669,3.4205,3.544,3.6717,3.8121,3.929,4.0464,4.1366,4.2306,4.3081,4.3748,4.4247,4.4712,4.5018,4.5201,4.5384,4.5384,4.5384,4.5384,4.5384,4.5384,4.5081,4.4555,4.4087,4.3871,4.3681,1.6876,1.6097,1.5204,1.4158,1.2741,1.1826,1.1025,1.0475,0.9523,0.9143,0.9143,0.9139,0.9143,0.9143,0.9143,0.9139,0.9139,0.9268,0.9224,0.9184,0.8926,0.8826,0.8731,0.867,0.8786,0.8579,0.8558,0.8711,0.8488,0.8371,0.8232,0.8163,0.8115,0.8054,0.8015,0.8007,0.8002,0.7846,0.7681,0.7525,0.7681,0.7842,0.8159,0.831,0.8466,0.9397,1.0019,1.0486,1.1572,1.2501,1.2811,1.3583,1.4645,1.4911,1.4999,1.5613,1.5975,1.6147,1.6122,1.6575,1.6894,1.7073,1.7389,1.748,1.76,1.7731,1.8142,1.8703,1.9401,2.0225,2.0731,2.1358,2.2308,2.3236,2.4261,2.5275,2.5308,2.5172,2.5805,2.6726,2.7727,2.902,3.0179,3.1341,3.2582,3.3823,3.5024,3.6094,3.6395,3.6395,3.6932,3.7911,3.9162,4.0438,4.1366,4.2252,4.3054,4.3843,4.4499,4.5173,4.5656,4.5927,4.6195,4.6284,4.6373,4.6373,4.6373,4.6373,4.6403,4.6373,4.6284,4.5927,4.5475,4.5081,4.4897,1.7421,1.7204,1.5732,1.4381,1.3245,1.258,1.2355,1.2165,1.0921,1.0209,1.0209,1.003,1.003,1.003,1.003,1.0011,0.9983,0.9926,0.9859,0.984,0.9683,0.9573,0.9521,0.9459,0.9593,0.9574,0.9535,0.9302,0.9183,0.9069,0.8974,0.8926,0.8997,0.8783,0.8783,0.8778,0.8622,0.8466,0.831,0.7994,0.7994,0.8315,0.8632,0.8622,0.9246,1.0175,1.0641,1.1417,1.2501,1.312,1.3583,1.4507,1.5031,1.5564,1.578,1.608,1.6388,1.6825,1.6962,1.7275,1.7765,1.7955,1.8002,1.8703,1.8982,1.8703,1.8843,1.9808,2.0653,2.1471,2.1996,2.2303,2.3119,2.4084,2.5176,2.6041,2.6379,2.6683,2.7747,2.8683,2.9846,3.1129,3.2468,3.3599,3.4891,3.6248,3.7429,3.8589,3.9265,3.9265,3.9676,4.0488,4.1314,4.2323,4.319,4.4097,4.4656,4.5355,4.5987,4.6373,4.6726,4.7106,4.7366,4.7366,4.7336,4.7366,4.7366,4.7366,4.7279,4.7279,4.7193,4.7193,4.6844,4.6284,4.5927,1.7723,1.7211,1.6189,1.5047,1.3991,1.3768,1.3401,1.2698,1.2343,1.181,1.1099,1.1099,1.1088,1.1083,1.1083,1.0869,1.061,1.0549,1.0289,1.0209,1.0078,1.0351,1.0467,1.043,1.0404,1.0372,1.0303,1.0177,1.0019,0.9914,0.9835,0.9766,0.9713,0.9553,0.9397,0.9397,0.9246,0.909,0.9246,0.8934,0.8778,0.8778,0.8939,0.9402,1.0019,1.0796,1.1417,1.2192,1.3428,1.4199,1.4507,1.5201,1.5682,1.6055,1.6017,1.6077,1.673,1.7315,1.7928,1.828,1.8498,1.9027,1.9541,2.0237,2.0376,1.968,1.982,2.0931,2.1897,2.2585,2.3229,2.3527,2.3884,2.4919,2.6087,2.6793,2.7452,2.8487,2.9648,3.0801,3.1957,3.3283,3.4626,3.5922,3.7216,3.8484,3.9624,4.0841,4.1977,4.2366,4.2339,4.2944,4.3381,4.4284,4.5052,4.5598,4.6137,4.6579,4.7103,4.7478,4.7849,4.8019,4.8271,4.8301,4.8301,4.8301,4.8218,4.8133,4.8133,4.8049,4.7964,4.788,4.7794,4.7336,4.6901,1.7885,1.7508,1.6634,1.5676,1.5006,1.4992,1.4646,1.4115,1.4115,1.3761,1.3224,1.2514,1.2137,1.2267,1.2079,1.1834,1.1373,1.1307,1.139,1.1113,1.1025,1.1137,1.126,1.1403,1.1403,1.1363,1.1032,1.0867,1.0849,1.0762,1.0693,1.0647,1.0641,1.0486,1.033,1.0175,1.0175,1.0019,1.0336,1.018,0.9864,1.0025,1.018,1.0647,1.1107,1.1721,1.2494,1.312,1.4037,1.496,1.542,1.5928,1.6382,1.6536,1.6618,1.6971,1.7541,1.829,1.892,1.9435,1.9552,2.0237,2.0653,2.1346,2.2435,2.1885,2.1885,2.2846,2.3133,2.3816,2.4588,2.504,2.5054,2.5763,2.714,2.8127,2.9119,3.0176,3.1381,3.2488,3.3733,3.5156,3.6441,3.7911,3.929,4.0715,4.1959,4.2807,4.3975,4.4875,4.5058,4.524,4.5631,4.5929,4.6403,4.6929,4.7362,4.7904,4.824,4.8573,4.8852,4.9015,4.9178,4.9178,4.9178,4.9128,4.9047,4.8934,4.88,4.88,4.8604,4.8521,4.8469,4.8301,4.788,1.8022,1.7811,1.7119,1.6372,1.5896,1.5704,1.5704,1.5704,1.5704,1.569,1.5308,1.3899,1.3475,1.3404,1.3165,1.2897,1.2638,1.2551,1.2464,1.2377,1.2464,1.2593,1.258,1.2567,1.2523,1.2408,1.2223,1.2058,1.1886,1.181,1.1753,1.1578,1.1572,1.1572,1.1572,1.1572,1.1417,1.1262,1.1417,1.1417,1.1578,1.174,1.1585,1.1734,1.2192,1.2811,1.3583,1.4199,1.4968,1.5548,1.6124,1.6738,1.7168,1.7262,1.7174,1.7531,1.8714,1.9644,2.0308,2.0423,2.0955,2.1634,2.1897,2.2585,2.3665,2.4074,2.4074,2.4481,2.4766,2.5158,2.5935,2.6213,2.632,2.6824,2.8351,2.9733,3.0796,3.1767,3.2985,3.4202,3.5595,3.7002,3.846,3.9905,4.1314,4.2738,4.3909,4.4748,4.557,4.6344,4.687,4.71,4.7473,4.7758,4.7904,4.8157,4.8573,4.8872,4.9228,4.955,4.99,4.9947,5.0026,5.0058,4.9979,4.9931,4.9773,4.9661,4.9582,4.9421,4.9178,4.9015,4.8934,4.88,4.8552,1.7778,1.7469,1.7073,1.6784,1.6401,1.6225,1.6057,1.5704,1.5704,1.5813,1.5882,1.5503,1.4945,1.5089,1.4794,1.4323,1.3675,1.3768,1.3686,1.3763,1.3576,1.3894,1.388,1.3686,1.3881,1.371,1.3359,1.334,1.2922,1.3,1.312,1.3127,1.3127,1.2965,1.2656,1.2656,1.2501,1.2347,1.2501,1.2501,1.2501,1.2508,1.2353,1.2508,1.2656,1.3583,1.4353,1.4806,1.5582,1.6303,1.6944,1.7524,1.792,1.8135,1.8164,1.8562,1.9587,2.1028,2.1572,2.166,2.2186,2.2722,2.3133,2.3802,2.4752,2.5427,2.5831,2.662,2.6769,2.6769,2.727,2.7206,2.7426,2.8754,3.013,3.1304,3.2432,3.3501,3.4759,3.6162,3.7536,3.9005,4.0438,4.1834,4.3067,4.4442,4.545,4.6285,4.6986,4.7789,4.8543,4.8872,4.9116,4.9147,4.9066,4.9228,4.9582,4.9868,5.0104,5.0448,5.0679,5.08,5.0876,5.0755,5.0711,5.0666,5.0557,5.037,5.0136,4.9979,4.9693,4.9452,4.9403,4.9428,4.9481]}]]